GEFSSGP_con_prob3kmehi_156.txt.gz
EHI
1 1 0 0 0 0 0 0 0 1 3 6 9 12 10 4 1 1 3 15 35 37 23 17 18 18 12 7 3 2 2 1 0 0 0 0 0 0 0 0 0 0 0 0 0 0 0 0 0
1 0 0 0 0 0 0 0 0 1 5 8 10 11 9 6 5 4 8 24 42 41 26 18 20 21 16 8 3 2 2 1 0 0 0 0 0 0 0 0 0 0 0 0 0 0 0 0 1
0 0 0 0 0 0 0 0 0 2 6 10 12 11 7 8 12 12 19 38 50 44 29 23 26 25 18 10 5 2 1 0 0 0 0 0 0 0 0 0 0 0 0 0 0 0 0 0 1
0 0 0 0 0 0 0 0 1 5 10 15 17 15 11 16 27 34 41 52 56 45 30 28 31 28 19 12 7 3 1 0 0 0 0 0 0 0 0 0 0 0 0 0 0 0 0 0 1
0 0 0 0 0 1 0 0 3 10 17 22 26 22 20 33 53 61 59 60 60 49 33 30 33 30 20 13 9 4 1 0 0 0 0 0 0 0 0 0 0 0 0 0 0 0 0 0 0
0 0 0 0 0 0 0 1 5 14 22 27 30 27 29 51 71 73 66 64 64 56 41 34 33 29 21 14 9 5 2 0 0 0 0 0 0 0 0 0 0 0 0 0 0 0 0 0 0
0 0 0 0 0 0 0 1 6 14 21 26 30 31 38 59 74 73 68 67 66 60 48 39 32 26 19 12 9 6 3 1 0 0 0 0 0 0 0 0 0 0 0 0 0 0 0 0 0
0 0 0 0 0 0 0 1 5 11 16 22 28 36 51 67 76 77 75 69 62 55 49 43 35 24 15 10 8 7 4 1 0 0 0 0 0 0 0 0 0 0 0 0 0 0 0 0 0
0 0 0 0 0 0 0 2 4 10 17 26 34 47 67 80 84 87 83 71 58 49 45 44 39 27 15 9 7 7 5 2 0 0 0 0 0 0 0 0 0 0 0 0 1 1 1 0 0
0 0 0 0 0 0 0 1 5 12 23 37 50 64 79 88 90 92 88 74 61 51 44 40 36 28 19 12 8 6 4 3 1 0 0 0 0 0 0 0 0 0 0 0 1 1 1 0 0
0 0 0 0 0 0 1 2 5 12 23 39 58 72 80 85 87 89 87 77 67 55 43 35 30 24 17 12 8 5 4 3 2 1 0 0 0 0 0 0 0 0 0 0 0 0 0 0 1
0 0 0 0 0 1 2 4 5 9 18 36 55 66 72 76 80 83 83 78 69 58 43 33 26 19 13 10 6 4 3 3 2 1 0 0 0 0 0 0 0 0 0 0 0 0 0 0 1
0 0 0 0 1 2 4 5 5 10 24 41 52 57 61 68 75 78 79 77 72 62 48 36 27 18 11 8 4 2 2 3 2 1 0 0 0 0 0 0 0 0 0 0 0 0 0 0 1
0 0 0 0 1 2 4 5 7 17 35 46 47 47 51 61 71 76 78 77 73 65 52 39 30 20 12 8 4 1 1 1 1 1 0 0 0 0 0 0 0 0 0 0 0 0 0 0 0
0 0 0 0 1 1 3 4 9 22 37 41 41 44 49 58 69 76 78 76 72 66 55 44 35 27 17 11 7 4 2 1 1 0 0 0 0 0 0 0 0 0 0 0 0 0 0 0 0
0 0 0 0 0 0 1 3 8 19 30 34 39 49 56 61 68 74 75 74 72 67 59 49 42 35 26 18 13 9 6 4 2 1 1 1 0 0 0 0 0 0 0 0 0 0 0 0 0
0 0 0 0 0 0 0 1 5 13 23 32 42 54 62 65 66 68 71 72 71 68 62 54 47 40 33 26 22 18 14 11 8 5 2 1 1 1 0 0 0 0 0 0 0 0 0 0 0
0 0 0 0 0 0 0 1 3 9 18 31 43 55 63 65 62 63 67 69 69 66 62 55 48 42 37 34 31 27 22 18 14 9 5 3 3 3 1 0 1 1 0 0 0 0 0 0 0
0 0 0 0 0 0 0 1 3 8 15 26 40 54 63 64 61 62 65 66 65 63 59 54 48 42 40 39 37 34 29 23 17 12 8 8 8 6 3 1 2 2 1 0 0 0 0 0 0
0 0 0 0 0 0 0 1 4 8 14 22 36 53 64 65 64 65 65 64 63 60 56 53 50 44 41 39 38 35 30 23 18 13 10 12 12 8 5 3 2 2 1 0 0 0 0 0 0
0 0 0 0 0 0 0 1 4 8 12 20 33 49 64 68 67 66 64 62 61 58 55 54 52 46 41 37 35 33 28 22 18 14 12 12 11 7 5 3 2 1 0 0 0 0 0 0 0
0 0 0 0 0 0 0 1 3 7 12 19 30 45 58 65 65 63 61 60 59 56 54 53 52 48 42 36 33 32 26 19 15 14 12 10 8 5 3 1 1 0 0 0 0 0 0 0 0
0 0 0 0 0 0 0 0 1 6 11 15 24 38 50 56 59 58 57 58 57 53 51 50 49 46 42 36 32 29 23 16 13 12 10 8 6 4 2 0 0 0 0 0 0 0 0 0 0
0 0 0 0 0 0 0 0 1 4 8 11 17 29 42 50 53 54 54 55 53 50 48 46 44 42 38 33 28 24 18 13 10 10 8 7 6 4 2 1 0 0 0 0 0 0 0 0 0
0 0 0 0 0 0 0 0 0 2 5 9 15 25 36 42 44 47 49 50 48 45 43 42 40 39 34 28 23 18 12 8 7 6 6 6 6 4 2 1 0 0 0 0 1 0 0 0 0
0 0 0 0 0 0 0 0 0 2 5 11 17 25 33 34 34 38 42 42 39 38 38 38 37 36 31 24 19 14 8 4 3 3 3 3 4 3 1 0 0 0 0 0 0 0 0 0 0
0 0 0 0 0 0 0 0 0 2 7 13 18 24 27 27 29 33 36 35 32 32 32 33 32 30 27 21 16 12 7 3 1 1 1 1 1 1 1 0 0 0 0 0 0 0 0 0 0
0 0 0 0 0 0 0 0 0 2 7 12 15 17 19 21 25 31 33 31 30 29 29 28 26 24 22 18 15 13 10 5 2 1 0 0 0 0 0 0 0 0 0 0 0 0 0 0 0
0 0 0 0 0 0 0 0 0 1 4 7 9 11 12 16 22 26 28 28 27 27 27 28 25 21 18 16 15 14 12 9 5 1 0 0 0 0 0 0 0 0 0 0 0 0 0 0 0
0 0 0 0 0 0 0 0 0 0 2 4 6 7 10 14 18 22 24 24 24 24 27 29 27 22 18 15 14 14 13 11 6 2 0 0 0 0 0 0 0 0 0 0 0 0 0 0 0

GEFSSGP_con_prob3kmehi_162.txt.gz
EHI
0 0 0 0 0 0 0 0 0 0 0 0 0 1 1 1 0 0 0 2 5 5 3 5 10 13 13 11 9 7 5 4 3 3 3 3 2 1 1 1 1 0 0 0 0 0 0 0 0
0 0 0 0 0 0 0 0 0 0 0 0 1 1 1 1 0 0 0 2 6 7 4 5 11 14 14 12 10 8 6 4 3 4 3 3 2 1 1 1 0 0 0 0 0 0 0 0 0
0 0 0 0 0 0 0 0 0 0 0 1 2 3 2 1 0 0 1 4 8 9 5 7 14 17 15 13 10 9 7 4 4 4 4 3 2 1 1 0 0 0 0 0 0 0 0 0 0
0 0 0 0 0 0 0 0 0 0 0 1 4 6 4 1 1 3 5 8 12 11 7 10 16 17 14 12 10 9 7 4 3 4 3 3 2 1 0 0 0 0 0 0 0 0 0 0 0
0 0 0 0 0 0 0 1 1 2 1 3 9 11 6 3 7 12 12 13 15 14 9 11 17 17 14 12 10 9 6 4 3 3 3 3 2 1 0 0 0 0 0 0 0 0 0 0 0
0 0 0 0 0 0 0 2 4 5 5 8 15 15 8 7 16 22 22 19 19 17 12 11 14 16 14 12 10 8 6 4 3 3 3 3 2 1 0 0 0 0 0 0 0 0 0 0 0
0 0 0 0 0 0 0 2 5 7 8 13 21 19 12 14 24 31 31 27 24 20 16 13 11 13 13 11 8 6 6 5 4 3 2 2 1 1 0 0 0 0 0 0 0 0 0 0 0
0 0 0 0 0 0 0 1 3 6 9 15 20 17 17 27 38 44 43 37 28 22 19 16 13 12 11 8 5 5 6 6 5 3 2 1 0 0 0 0 0 0 0 0 0 0 0 0 0
0 0 0 0 0 0 0 0 1 3 8 15 18 19 31 53 63 60 54 44 31 23 20 21 19 14 11 7 4 3 4 5 5 4 3 1 0 0 0 0 0 0 0 0 0 0 0 0 0
0 0 0 0 0 0 0 0 0 2 7 15 26 39 60 78 78 67 55 44 33 25 22 22 21 17 13 9 5 3 2 3 5 6 4 2 0 0 0 0 0 0 0 0 0 0 0 0 0
0 0 0 0 0 0 0 0 1 2 4 16 41 67 82 87 78 61 47 38 32 29 25 21 18 16 14 11 6 3 2 3 5 6 4 2 1 0 0 0 0 0 0 0 0 0 0 0 0
0 0 0 0 0 0 0 0 1 1 4 22 55 82 89 84 70 52 39 33 31 33 30 22 18 16 13 10 7 4 2 2 3 3 3 2 1 0 0 0 0 0 0 0 0 0 0 0 0
0 0 0 0 0 0 0 0 0 1 9 32 66 87 89 80 64 47 35 32 33 35 33 27 22 18 14 10 7 5 2 1 1 1 1 1 1 0 0 0 0 0 0 0 0 0 0 0 0
0 0 0 0 0 0 1 1 0 4 20 47 72 85 85 77 66 50 37 34 32 31 31 29 25 20 16 11 7 4 2 1 0 0 0 0 0 0 0 0 0 0 0 0 0 0 0 0 0
0 0 0 0 0 0 1 1 1 9 30 53 70 78 79 74 67 55 42 35 30 28 30 30 24 20 15 11 7 4 2 1 0 0 0 0 0 0 0 0 0 0 0 0 0 0 0 0 0
0 0 0 0 0 0 1 1 2 12 33 51 62 68 69 66 60 53 44 34 28 27 29 29 24 19 15 9 5 4 2 1 0 0 0 0 0 0 0 0 0 0 0 0 0 0 0 0 0
0 0 0 0 0 0 0 0 1 10 27 42 51 56 56 54 51 49 44 35 29 27 27 27 24 19 14 10 5 3 3 1 0 0 0 0 0 0 0 0 0 0 0 0 0 0 0 0 0
0 0 0 0 0 0 0 0 1 6 16 29 40 44 42 41 42 44 45 41 34 29 28 29 26 20 15 12 8 5 4 2 1 0 0 0 0 0 0 0 0 0 0 0 0 0 0 0 0
0 0 0 0 0 0 0 0 1 4 9 18 29 35 35 33 35 39 44 46 43 39 37 36 30 21 16 15 12 8 6 3 1 0 0 0 0 0 0 0 0 0 0 0 0 0 0 0 0
0 0 0 0 0 0 0 0 1 3 6 12 19 27 31 31 32 37 44 50 51 51 49 43 34 25 19 16 13 9 5 3 1 0 0 0 0 0 0 0 0 0 0 0 0 0 0 0 0
0 0 0 0 0 0 0 0 0 2 6 9 12 19 27 31 33 37 45 52 55 57 56 47 37 29 22 18 15 10 5 2 0 0 0 0 0 0 0 0 0 0 0 0 0 0 0 0 0
0 0 0 0 0 0 0 0 0 2 7 9 11 17 23 27 31 37 45 53 56 57 56 48 40 34 28 24 21 15 6 1 0 0 0 0 0 0 0 0 0 0 0 0 0 0 0 0 0
0 0 0 0 0 0 0 0 0 2 7 10 13 16 19 23 29 36 41 46 50 53 52 48 45 39 33 29 25 18 9 3 1 2 3 2 1 0 0 0 0 0 0 0 0 0 0 0 0
0 0 0 0 0 0 0 0 0 1 4 7 12 16 18 21 26 31 33 37 41 45 45 45 43 38 32 28 25 19 12 7 5 6 6 5 3 1 0 0 0 0 0 0 0 0 0 0 0
0 0 0 0 0 0 0 0 0 0 1 3 8 15 20 23 26 28 28 29 33 35 36 37 36 31 29 26 23 19 14 9 7 7 7 6 4 2 0 0 0 0 0 0 0 0 0 0 0
0 0 0 0 0 0 0 0 0 0 0 1 5 12 19 23 26 28 26 24 24 27 29 29 27 25 25 24 21 16 12 7 5 5 5 5 2 1 0 0 0 0 0 0 0 0 0 0 0
0 0 0 0 0 0 0 0 0 0 0 1 3 9 16 20 22 23 23 20 17 19 23 24 22 20 20 20 18 12 8 5 3 2 3 2 1 0 0 0 0 0 0 0 0 0 0 0 0
0 0 0 0 0 0 0 0 0 0 0 1 3 7 12 14 15 15 15 15 14 13 16 18 18 17 15 14 12 9 5 3 1 0 1 1 0 0 0 0 0 0 0 0 0 0 0 0 0
0 0 0 0 0 0 0 0 0 0 0 1 3 5 8 11 10 9 10 11 12 10 9 11 12 13 11 9 8 6 3 2 1 1 0 0 0 0 0 0 0 0 0 0 0 0 0 0 0
0 0 0 0 0 0 0 0 0 0 0 1 2 5 8 10 9 8 9 9 9 8 5 5 8 9 9 8 5 4 2 2 2 2 1 0 0 0 0 0 0 0 0 0 0 0 0 0 0

GEFSSGP_con_prob3kmehi_168.txt.gz
EHI
0 0 0 1 1 1 0 0 0 0 0 0 0 0 0 0 0 0 0 1 3 5 5 4 3 2 1 4 10 11 9 7 7 8 6 2 0 0 0 0 0 0 0 0 0 0 0 0 0
0 0 0 1 1 0 0 0 0 0 0 0 0 0 0 0 0 0 0 1 3 4 4 4 4 3 1 3 8 10 8 6 7 7 5 2 0 0 0 0 0 0 0 0 0 0 0 0 0
0 0 0 0 0 0 0 0 0 0 0 0 0 1 1 0 1 1 1 1 2 3 4 5 6 3 1 2 6 7 6 5 5 5 4 1 0 0 0 0 0 0 0 0 0 0 0 0 0
0 0 0 0 0 0 0 0 0 0 0 0 0 1 1 1 1 2 1 1 2 2 4 7 8 4 2 3 4 5 4 4 4 4 3 1 0 0 0 0 0 0 0 0 0 0 0 0 0
0 0 0 0 0 0 0 0 0 0 0 0 1 2 3 2 3 2 1 1 1 1 3 8 10 7 4 3 4 3 3 3 3 3 3 1 0 0 0 0 0 0 0 0 0 0 0 0 0
0 0 0 0 0 0 0 0 0 0 0 1 1 4 6 7 6 4 2 1 1 1 4 8 10 8 5 3 3 3 3 3 3 3 2 1 0 0 0 0 0 0 0 0 0 0 0 0 0
0 0 0 0 0 0 0 0 0 0 0 1 1 4 11 18 17 10 4 2 3 3 5 8 7 5 3 2 2 2 2 3 3 2 1 1 0 0 0 0 0 0 0 0 0 0 0 0 0
0 0 0 0 0 0 0 0 0 0 1 1 1 5 22 40 39 24 13 9 6 5 7 8 5 4 3 2 1 1 1 1 2 1 0 0 0 0 0 0 0 0 0 0 0 0 0 0 0
0 0 0 0 0 0 0 0 0 0 1 2 4 14 41 67 66 49 34 23 15 9 9 8 6 5 4 3 2 1 0 1 1 0 0 0 0 0 0 1 0 0 0 0 0 0 0 0 0
0 0 0 0 0 0 0 0 0 0 1 2 11 34 65 83 82 69 54 39 26 16 11 10 9 7 5 4 3 2 1 1 1 1 1 0 0 0 1 2 1 0 0 0 0 0 0 0 0
0 0 0 0 0 0 0 0 0 0 0 2 18 53 81 90 86 75 59 44 33 23 15 12 11 9 6 6 5 2 2 2 3 4 3 1 0 0 0 1 0 0 0 0 0 0 0 0 0
0 0 0 0 0 0 0 0 0 0 0 2 22 58 85 91 85 73 57 42 34 29 22 16 14 12 10 9 7 4 3 4 5 6 6 3 2 1 1 0 0 0 0 0 0 0 0 0 0
0 0 0 0 0 0 0 0 0 0 1 5 25 57 80 85 80 70 57 45 37 33 27 21 18 17 16 13 9 6 6 7 7 8 7 6 5 4 3 2 0 1 1 1 0 0 0 0 0
0 0 0 0 0 0 0 0 0 1 3 10 27 51 67 74 75 69 61 52 42 34 30 26 24 22 20 16 10 9 9 10 9 8 9 8 7 6 6 4 2 1 2 2 1 0 0 0 0
0 0 0 0 0 0 0 0 0 1 4 12 25 42 55 64 67 64 60 54 44 36 33 31 28 25 22 16 11 9 9 9 7 7 10 11 8 7 6 5 3 2 3 3 1 0 0 0 0
0 0 0 0 0 0 0 0 1 1 4 12 23 35 48 56 57 53 51 48 42 37 36 33 29 26 23 18 14 11 9 8 6 7 10 10 9 7 6 5 4 4 4 3 1 0 0 0 0
0 0 0 0 0 0 0 1 2 2 4 9 19 32 44 49 48 46 44 41 38 37 36 34 31 29 26 21 16 13 11 9 8 8 9 9 9 7 6 6 6 5 5 4 2 0 0 0 0
0 0 0 0 0 0 0 1 3 2 3 6 13 25 36 41 43 43 40 37 38 38 38 37 36 34 30 23 19 17 14 11 9 9 10 11 10 7 6 5 5 5 5 3 2 0 0 0 0
0 0 0 0 0 0 0 0 1 2 3 3 8 17 26 32 40 45 43 41 41 43 43 43 43 43 39 32 26 22 18 14 12 12 13 14 12 9 6 4 3 5 5 3 1 0 0 0 0
0 0 0 0 0 0 0 0 1 2 2 2 5 11 18 26 39 49 51 50 49 47 46 47 50 51 48 42 34 29 25 20 15 13 14 14 14 13 9 6 4 5 6 5 2 0 0 0 0
0 0 0 0 0 0 0 0 0 0 1 3 6 9 12 21 35 48 54 56 54 50 46 46 51 55 53 47 38 34 32 25 18 15 14 14 15 15 13 9 8 8 7 5 3 1 0 0 0
0 0 0 0 0 0 0 0 0 0 3 7 10 10 11 17 28 39 48 53 53 48 43 45 52 57 58 51 42 36 31 25 20 18 16 16 17 16 14 11 9 8 6 4 3 2 0 0 0
0 0 0 0 0 0 0 0 0 1 4 10 12 13 15 18 26 32 38 46 48 44 41 45 52 59 59 54 45 37 28 22 22 22 21 20 20 18 14 10 8 6 4 4 4 3 1 1 0
0 0 0 0 0 0 0 0 1 3 7 10 13 15 17 21 27 31 35 43 47 46 45 46 52 58 58 52 44 37 29 24 24 24 22 21 20 19 15 11 8 6 6 6 5 4 3 2 1
0 0 0 0 0 0 0 0 2 6 8 10 13 16 18 23 27 32 40 46 47 48 49 49 52 56 53 47 41 35 31 27 24 22 20 18 18 18 17 15 12 10 9 9 6 4 3 2 1
0 0 0 0 0 0 0 1 3 5 8 10 13 17 21 24 26 32 41 44 42 43 44 45 48 49 47 42 38 34 30 24 18 16 16 18 17 15 16 16 13 12 12 11 8 5 3 1 1
0 0 0 0 0 0 0 1 3 5 6 7 12 17 20 23 25 29 34 36 35 35 37 38 40 42 42 39 32 28 25 20 13 9 11 16 15 12 12 12 10 10 11 11 10 8 6 3 2
0 0 0 0 0 0 0 1 4 6 6 7 12 16 18 21 24 27 30 32 33 33 34 34 34 35 36 32 25 18 16 14 11 7 8 12 12 9 7 7 6 7 8 9 9 9 8 5 4
0 0 0 0 0 0 0 1 4 8 9 9 12 14 17 20 22 27 33 36 36 35 34 31 28 27 24 21 16 11 9 9 9 8 6 9 11 9 6 5 4 4 5 6 7 6 5 4 4
0 0 0 0 0 0 0 1 4 8 10 11 11 13 15 18 22 28 35 40 39 37 34 28 23 19 16 12 10 9 8 8 9 7 5 7 10 9 6 4 3 4 5 6 6 4 2 2 3

GEFSSGP_con_prob3kmehi_174.txt.gz
EHI
2 5 10 15 16 10 2 0 0 0 0 0 0 0 0 0 0 2 12 25 24 11 3 3 2 1 0 0 0 0 0 0 0 1 0 1 1 1 0 0 0 0 0 0 0 0 0 0 0
2 6 9 12 11 6 1 0 0 0 0 0 0 0 0 0 1 5 15 24 20 8 2 3 3 1 0 0 0 0 0 0 1 1 1 1 1 0 0 0 0 0 0 0 0 0 0 0 0
2 4 5 6 5 2 0 0 0 0 0 0 0 0 0 0 2 9 18 20 13 5 2 3 5 3 2 1 1 0 0 0 1 2 3 2 1 0 0 0 0 0 0 0 0 0 0 0 0
2 2 1 2 1 1 0 0 0 0 0 1 3 3 1 1 4 11 15 14 11 7 4 5 7 6 4 2 1 0 0 0 1 2 3 2 1 0 0 0 0 0 0 0 0 0 0 0 0
1 0 0 0 0 0 0 0 0 0 1 4 8 7 3 2 6 8 9 11 13 13 8 6 7 7 5 3 1 0 0 0 0 1 3 2 1 0 0 0 0 0 0 0 0 0 0 0 0
0 0 0 0 0 0 0 0 0 1 2 5 10 10 5 4 5 4 4 11 21 22 13 8 7 7 6 4 2 1 1 0 0 1 2 2 1 0 0 0 0 0 0 0 0 0 0 0 0
0 0 0 0 0 0 0 0 0 1 1 3 9 12 10 11 9 4 5 16 30 28 16 8 6 6 4 4 3 3 3 2 0 0 1 1 1 0 0 0 0 0 0 0 0 0 0 0 0
0 0 0 0 0 0 0 0 0 1 1 2 8 16 22 23 18 13 15 26 36 30 16 8 6 5 3 3 3 4 4 3 1 0 0 0 0 0 0 0 0 0 0 0 0 0 0 0 0
0 0 0 0 0 0 0 0 0 0 2 7 16 27 35 33 27 25 30 38 41 31 18 11 8 5 3 2 3 3 2 2 1 0 0 0 0 0 0 1 1 0 0 0 0 0 0 0 0
0 0 0 0 0 0 0 0 0 1 4 16 34 45 44 39 37 37 41 49 50 38 24 16 12 7 4 3 2 1 1 2 1 0 0 0 0 0 1 2 2 1 0 0 0 0 0 0 0
0 0 0 0 0 0 0 0 0 1 5 23 49 58 48 42 44 46 49 58 61 48 33 25 19 13 10 6 3 1 1 2 1 0 0 0 0 0 1 2 2 1 0 0 0 0 0 0 0
0 0 0 0 0 0 0 0 0 1 6 26 53 59 47 44 48 51 56 66 67 57 46 41 33 26 23 15 7 4 4 4 3 3 2 1 0 0 1 3 3 1 0 0 0 0 0 0 0
0 0 0 0 0 0 0 0 0 1 7 29 53 55 45 45 52 57 63 71 71 64 60 59 53 46 40 29 15 10 10 9 10 8 5 4 4 5 5 4 3 1 0 1 1 1 0 0 1
0 0 0 0 0 0 0 0 0 1 10 31 51 53 48 51 59 68 75 78 77 72 70 73 71 65 56 39 22 16 16 17 17 16 13 11 14 15 12 5 2 1 2 4 3 1 0 0 1
0 0 0 0 0 0 0 0 0 2 10 27 46 54 55 62 70 78 86 87 83 80 80 79 76 74 66 45 26 19 21 22 25 28 26 21 23 25 17 7 3 4 8 9 5 2 1 1 1
0 0 0 0 0 0 0 0 1 3 9 22 40 54 65 75 80 84 90 91 87 87 89 84 75 74 69 51 33 26 27 31 38 41 36 29 29 30 21 12 11 13 13 9 5 2 2 3 3
0 0 0 0 0 0 0 1 2 3 8 18 34 53 72 84 87 88 91 91 89 91 93 87 79 77 71 57 43 39 42 46 46 45 42 38 35 32 24 21 24 20 12 7 5 6 6 5 4
0 0 0 0 0 0 0 1 2 4 8 14 28 49 72 88 92 92 91 90 90 92 92 87 83 80 75 66 57 54 58 56 48 45 47 47 42 34 28 30 31 23 13 8 9 12 11 6 4
0 0 0 0 0 0 0 1 2 4 7 13 23 42 66 84 92 94 92 90 91 92 89 84 80 79 78 74 69 65 64 58 49 47 53 54 49 40 33 32 34 27 20 18 17 17 13 7 4
0 0 0 0 0 0 0 1 3 4 6 12 20 35 57 77 88 92 92 91 91 91 88 83 79 77 77 76 72 67 62 55 48 49 57 58 52 45 37 36 37 33 30 29 26 21 14 8 4
0 0 0 0 0 0 0 1 4 6 6 10 17 29 49 70 84 90 91 90 90 90 86 82 78 75 75 74 71 67 65 56 49 52 58 58 52 46 42 41 40 36 35 35 30 22 15 9 5
0 0 0 0 0 0 0 1 4 7 7 7 13 24 40 62 80 88 88 88 87 85 82 79 76 74 74 73 71 72 70 61 55 56 58 56 51 46 44 43 41 37 35 36 32 23 17 11 7
0 0 0 0 0 0 0 1 3 6 7 6 10 21 35 54 74 84 86 85 83 80 78 79 78 75 74 74 74 75 72 66 61 60 59 55 51 47 44 42 42 39 36 35 35 28 19 13 9
0 0 0 0 0 0 0 0 2 5 6 6 10 20 35 51 68 78 82 82 79 77 79 81 80 77 74 75 77 77 73 67 64 62 59 54 50 46 42 40 40 41 39 37 37 33 23 13 9
0 0 0 0 0 0 0 1 4 7 8 9 14 23 35 50 63 72 77 79 78 77 79 81 80 77 74 76 79 79 74 66 61 59 57 53 47 42 38 36 38 41 41 38 37 34 25 15 11
0 0 0 0 0 0 0 3 7 10 11 13 20 28 36 47 59 68 73 74 75 77 78 78 78 75 74 75 76 77 73 64 57 55 54 50 43 36 32 33 36 40 38 35 34 32 24 18 16
0 0 0 0 0 0 1 6 11 12 13 18 24 31 35 42 52 61 65 67 70 73 75 75 75 74 73 72 70 69 67 63 59 57 53 46 38 32 30 31 35 38 36 32 31 27 23 21 20
0 0 0 0 0 0 2 7 12 14 16 21 26 30 33 38 46 54 59 63 67 68 69 69 70 71 70 68 64 61 62 63 62 58 51 43 36 32 29 29 31 35 36 33 28 24 23 24 23
0 0 0 0 0 0 2 6 11 15 17 20 26 29 31 36 44 51 57 62 63 61 59 60 61 61 62 62 60 57 58 59 57 52 46 39 34 31 28 25 26 31 35 33 27 21 22 23 24
0 0 0 0 0 0 2 6 12 15 15 18 25 29 31 35 41 49 57 60 58 55 53 55 55 54 55 58 59 58 57 54 50 47 44 37 32 29 25 21 22 27 30 31 25 19 19 22 22

GEFSSGP_con_prob3kmehi_180.txt.gz
EHI
1 1 0 1 2 1 0 0 0 1 2 2 3 3 4 4 4 4 4 8 15 14 9 9 12 12 8 4 4 4 4 4 7 9 7 6 6 6 6 6 6 6 5 4 3 3 3 3 3
1 0 0 1 1 1 0 0 1 2 2 2 3 3 4 4 4 4 5 11 18 16 11 10 12 11 8 5 4 4 3 4 6 7 6 4 4 5 6 6 6 6 5 4 3 3 3 3 3
0 0 0 0 0 0 0 1 4 6 5 3 3 3 3 4 4 4 7 15 19 16 11 11 12 11 9 6 4 3 3 4 5 5 4 3 3 4 4 4 4 4 5 4 3 3 3 3 3
0 0 0 0 0 0 0 1 7 11 9 5 4 3 3 5 8 8 9 15 17 14 11 12 13 11 9 7 5 3 3 4 5 6 4 3 3 3 3 3 3 3 4 3 3 3 3 3 3
0 0 0 0 0 0 0 3 11 17 14 9 7 4 5 11 16 14 10 13 16 13 11 13 13 11 9 7 5 4 3 4 5 6 5 4 3 3 3 3 3 3 3 3 3 3 3 3 3
0 0 0 0 0 0 1 6 15 21 20 14 9 5 7 16 20 14 8 10 13 13 12 12 12 10 8 7 6 5 3 3 4 6 5 4 3 3 3 3 3 3 3 3 3 3 3 3 3
0 0 0 0 0 0 2 7 14 21 22 17 9 5 9 17 19 14 9 9 11 13 13 12 10 7 6 7 7 6 4 3 4 5 4 3 3 3 3 3 3 3 3 3 3 3 3 3 3
0 0 0 0 0 0 2 5 10 16 18 13 6 6 13 24 29 24 17 13 12 12 13 11 8 5 5 5 6 5 4 3 4 4 4 3 3 3 3 3 3 3 3 3 3 3 3 3 3
0 0 0 0 0 0 1 5 9 14 16 12 8 11 23 39 48 42 29 20 15 12 11 9 7 4 3 3 4 4 3 3 3 4 3 3 3 3 3 3 3 3 3 3 3 3 4 3 3
0 0 0 1 2 1 2 6 12 17 20 19 19 23 34 50 62 57 41 27 19 13 9 7 6 4 3 3 3 3 3 3 3 3 3 2 2 3 3 3 3 3 3 3 3 4 4 3 2
0 0 1 2 3 2 2 5 12 19 21 24 30 37 44 55 66 63 47 32 21 14 9 6 5 4 3 3 3 3 3 3 3 3 3 2 1 2 3 3 3 3 2 2 3 3 2 1 1
0 0 1 2 3 1 1 5 11 15 17 23 34 42 48 54 61 61 50 36 24 15 9 6 5 4 3 3 3 3 3 3 3 3 3 2 1 2 3 2 2 1 1 1 1 1 0 0 0
0 0 1 2 2 1 2 6 11 17 22 27 34 40 45 51 57 61 57 46 33 21 12 7 4 3 3 3 3 3 3 3 3 3 3 2 2 2 2 1 1 0 0 0 1 1 0 0 0
0 0 0 1 1 2 4 8 15 25 34 36 36 37 40 48 57 66 68 60 48 34 21 12 7 5 4 3 3 3 3 3 3 3 3 3 2 2 2 1 1 0 0 1 2 1 0 0 0
0 0 0 1 2 4 6 10 20 34 42 40 37 34 36 43 56 70 75 71 61 51 39 27 18 12 9 6 5 5 4 4 4 3 3 3 3 2 2 2 1 0 0 1 2 1 0 0 0
0 0 0 1 2 3 4 9 23 41 48 44 37 33 32 38 51 68 78 76 70 66 60 49 37 28 20 13 10 9 8 7 6 4 4 4 3 3 3 2 1 0 1 2 2 1 0 0 0
0 0 0 1 1 2 4 10 25 45 55 52 44 38 33 37 49 65 77 78 74 74 73 66 56 45 35 26 20 16 14 12 9 7 6 6 5 4 3 1 0 1 2 3 3 2 1 0 0
0 0 0 0 0 1 5 13 27 44 54 55 51 47 43 44 52 65 75 79 77 75 76 75 67 57 47 38 31 26 21 18 15 12 11 10 9 6 4 1 1 2 3 3 3 2 1 0 0
0 0 0 0 0 1 6 14 25 37 46 51 54 56 56 54 58 67 76 82 81 78 78 79 72 62 53 47 39 32 27 23 20 17 16 15 14 11 6 3 3 3 3 3 3 2 1 0 0
0 0 0 0 0 0 3 10 19 27 37 46 54 61 64 63 66 71 77 83 84 80 79 79 73 63 54 48 41 33 28 25 23 23 22 20 19 16 11 6 4 3 2 3 3 1 0 0 0
0 0 0 0 0 0 2 5 10 17 27 40 52 60 64 67 71 74 77 82 83 80 76 74 71 64 54 48 41 34 30 29 27 26 27 27 24 21 16 9 5 3 2 2 2 1 0 0 0
0 0 0 0 0 0 1 2 4 9 19 32 46 56 60 66 72 75 77 79 80 77 72 70 69 64 56 49 43 38 33 30 26 24 26 29 28 24 18 11 6 3 1 1 1 1 1 0 0
0 0 0 0 0 0 0 1 1 5 13 24 38 52 60 66 72 76 77 77 76 73 70 68 68 64 57 50 44 40 33 25 19 18 21 25 27 24 21 15 8 4 2 1 1 1 1 0 0
0 0 0 0 0 0 0 0 1 3 9 19 34 50 61 68 73 75 75 74 72 71 69 67 65 61 56 51 45 41 33 21 16 17 19 21 23 24 25 21 13 8 5 2 1 1 1 0 0
0 0 0 0 0 0 0 0 0 2 8 20 34 47 58 66 70 71 72 72 69 67 65 63 61 59 56 52 46 41 32 23 17 18 17 17 19 22 23 22 15 9 6 3 2 1 0 0 0
0 0 0 0 0 0 0 0 1 3 11 22 32 42 52 59 63 66 68 68 65 62 60 60 60 58 54 50 44 37 31 24 18 16 14 13 15 16 17 16 11 7 5 3 2 1 1 0 0
0 0 0 0 0 0 0 1 2 7 16 24 29 35 44 51 58 62 63 62 59 57 56 57 59 56 51 47 43 37 31 25 19 14 11 10 11 11 10 9 6 4 4 3 3 3 2 2 2
0 0 0 0 0 0 0 2 3 8 17 23 26 32 40 49 55 58 57 54 53 52 52 52 54 52 47 44 42 35 27 21 17 14 12 10 9 8 6 5 4 3 3 3 3 3 3 4 3
0 0 0 0 0 0 0 1 3 8 14 20 26 33 42 49 52 52 50 49 49 49 49 48 48 47 43 40 38 31 23 19 17 15 13 11 9 7 6 5 4 3 3 3 3 3 4 4 4
0 0 0 0 0 0 0 1 4 8 12 18 27 34 41 46 49 49 48 48 49 49 49 49 47 43 39 36 33 29 23 20 18 15 13 11 8 7 7 6 5 4 3 3 3 3 4 5 5

GEFSSGP_con_prob3kmehi_186.txt.gz
EHI
0 0 0 0 0 0 0 0 0 0 0 0 0 0 0 0 0 0 0 0 0 1 0 0 0 1 2 5 9 12 11 9 6 3 3 4 4 3 3 3 3 3 2 1 0 0 0 0 0
0 0 0 0 0 0 0 0 0 0 0 0 0 0 0 0 0 0 0 0 1 2 1 1 1 2 3 5 10 11 10 7 4 2 2 3 3 3 2 3 3 3 2 1 1 0 0 0 1
0 0 0 0 0 0 0 0 0 0 0 0 0 0 0 0 0 0 0 1 3 3 3 3 4 3 3 5 8 10 8 5 3 1 1 3 3 3 3 3 3 2 1 1 1 0 0 1 2
0 0 0 0 0 0 0 0 0 0 0 0 0 0 0 0 0 0 0 3 6 5 4 5 7 6 4 4 6 7 6 4 2 1 2 3 3 3 3 3 3 2 1 1 1 1 0 1 2
0 0 0 0 0 0 0 0 0 1 1 0 0 0 0 0 1 1 1 3 7 7 5 7 9 8 6 4 4 4 4 3 2 2 3 3 3 3 3 2 2 1 0 1 1 1 1 1 1
0 0 0 0 0 0 0 0 1 2 2 1 0 0 0 0 2 5 4 4 5 7 7 7 8 8 6 4 3 3 4 4 4 3 3 3 3 2 1 1 1 1 0 1 1 1 0 0 0
0 0 0 0 0 0 0 0 1 3 3 1 0 0 0 1 4 7 7 5 4 6 6 7 7 7 5 4 3 4 5 6 5 4 3 2 1 1 0 0 0 0 0 0 0 0 0 0 0
0 0 0 0 0 0 0 1 2 3 3 1 0 1 2 3 5 7 8 6 4 4 5 6 6 6 4 3 3 4 5 6 5 2 1 1 0 0 0 0 0 0 0 0 0 0 0 0 0
0 0 0 0 0 0 1 1 2 3 4 3 1 5 11 10 7 8 9 7 5 4 4 4 5 6 4 3 3 3 4 4 3 1 0 0 0 0 0 0 0 0 0 0 0 0 0 0 0
0 0 0 0 0 1 2 2 2 3 5 6 9 19 28 21 11 8 8 7 5 3 3 3 4 5 5 4 3 3 3 3 2 1 0 0 0 0 0 0 0 0 0 0 0 0 0 0 0
0 0 0 0 0 1 2 3 3 3 5 11 24 41 43 29 14 8 7 6 4 3 3 3 3 4 4 4 3 3 3 2 1 0 0 0 0 0 0 0 0 0 0 0 0 0 0 0 0
0 0 0 0 0 1 3 4 4 3 5 15 37 54 48 30 15 8 5 4 3 3 2 1 1 1 2 3 3 3 2 1 0 0 0 0 0 0 0 0 0 0 0 0 0 0 0 0 0
0 0 0 0 0 1 3 5 6 5 10 25 46 55 46 29 16 10 7 4 2 2 1 0 0 1 1 1 1 2 1 0 0 0 0 0 0 0 0 0 0 0 0 0 0 0 0 0 0
0 0 0 0 0 1 3 6 6 10 22 38 49 50 41 28 18 14 11 7 3 1 0 0 0 1 2 1 0 0 0 0 0 0 0 0 0 0 0 0 0 0 0 0 0 0 0 0 0
0 0 0 0 0 1 2 4 5 15 34 46 44 41 36 27 21 19 15 10 4 1 0 0 0 1 2 1 0 0 0 0 0 0 0 0 0 0 0 0 0 0 0 0 0 0 0 0 0
0 0 0 0 0 0 1 2 6 19 38 44 38 33 29 24 22 21 18 13 7 4 3 2 1 1 1 1 0 0 0 0 0 0 0 0 0 0 0 0 0 0 0 0 0 0 0 0 0
0 0 0 1 1 1 1 2 7 20 35 40 36 31 24 20 21 22 20 17 13 10 8 6 5 3 2 0 0 0 0 0 0 0 0 0 0 0 0 0 0 0 0 0 0 0 0 0 0
0 0 0 1 2 1 1 3 8 17 27 32 33 29 23 19 21 23 22 20 17 14 11 9 8 5 3 1 0 0 0 0 0 0 0 0 0 0 0 0 0 0 0 0 0 0 0 0 0
0 0 0 0 1 1 1 3 6 13 20 23 25 24 22 20 21 25 26 24 20 18 15 12 9 6 4 3 1 1 1 0 0 0 0 0 0 0 1 1 0 0 0 0 0 0 0 0 0
0 0 0 0 0 0 1 2 4 8 13 15 17 18 19 20 22 28 34 33 30 27 25 21 14 10 8 6 3 2 1 1 1 0 1 1 0 0 1 1 0 0 1 0 0 0 0 0 0
0 0 0 0 0 0 0 1 3 4 7 9 10 12 15 19 23 30 40 44 41 39 38 34 26 20 17 14 10 6 5 5 4 3 3 2 1 1 1 1 0 0 0 0 0 0 0 0 0
0 0 0 0 0 0 0 0 1 2 3 6 6 8 13 16 21 31 43 49 49 48 47 44 38 31 26 24 22 17 14 11 8 6 6 5 3 3 3 2 0 0 0 0 0 0 0 0 0
0 0 0 0 0 0 0 0 0 1 3 6 7 9 12 17 23 33 45 51 52 50 49 48 43 36 32 30 30 28 21 14 9 7 7 7 6 5 5 3 1 1 0 0 0 0 0 1 1
0 0 0 0 0 0 0 0 0 0 2 5 9 12 15 21 28 36 44 50 51 50 49 50 44 38 33 31 30 31 23 12 7 7 8 9 8 6 5 5 3 2 1 0 0 0 0 0 0
0 0 0 0 0 0 0 0 0 0 0 3 10 16 20 26 33 38 42 47 49 50 53 52 46 38 33 28 27 27 21 11 6 7 9 9 7 5 4 5 4 2 1 0 0 0 0 0 0
0 0 0 0 0 0 0 0 0 0 1 3 8 16 24 30 36 41 44 45 46 48 51 51 46 40 34 28 24 22 17 10 6 6 7 7 5 3 3 4 3 2 0 0 0 0 0 0 0
0 0 0 0 0 0 0 0 0 0 2 4 8 16 25 31 37 42 45 45 44 44 46 46 45 42 36 29 25 21 15 10 6 5 4 4 4 3 3 3 2 1 0 0 0 0 0 0 0
0 0 0 0 0 0 0 0 0 0 2 5 9 16 23 27 32 39 43 44 42 41 41 41 40 38 34 30 26 23 17 11 7 5 3 3 3 3 3 2 1 1 0 0 0 0 0 0 0
0 0 0 0 0 0 0 0 0 0 1 4 9 15 18 19 24 33 38 39 39 39 38 37 35 32 30 28 26 24 20 14 9 7 5 4 3 3 1 1 0 0 0 0 0 0 0 0 0
0 0 0 0 0 0 0 0 0 1 2 4 9 14 15 13 17 28 35 36 37 37 36 36 33 30 28 27 26 23 20 16 12 9 6 5 4 2 1 0 0 0 0 0 0 0 0 0 0

GEFSSGP_con_prob3kmehi_192.txt.gz
EHI
3 3 5 6 5 2 2 3 3 2 1 1 0 1 2 2 3 4 3 1 1 4 6 7 7 7 8 9 11 12 10 7 6 6 6 7 8 9 10 9 8 7 6 6 6 6 6 6 6
1 2 3 5 4 2 3 3 3 3 3 2 2 2 3 4 5 4 2 0 1 4 6 7 8 9 9 10 11 12 10 8 7 6 7 7 9 9 10 9 8 7 6 6 6 6 6 6 6
0 1 2 3 3 3 3 3 4 5 4 4 4 5 5 6 5 3 1 0 2 5 7 8 11 12 11 11 10 10 10 9 8 7 7 8 9 9 9 8 7 6 6 6 6 6 6 6 6
1 1 2 3 3 3 3 3 4 6 6 5 5 6 6 6 5 3 2 1 2 5 7 9 11 12 12 11 10 9 9 9 8 8 7 7 7 8 8 8 7 7 6 6 6 6 6 6 6
2 2 3 3 3 3 3 4 5 6 6 5 5 6 6 6 6 4 2 1 1 3 6 9 10 10 10 9 9 8 8 8 8 7 7 7 7 7 7 8 7 7 6 6 6 6 6 6 6
2 2 2 3 3 3 4 5 6 6 6 5 4 6 7 7 6 4 3 1 0 2 6 8 10 9 8 7 7 7 7 7 7 6 7 8 8 7 8 8 7 7 6 6 6 6 6 6 6
1 0 1 3 3 3 4 6 6 6 5 4 5 6 8 9 8 6 4 3 1 2 5 7 9 10 8 7 6 6 7 7 7 7 8 10 10 8 7 7 7 6 6 6 6 6 6 6 6
0 0 1 2 3 3 4 5 6 6 6 5 5 7 12 15 13 9 7 5 3 3 5 7 9 10 9 7 7 7 7 7 7 7 9 11 11 8 6 6 6 6 6 6 6 6 6 6 6
0 0 0 1 1 2 3 3 4 5 6 6 7 11 21 26 20 14 12 10 8 7 7 8 9 10 9 8 8 9 8 7 7 7 8 9 9 7 7 7 7 6 6 6 6 7 7 7 6
0 0 0 0 0 1 1 1 2 4 6 8 13 25 38 38 27 19 16 15 14 11 9 9 10 10 10 9 9 10 9 8 7 6 7 7 7 7 7 8 8 7 6 6 6 6 7 7 6
0 0 0 0 0 0 0 0 1 3 4 9 24 43 52 44 31 23 18 17 15 13 11 10 10 10 10 10 10 10 10 9 8 7 7 6 6 6 7 8 8 7 6 6 5 5 6 7 6
0 0 0 0 0 0 0 0 1 2 4 12 30 50 53 42 31 24 19 16 15 14 13 12 11 10 9 9 9 9 9 9 9 8 7 7 6 6 6 7 7 6 6 6 5 5 6 6 6
0 0 0 0 0 0 0 1 2 3 6 16 32 43 43 35 29 25 21 17 15 14 14 13 12 10 9 8 7 7 7 8 9 9 8 7 6 6 6 6 6 5 4 5 5 5 5 5 6
0 0 0 0 0 0 0 1 3 4 9 20 31 35 32 29 28 27 23 19 15 12 12 13 12 11 9 8 6 6 6 7 7 9 9 8 7 6 6 6 5 4 4 4 5 5 5 5 6
0 0 0 0 0 0 0 2 5 8 12 21 28 29 27 27 28 29 25 19 14 11 11 12 12 12 11 8 7 6 6 6 7 7 8 8 7 7 7 6 5 4 4 5 6 7 6 6 6
0 0 0 0 0 0 0 3 8 11 15 21 26 28 27 28 28 27 24 18 14 13 13 13 13 13 12 10 8 7 6 6 6 7 8 9 9 9 9 8 6 6 6 7 8 8 7 6 6
0 0 0 0 0 0 0 3 7 10 14 20 26 29 31 31 30 27 22 18 16 16 17 15 15 14 13 12 10 8 7 7 6 7 8 10 11 11 11 10 9 9 8 8 8 8 7 6 6
0 0 0 0 0 0 1 3 5 7 11 16 22 29 33 34 33 29 24 20 20 21 20 18 17 16 16 15 13 11 9 7 7 8 10 13 13 12 11 12 12 11 10 9 9 8 7 6 6
0 0 0 0 0 0 1 3 4 6 9 13 20 26 31 33 34 34 31 27 25 25 24 21 19 19 19 17 14 13 11 9 8 9 13 16 15 14 13 13 13 12 11 9 9 8 7 6 6
0 0 0 0 0 0 0 1 3 5 8 12 17 21 25 30 37 40 38 35 33 31 29 24 22 22 21 18 14 13 13 13 11 11 15 19 19 18 17 16 15 14 12 10 10 10 9 8 7
0 0 0 0 0 0 0 0 1 4 8 11 14 17 21 28 37 42 43 41 40 38 34 30 30 30 28 25 21 18 19 18 15 14 17 20 21 21 21 20 19 17 16 15 14 13 12 10 8
0 0 0 0 0 0 0 0 1 3 7 10 13 16 20 24 31 40 45 45 46 44 41 39 40 41 40 37 32 29 28 23 19 18 19 21 22 22 22 22 22 20 19 19 18 16 16 14 12
0 0 0 0 0 0 0 0 1 2 5 8 12 16 19 21 26 37 45 47 48 48 46 47 49 52 51 45 41 38 32 25 22 20 21 21 22 21 21 22 23 22 21 19 18 19 19 18 17
0 0 0 0 0 0 0 0 0 2 5 8 11 14 18 20 25 35 43 48 51 51 50 52 59 63 60 52 47 42 35 28 23 23 23 20 19 21 21 23 24 25 23 21 18 19 20 21 20
0 0 0 0 0 0 0 0 1 2 5 9 11 12 16 20 25 32 42 50 53 54 55 60 68 72 68 60 51 46 40 31 26 24 22 19 18 18 21 24 25 25 25 22 17 16 18 20 21
0 0 0 0 0 0 0 1 2 4 6 9 11 13 17 21 24 29 39 49 53 53 56 61 68 71 69 63 57 51 44 34 26 22 20 19 17 17 21 25 25 24 22 20 16 16 18 20 21
0 0 0 0 0 0 0 1 3 5 8 10 13 16 20 23 24 27 33 41 46 47 50 55 60 63 62 60 56 51 44 34 25 21 20 19 18 18 20 25 24 20 19 19 18 17 18 19 19
0 0 0 0 0 0 0 1 4 7 10 12 14 18 23 25 26 27 30 35 38 41 45 49 52 55 54 52 48 42 39 35 27 23 22 21 22 22 23 24 21 17 16 17 18 19 19 18 17
0 0 0 0 0 0 0 1 4 8 12 13 16 21 25 28 29 28 31 35 37 39 45 48 49 48 47 44 41 38 37 36 33 28 25 24 24 25 27 25 21 16 14 15 18 19 18 17 16
0 0 0 0 0 0 0 1 4 8 12 14 18 21 26 31 30 29 31 36 38 42 48 50 48 45 42 39 38 39 40 39 37 31 27 26 24 25 27 28 24 18 15 16 17 17 17 16 16

GEFSSGP_con_prob3kmehi_198.txt.gz
EHI
4 10 17 20 14 4 0 0 0 0 0 0 0 0 0 0 0 0 2 5 5 1 0 0 0 0 0 0 0 0 0 0 0 0 0 1 2 3 3 2 2 2 1 0 1 1 1 0 0
4 9 13 12 7 2 0 0 0 0 0 0 0 0 0 0 0 1 4 6 4 1 0 0 0 0 0 0 0 0 0 0 0 0 0 1 2 2 2 1 1 1 0 0 0 0 0 0 0
4 7 8 5 2 0 0 0 0 0 0 0 0 0 0 0 0 1 4 5 3 1 1 0 0 0 0 0 0 0 0 0 0 0 0 0 1 1 1 0 0 0 0 0 0 0 0 0 0
4 5 4 2 0 0 0 0 0 0 0 0 0 0 0 0 0 0 2 2 2 2 2 1 0 0 0 0 0 0 0 0 0 0 0 0 0 0 0 0 0 0 0 0 0 0 0 0 0
4 3 2 0 0 0 0 0 0 0 0 0 0 0 0 0 0 0 0 1 2 3 3 1 0 0 0 0 0 0 0 0 0 0 0 0 0 0 0 0 0 0 0 0 0 0 0 0 0
3 2 0 0 0 0 0 0 0 0 0 0 0 0 0 0 0 0 0 1 4 6 5 2 0 0 0 0 0 0 0 1 1 1 1 0 0 0 0 0 0 0 0 0 0 0 0 0 0
3 1 0 0 0 0 0 0 0 0 0 0 0 0 1 1 0 0 0 2 6 9 6 2 0 0 0 0 0 0 0 0 1 1 1 0 0 0 0 0 0 0 0 0 0 0 0 0 0
1 0 0 0 0 0 0 0 0 0 0 0 0 3 6 4 2 1 1 3 7 9 6 3 2 1 0 0 0 0 0 0 0 1 1 0 0 0 0 0 0 0 0 0 0 0 0 0 0
0 0 0 0 0 0 0 0 0 0 0 2 5 11 14 10 5 4 4 5 8 8 7 6 5 3 1 0 0 0 0 0 0 0 0 0 0 0 0 1 1 1 0 0 0 0 0 1 1
0 0 0 0 0 0 0 0 0 0 3 9 16 20 19 12 9 9 8 8 8 8 8 9 8 6 3 1 1 1 0 0 0 1 1 1 0 1 2 2 2 2 1 0 0 0 0 0 0
0 0 0 0 0 0 0 0 0 2 8 19 26 25 18 13 13 15 15 16 13 9 9 11 11 9 6 4 3 2 2 2 2 2 2 1 1 3 4 3 3 2 1 1 1 1 1 0 0
0 0 0 0 0 0 0 0 1 6 15 26 30 25 19 16 17 19 24 26 23 15 12 15 15 12 11 9 5 3 3 4 4 4 3 1 1 3 4 4 3 2 3 3 4 3 2 0 0
0 0 0 0 0 0 0 1 3 10 20 29 31 25 21 20 21 24 29 34 32 24 19 21 19 15 13 11 8 6 5 5 5 5 3 1 1 2 4 4 3 2 3 4 4 2 1 0 0
0 0 0 0 0 0 0 1 5 13 22 29 29 25 21 22 25 31 37 41 40 32 28 28 25 20 15 10 7 7 7 6 7 6 5 3 2 4 5 3 2 2 3 4 3 2 1 0 0
0 0 0 0 0 0 0 3 8 15 22 26 26 23 21 23 30 39 46 49 46 42 39 34 28 24 17 9 6 6 7 7 8 10 9 6 5 6 5 3 2 2 3 4 4 4 4 1 0
0 0 0 0 0 0 1 5 12 17 19 22 24 26 26 26 32 43 52 54 54 54 50 39 31 28 21 11 8 8 9 11 12 14 16 13 9 7 5 3 3 4 3 2 2 5 5 3 1
0 0 0 0 0 0 0 5 12 16 16 19 25 32 35 34 38 48 54 56 61 64 58 47 39 35 27 18 13 12 14 16 16 18 24 23 15 10 7 6 8 8 5 2 3 5 6 3 2
0 0 0 0 0 0 0 4 11 14 15 19 26 35 42 45 51 58 59 59 66 71 66 57 51 46 37 27 21 19 17 18 18 21 30 31 22 14 9 10 14 14 9 6 6 8 7 5 4
0 0 0 0 0 0 1 5 10 12 14 19 26 36 47 55 64 70 69 67 71 77 74 66 60 56 47 36 28 25 22 19 17 22 34 38 29 20 13 12 17 17 14 13 13 11 9 8 8
0 0 0 0 0 0 1 4 8 10 12 17 26 38 49 61 72 80 80 77 80 83 80 71 66 63 56 44 34 30 29 24 20 26 39 41 34 27 21 19 21 21 20 19 17 16 14 11 11
0 0 0 0 0 0 0 2 6 9 10 14 24 37 49 62 76 85 88 87 87 88 83 75 72 71 64 53 42 38 37 33 31 37 44 44 38 32 29 28 28 28 27 23 20 19 18 15 12
0 0 0 0 0 0 0 1 5 10 11 14 23 35 45 58 74 86 92 91 89 88 86 82 80 78 72 61 51 48 47 43 42 47 50 48 42 35 32 33 34 34 31 27 21 18 19 17 13
0 0 0 0 0 0 0 0 3 8 10 12 20 30 40 53 69 84 92 91 88 87 88 87 86 83 78 69 61 57 53 48 46 48 50 49 43 35 32 35 37 35 32 28 24 21 20 17 15
0 0 0 0 0 0 0 0 1 4 6 8 14 23 35 48 63 79 89 90 88 86 86 87 88 86 84 78 70 64 59 53 49 46 45 44 41 37 36 38 40 39 33 30 29 28 25 21 20
0 0 0 0 0 0 0 0 1 3 5 8 12 19 30 44 57 71 83 88 87 85 84 87 89 88 86 82 77 72 67 59 52 47 43 41 39 39 42 44 46 45 38 32 30 31 28 25 25
0 0 0 0 0 0 0 1 2 4 7 10 12 17 27 39 50 62 75 82 83 84 86 88 89 87 84 82 79 77 72 62 55 49 45 42 37 35 41 47 49 47 41 33 29 28 27 26 26
0 0 0 0 0 0 0 1 4 6 8 9 11 17 25 35 44 54 65 74 80 82 84 85 85 85 82 79 77 76 71 62 55 51 46 40 35 33 39 45 45 43 40 36 32 27 25 26 26
0 0 0 0 0 0 0 2 6 9 8 7 11 19 27 34 39 46 58 70 76 78 79 80 80 80 79 76 73 71 67 58 53 50 45 40 37 37 40 42 42 42 41 41 38 30 26 26 25
0 0 0 0 0 0 1 2 5 9 9 10 15 24 32 34 36 42 54 65 70 73 75 76 77 77 76 73 69 65 61 55 50 47 44 43 41 40 41 42 42 42 41 41 39 32 26 24 22
0 0 0 0 0 0 1 2 3 6 9 12 19 29 35 35 35 40 49 60 66 71 73 74 75 76 75 71 66 62 58 54 48 44 44 44 42 41 41 41 41 40 39 39 37 31 25 22 21

GEFSSGP_con_prob3kmehi_204.txt.gz
EHI
0 0 1 1 1 0 0 0 0 0 0 0 0 0 0 0 0 0 0 0 1 3 3 3 3 3 1 0 0 0 0 0 0 0 0 0 0 1 3 3 4 4 5 5 4 2 0 0 0
0 0 0 0 0 0 0 0 0 0 0 0 0 0 0 0 0 0 0 1 2 3 3 3 3 3 2 1 0 0 0 0 0 0 0 0 1 2 2 2 3 4 5 4 2 1 0 0 0
0 0 0 0 0 0 0 0 0 0 0 0 0 0 0 0 0 1 1 1 2 3 2 2 3 3 2 1 0 0 0 0 0 0 0 0 1 2 1 1 1 3 3 2 1 0 0 0 0
0 0 0 0 0 0 0 0 0 0 0 0 0 0 0 0 1 2 2 1 2 2 1 1 3 3 2 1 0 0 0 0 0 0 1 1 1 1 1 0 0 1 1 1 0 0 0 0 0
0 0 0 0 0 0 0 1 1 1 0 0 0 0 0 1 2 3 3 2 2 2 1 1 2 2 1 0 0 0 0 0 0 0 1 1 1 1 1 1 1 1 1 1 0 0 0 0 0
0 0 0 0 0 0 0 1 2 1 0 0 0 0 0 2 4 4 3 3 2 2 2 1 1 1 0 0 0 0 0 0 0 0 1 2 2 1 1 1 2 2 2 1 0 0 0 0 0
0 0 0 0 0 0 0 1 1 0 1 1 0 0 0 3 6 6 6 5 3 2 2 1 1 0 0 0 0 0 0 0 0 0 1 3 3 3 2 2 1 2 2 1 0 0 1 1 0
0 0 0 0 0 0 0 0 0 0 1 1 0 0 1 5 11 13 10 7 5 4 3 2 1 0 0 0 0 0 0 0 0 1 2 2 2 2 2 1 0 1 1 0 0 0 1 1 1
0 0 0 0 0 0 1 1 1 0 1 1 2 3 3 9 17 20 16 10 8 6 4 3 2 1 0 0 0 0 0 0 0 1 1 1 1 1 1 0 0 0 0 0 0 0 1 1 1
0 0 0 0 0 0 1 2 1 0 1 4 8 9 9 15 23 24 19 14 10 7 5 3 3 2 1 0 0 0 0 0 0 0 0 0 0 0 0 0 0 0 0 0 0 0 0 0 1
0 0 0 0 0 0 1 2 2 0 2 9 16 16 15 19 24 24 21 17 12 8 6 4 3 3 1 0 0 0 0 0 0 0 0 0 0 0 0 0 0 0 0 0 0 0 0 0 0
0 0 0 0 0 0 1 2 2 2 4 11 18 19 18 19 21 22 22 19 15 11 8 6 4 3 2 1 1 1 1 0 0 0 0 0 0 0 0 0 0 0 0 0 0 0 0 0 0
0 0 0 0 0 2 5 6 7 9 11 14 16 17 18 18 19 21 25 25 21 17 12 8 6 4 4 2 2 2 1 1 0 0 0 0 0 0 0 0 0 0 0 0 0 0 0 0 0
0 0 0 0 1 5 10 12 14 18 21 18 15 13 15 18 22 26 30 32 30 24 18 14 10 7 6 5 4 3 3 2 1 1 1 1 0 0 0 0 0 0 0 0 0 0 0 0 0
0 0 0 0 1 6 12 13 15 23 26 21 15 12 14 20 29 35 35 36 35 31 26 21 16 12 9 7 7 5 4 3 3 2 2 2 1 0 0 0 0 0 0 0 0 0 0 0 0
0 0 0 0 1 4 8 9 14 24 27 23 16 14 17 26 36 41 41 39 38 36 33 29 24 18 13 11 9 7 5 4 3 3 4 4 2 1 0 0 0 0 0 0 0 0 0 0 0
0 0 0 0 0 2 4 8 15 24 27 25 20 18 23 30 41 49 49 47 43 40 38 35 30 25 20 14 10 8 6 4 4 5 6 6 4 2 1 1 0 0 0 0 0 0 0 0 0
0 0 0 0 0 1 4 9 17 22 25 27 27 27 29 34 44 54 58 56 50 46 44 41 35 29 24 19 13 9 6 5 5 5 6 5 4 4 3 2 0 0 0 0 0 0 0 0 0
0 0 0 0 0 1 5 11 17 21 25 31 35 35 35 37 45 58 66 65 60 56 53 47 39 32 27 22 16 11 6 6 6 6 5 4 4 5 5 2 0 0 0 0 0 0 0 0 0
0 0 0 0 1 2 5 10 15 18 25 33 38 38 37 40 51 64 72 74 71 66 63 56 46 38 31 24 17 10 6 5 7 6 5 4 5 5 5 3 1 0 0 0 0 0 0 0 0
0 0 0 0 1 3 4 6 9 14 21 30 36 37 36 44 57 69 78 80 77 73 70 64 54 44 36 29 23 16 11 8 6 5 4 5 6 6 6 4 2 0 0 0 0 0 0 0 0
0 0 0 0 1 1 2 3 5 11 19 27 34 35 36 45 59 71 78 81 80 75 71 67 59 49 41 37 34 29 22 14 7 4 3 4 6 9 10 7 3 2 1 1 0 0 0 0 0
0 0 0 0 0 0 1 2 3 7 17 26 34 36 36 44 59 70 75 78 79 77 73 67 61 53 47 44 41 38 30 20 11 7 5 6 8 11 11 9 7 6 6 3 1 1 0 0 0
0 0 0 0 0 0 0 1 1 4 12 24 34 39 40 45 56 66 71 76 80 80 77 72 67 60 54 50 45 40 33 24 16 11 9 10 11 12 11 10 10 11 10 6 4 3 1 1 1
0 0 0 0 0 0 0 0 1 3 8 20 33 41 45 48 54 61 70 77 81 81 79 77 74 67 61 56 49 39 32 25 18 14 12 12 13 13 11 9 9 11 10 7 5 5 4 3 2
0 0 0 0 0 0 0 1 3 6 11 20 32 41 46 50 56 61 68 75 78 79 79 79 78 73 65 59 50 38 29 23 18 14 12 12 11 11 10 8 8 9 8 6 6 6 5 4 4
0 0 0 0 0 0 1 2 5 10 15 22 31 38 43 49 56 61 64 68 72 75 76 76 75 73 67 59 49 38 30 23 17 14 12 11 9 8 8 7 6 7 7 6 6 6 6 5 4
0 0 0 0 0 0 1 2 5 11 18 24 29 35 40 46 51 55 59 62 66 68 70 71 71 69 64 57 48 39 32 25 20 16 15 13 9 7 7 6 5 5 7 8 7 6 5 4 4
0 0 0 0 0 0 0 1 5 11 19 26 31 35 40 44 47 49 52 56 60 63 63 65 66 65 62 55 47 40 33 28 25 20 16 16 14 11 9 8 7 8 9 10 9 7 5 4 3
0 0 0 0 0 0 0 1 5 12 20 28 34 39 43 46 46 48 49 52 57 60 61 61 63 63 61 55 46 39 33 29 27 22 17 18 19 15 13 12 11 11 11 11 10 9 7 4 3

GEFSSGP_con_prob3kmehi_210.txt.gz
EHI
1 1 0 0 0 0 0 0 0 0 0 0 1 1 1 0 0 0 0 0 0 0 0 2 5 6 5 4 3 2 2 1 0 0 0 1 1 1 0 0 0 0 0 0 0 0 0 1 1
1 0 0 0 0 0 0 0 0 0 0 0 0 0 0 0 0 0 0 0 0 0 1 2 5 6 4 3 3 2 1 1 0 0 0 0 0 0 0 0 0 0 0 0 0 0 0 0 1
0 0 0 0 0 0 0 0 0 0 0 0 0 0 0 0 0 0 0 1 1 1 2 3 5 5 4 3 3 3 2 2 1 1 0 0 0 0 0 0 0 0 0 0 0 0 0 0 0
0 0 0 0 0 0 0 0 0 0 0 0 0 0 0 0 0 0 0 2 3 3 3 4 5 5 4 3 4 5 4 3 2 1 0 0 0 0 0 0 0 0 0 0 0 0 0 0 0
0 0 0 0 0 0 0 0 0 0 0 0 0 0 0 0 0 0 0 1 2 3 3 3 4 4 5 5 4 4 3 3 1 1 0 0 0 0 0 0 0 0 0 0 0 0 0 0 0
0 0 0 0 0 0 0 0 0 0 0 0 0 0 0 0 0 0 0 0 1 2 3 3 3 4 5 6 4 2 1 1 1 0 0 0 0 0 0 0 0 0 0 0 0 0 0 0 0
0 0 0 0 0 0 0 0 0 0 0 0 0 0 0 0 0 0 0 0 1 2 3 3 3 4 5 5 4 2 1 1 0 0 0 1 1 1 1 1 0 0 0 0 0 0 0 0 0
0 0 0 0 0 0 0 0 0 0 0 0 0 0 0 0 0 0 1 1 1 1 2 3 3 3 3 3 3 3 2 1 0 0 0 1 2 1 1 0 0 0 0 0 0 0 0 0 1
0 0 0 0 0 0 0 0 0 0 0 0 0 0 0 0 0 1 2 2 2 1 1 2 2 1 1 1 2 3 3 2 1 0 0 0 1 1 0 0 0 0 0 0 0 0 0 0 1
0 0 0 0 0 0 0 0 0 0 0 0 2 5 5 3 1 1 1 2 2 1 1 1 1 0 0 0 1 1 2 2 1 0 0 0 0 0 0 0 0 0 0 0 0 0 0 0 1
0 0 0 0 0 0 0 0 0 0 0 1 7 14 14 6 1 0 0 0 1 1 0 0 0 0 0 0 0 0 1 1 0 0 0 0 0 0 0 0 0 0 0 0 0 0 0 0 0
0 0 0 0 0 0 0 0 0 0 0 3 12 21 19 9 2 0 0 0 0 0 0 0 0 0 0 0 0 0 0 0 0 1 1 0 0 0 0 0 0 0 0 0 0 0 0 0 0
0 0 0 0 0 0 0 0 0 0 0 5 16 23 19 9 2 0 0 0 0 0 0 0 0 0 0 1 1 0 0 0 0 1 1 0 0 0 0 0 0 0 0 0 0 0 0 0 0
0 0 0 0 0 0 0 0 0 0 2 8 16 19 15 7 2 1 1 0 0 0 0 0 0 0 0 1 1 0 0 0 0 1 1 0 0 0 0 0 0 0 0 0 0 0 0 0 0
0 0 0 0 0 0 0 0 0 1 4 9 12 12 10 5 2 2 2 1 1 0 0 0 0 0 0 1 1 0 0 0 0 0 1 0 0 0 0 0 0 0 0 0 0 0 0 0 0
0 0 0 0 0 0 0 0 1 3 6 8 8 7 7 4 3 3 5 5 4 4 2 1 1 0 0 0 0 0 0 0 0 0 0 0 0 0 0 0 0 0 0 0 0 0 0 0 0
0 0 0 0 0 0 0 1 2 5 6 6 6 6 6 5 3 4 7 9 10 10 8 5 3 2 1 0 0 0 0 0 0 0 0 0 1 1 1 0 0 0 0 0 0 0 0 0 0
0 0 0 0 0 1 1 2 3 5 5 3 3 4 5 5 4 4 7 10 13 14 12 9 7 5 4 3 3 2 1 1 0 0 0 1 1 0 1 1 1 0 0 0 0 0 0 0 0
0 0 0 0 0 1 2 2 3 4 4 3 2 4 6 5 4 6 10 13 14 15 14 12 10 9 8 7 6 4 3 1 0 0 0 0 0 0 1 1 1 0 0 0 0 0 0 0 0
0 0 0 0 0 1 2 1 1 3 5 4 3 5 6 5 7 12 19 21 18 16 16 16 14 12 12 11 8 5 3 1 1 0 0 0 0 0 0 0 0 0 0 0 0 0 0 0 0
0 0 0 0 0 1 1 1 0 2 4 4 4 6 7 7 10 17 25 29 25 19 18 20 19 17 15 13 11 8 5 3 2 1 0 0 0 0 0 0 1 1 1 0 0 0 0 0 0
0 0 0 0 0 0 0 0 0 1 3 4 4 7 11 12 14 19 27 32 30 25 22 22 21 20 17 16 15 13 9 5 3 1 0 0 0 0 0 1 2 2 1 0 0 0 0 0 0
0 0 0 0 0 0 0 0 0 1 2 3 4 8 14 18 18 20 26 31 32 30 26 24 21 20 19 18 18 16 11 6 3 2 1 0 0 0 0 1 1 2 1 0 0 0 0 0 0
0 0 0 0 0 0 0 0 0 0 1 2 3 9 16 20 22 23 25 29 32 32 32 29 26 23 21 20 19 15 11 7 4 3 2 1 0 0 0 0 0 0 0 0 0 0 0 0 0
0 0 0 0 0 0 0 0 0 0 0 1 3 8 13 19 22 24 26 29 32 37 39 37 32 28 25 24 21 16 11 8 6 5 3 1 0 0 0 0 0 1 1 1 1 1 1 1 1
0 0 0 0 0 0 0 0 0 0 0 2 4 7 12 16 19 22 27 32 35 40 43 41 35 31 28 28 26 19 13 10 8 6 3 1 0 1 0 0 1 2 2 2 3 3 3 3 3
0 0 0 0 0 0 0 0 0 0 0 2 5 9 12 14 15 19 26 31 35 39 43 41 36 32 30 31 29 22 14 10 9 6 3 1 0 0 1 2 3 3 3 3 4 5 5 5 6
0 0 0 0 0 0 0 0 0 0 1 3 7 9 11 14 15 18 22 26 29 34 38 39 36 33 31 30 27 21 14 9 8 6 4 2 1 1 2 3 4 3 3 3 4 6 6 6 6
0 0 0 0 0 0 0 0 0 0 1 5 9 10 11 14 18 21 22 22 23 27 32 36 36 34 30 27 23 18 13 8 7 6 5 4 3 3 3 3 3 3 3 4 5 6 6 5 4
0 0 0 0 0 0 0 0 0 0 2 7 11 11 11 15 19 23 24 22 21 24 29 34 36 33 30 26 20 15 12 9 7 6 5 5 5 4 3 3 3 3 4 5 6 6 5 3 2

GEFSSGP_con_prob3kmehi_216.txt.gz
EHI
6 4 3 3 2 1 0 0 0 0 0 0 0 0 0 0 0 0 0 0 0 0 0 1 2 3 3 1 0 0 0 0 0 0 0 0 0 0 0 0 0 1 2 3 3 3 3 3 3
6 5 4 2 1 0 0 0 0 0 0 0 0 0 0 0 0 0 0 0 0 0 0 1 3 4 3 2 1 0 0 0 0 0 0 0 0 0 0 0 0 1 2 3 2 2 2 2 2
5 4 3 1 0 0 0 0 0 0 0 0 0 0 0 0 0 0 0 0 0 0 0 1 4 5 4 3 1 0 0 0 0 0 0 0 1 1 0 0 0 1 2 1 1 1 1 1 1
2 2 1 0 0 0 0 0 0 0 0 0 0 0 0 0 0 0 0 0 0 0 0 2 5 6 5 4 2 1 0 0 0 0 0 1 2 1 0 0 0 1 1 0 0 0 0 0 0
0 0 0 0 0 0 0 0 0 0 0 0 0 0 0 0 0 0 0 0 0 0 0 1 4 5 5 5 4 2 1 1 0 1 1 1 2 1 0 0 0 0 0 0 0 0 0 0 0
0 0 0 0 0 0 0 0 0 0 0 0 0 0 0 0 0 0 0 0 0 0 0 1 3 5 5 6 5 3 2 1 1 1 2 2 1 0 0 0 0 0 0 0 0 0 0 0 0
0 0 0 0 0 0 0 0 0 0 0 0 0 0 0 0 0 0 0 0 0 0 0 1 2 4 4 4 4 2 1 1 1 1 2 1 0 0 0 0 0 0 0 0 0 0 0 0 0
0 0 0 0 0 0 0 0 0 0 0 0 0 0 1 1 1 0 0 0 0 0 0 0 1 2 2 2 2 2 2 1 1 0 0 0 0 0 0 0 0 0 0 0 0 0 0 0 0
0 0 0 0 0 0 0 0 0 0 0 0 0 0 1 2 1 0 0 0 0 0 0 0 0 1 1 1 1 2 2 1 0 0 0 0 0 0 0 0 0 0 0 0 0 1 1 1 0
0 0 0 0 0 0 0 0 0 0 0 0 0 1 3 3 1 0 0 0 0 0 0 0 0 0 0 0 0 1 1 0 0 0 0 0 0 0 0 0 0 0 0 0 0 1 2 1 1
0 0 0 0 0 0 0 0 0 0 0 0 2 4 5 4 1 0 0 0 0 0 0 0 0 0 0 0 0 0 0 0 0 1 0 0 0 0 0 0 0 0 0 0 0 0 1 1 0
0 0 0 0 0 0 0 0 0 0 0 1 3 7 7 3 1 0 0 0 0 0 0 0 0 1 1 0 0 1 0 0 0 0 0 1 1 0 0 0 0 0 0 0 0 0 0 0 0
0 0 0 0 0 0 0 0 0 0 0 1 4 7 6 2 0 0 0 0 0 0 0 0 1 2 2 1 1 1 0 0 0 0 1 2 2 1 0 0 0 0 0 0 0 0 0 0 0
0 0 0 0 0 0 0 0 0 0 0 1 3 6 5 2 0 0 0 0 1 1 0 1 2 4 4 3 2 1 0 0 0 0 1 2 2 1 1 0 0 0 0 0 0 0 0 0 0
0 0 0 0 0 0 0 0 0 0 0 1 3 5 6 4 2 1 1 1 2 1 1 1 3 5 6 5 3 1 0 0 0 1 3 3 2 2 2 1 0 0 0 0 0 0 0 0 0
0 0 0 0 0 0 0 0 0 0 1 2 3 5 7 8 6 4 4 3 2 1 2 3 4 5 7 6 5 2 1 1 2 2 4 6 5 4 3 2 0 0 0 0 0 0 0 0 0
0 0 0 0 0 0 0 1 1 1 1 3 5 8 12 13 11 10 8 5 3 4 7 8 7 7 7 8 7 5 3 4 5 5 5 7 6 5 4 4 2 1 1 1 0 0 1 1 1
0 0 0 0 0 0 0 1 2 1 1 4 8 12 15 16 16 15 14 11 9 10 14 16 14 12 11 10 9 7 7 8 9 8 6 5 5 4 3 4 3 3 2 1 1 1 2 2 2
0 0 0 0 0 0 0 1 3 3 2 3 7 12 14 15 17 21 23 22 21 22 24 25 23 21 18 14 12 10 10 10 10 9 7 5 4 3 3 4 5 5 4 3 3 3 3 2 2
0 0 0 0 0 0 0 1 3 3 1 1 4 8 11 14 19 25 31 34 35 34 33 32 31 28 24 19 15 13 12 11 9 8 7 5 3 3 5 7 8 7 7 6 5 5 5 3 2
0 0 0 0 0 0 0 1 2 2 0 0 3 7 10 14 20 26 34 40 43 41 38 35 34 33 30 25 19 16 16 15 12 9 6 5 4 5 6 8 9 9 9 8 8 7 7 5 4
0 0 0 0 0 0 0 1 2 2 1 2 5 9 10 11 17 23 30 38 43 41 38 37 36 36 36 32 24 20 21 19 14 10 7 6 6 7 8 9 10 9 8 9 9 8 9 8 7
0 0 0 0 0 0 0 0 1 1 2 3 8 10 9 10 14 19 23 29 33 34 35 37 39 43 43 39 32 26 24 20 15 12 11 9 9 9 8 9 10 10 9 9 10 10 9 9 10
0 0 0 0 0 0 0 0 0 0 1 3 8 10 8 11 17 20 20 21 24 27 32 37 45 51 51 46 39 32 27 21 18 17 15 12 11 11 9 9 11 11 10 10 12 13 10 9 9
0 0 0 0 0 0 0 0 0 0 0 2 6 8 7 11 19 23 21 22 26 29 34 41 50 55 53 49 42 36 28 23 20 19 16 14 13 13 12 10 11 10 10 12 14 14 11 9 9
0 0 0 0 0 0 0 0 0 0 1 3 5 6 7 12 19 21 21 24 30 34 37 43 49 51 50 47 44 39 32 25 20 17 14 12 13 14 13 11 9 9 10 13 15 14 13 13 13
0 0 0 0 0 0 0 0 0 1 2 4 7 7 9 14 20 22 22 23 29 35 38 41 45 46 46 45 43 41 37 31 22 16 13 12 12 13 13 11 8 7 9 13 16 16 17 18 19
0 0 0 0 0 0 0 0 1 3 5 7 9 9 11 16 22 28 28 26 28 35 39 40 41 43 43 42 39 38 37 33 25 18 16 16 15 15 15 13 9 6 8 12 16 18 19 19 19
0 0 0 0 0 0 0 1 3 6 8 8 10 13 15 19 26 33 35 32 32 35 37 39 41 41 41 39 36 32 30 27 23 19 19 19 18 17 17 16 12 9 9 11 14 15 15 16 17
0 0 0 0 0 0 1 2 5 7 8 8 11 17 21 22 29 37 40 38 37 36 36 38 40 40 40 38 35 30 25 23 21 19 19 19 18 17 17 17 14 10 10 11 12 11 11 13 14

GEFSSGP_con_prob3kmehi_222.txt.gz
EHI
6 10 20 25 18 5 0 0 0 0 0 0 0 0 0 0 1 0 0 1 1 1 0 0 0 0 0 0 0 0 0 0 0 0 0 0 0 0 0 0 0 0 0 1 1 1 1 2 2
8 12 18 18 11 3 0 0 0 0 0 0 0 0 0 0 1 0 0 0 1 1 1 1 0 0 0 0 0 0 0 0 0 0 0 0 0 0 0 0 0 0 0 0 0 0 0 1 1
9 11 12 8 3 0 0 0 0 0 0 0 0 0 0 0 0 0 0 0 2 4 4 2 1 0 0 0 0 0 0 0 0 0 0 0 1 1 1 0 0 0 0 0 0 0 0 0 0
11 9 6 2 0 0 0 0 0 0 0 0 0 0 0 0 0 0 0 1 3 6 6 4 2 1 0 0 0 0 0 0 0 0 0 0 1 2 1 0 0 0 0 0 1 0 0 0 0
10 7 3 1 0 0 0 0 0 0 0 0 0 0 0 0 0 0 0 0 3 6 6 4 3 3 1 0 0 0 0 0 0 0 1 1 1 2 1 0 0 0 0 0 0 0 0 0 0
6 4 1 0 0 0 0 0 0 0 0 0 0 1 1 1 0 0 0 1 2 5 5 4 4 4 3 1 0 0 0 0 0 0 0 0 1 1 0 0 0 0 0 0 0 0 0 0 0
2 1 0 0 0 0 0 0 0 0 0 0 0 1 2 1 0 0 1 2 3 4 4 4 5 5 4 3 2 1 1 1 0 0 0 0 0 0 0 0 0 0 0 0 0 0 0 0 0
1 0 0 0 0 0 0 0 0 0 0 0 0 1 3 3 1 0 1 2 3 4 4 6 8 8 6 6 5 4 3 2 1 1 0 0 0 0 0 1 1 1 0 0 0 0 1 1 2
0 0 0 0 0 0 0 0 0 0 0 0 0 2 3 3 1 0 0 1 2 4 6 8 9 9 8 8 9 7 5 2 2 2 2 1 1 1 1 2 2 2 1 1 2 4 5 6 6
0 0 0 0 0 0 0 0 0 0 0 0 1 2 2 1 1 0 0 1 3 5 7 10 10 8 8 8 9 8 8 5 4 4 5 3 1 1 1 2 2 2 2 3 7 10 11 11 10
0 0 0 0 0 0 0 0 0 0 0 2 3 2 1 0 0 0 1 3 5 6 7 9 9 8 7 7 6 7 9 9 8 7 6 3 1 1 2 3 3 3 3 7 11 13 12 9 8
0 0 0 0 0 0 0 0 0 0 1 3 5 3 1 0 0 1 3 5 8 9 8 8 9 9 8 6 5 5 7 10 10 10 6 3 1 1 3 5 6 6 6 7 9 9 7 5 4
0 0 0 0 0 0 0 0 0 0 1 4 5 4 1 1 1 2 5 7 10 11 9 8 9 9 10 8 6 5 6 7 10 11 9 5 1 1 2 5 7 7 6 5 4 3 3 4 5
0 0 0 0 0 0 0 0 0 1 1 4 6 5 3 3 4 6 8 10 12 12 11 10 10 11 10 8 7 7 6 6 8 12 13 8 4 3 2 3 4 4 4 4 2 1 2 4 5
0 0 0 0 0 0 1 1 1 1 2 5 8 9 8 7 9 11 13 14 15 15 15 13 12 14 13 10 9 9 8 7 9 13 16 13 9 7 5 3 1 2 3 4 4 4 3 4 4
0 0 0 0 0 0 1 1 0 1 3 6 9 11 13 13 15 16 17 18 20 22 21 17 15 18 16 13 12 12 10 9 9 13 18 19 15 11 9 5 2 1 3 4 6 6 4 3 3
0 0 0 0 0 0 0 0 1 1 4 8 11 15 19 22 24 25 24 24 28 32 29 23 20 20 18 15 14 14 13 12 11 15 21 22 19 16 13 10 7 5 4 5 6 6 7 7 6
0 0 0 0 0 0 1 1 2 2 4 10 15 20 28 34 36 35 33 32 38 43 41 34 28 26 22 17 15 16 17 16 18 23 25 22 19 18 16 15 13 10 8 7 7 9 11 12 12
0 0 0 0 0 1 2 4 4 2 4 10 18 26 37 45 48 48 44 44 49 55 55 48 41 37 31 24 21 21 20 20 24 31 32 24 17 17 17 17 16 13 11 10 11 13 16 15 13
0 0 0 0 0 1 2 4 4 2 3 10 18 27 38 49 58 61 59 57 60 65 65 58 53 49 43 36 30 27 24 22 24 32 37 29 20 18 18 17 15 13 12 14 15 16 16 13 10
0 0 0 0 0 0 1 4 5 3 3 8 16 25 35 48 61 69 69 67 68 71 70 65 63 61 54 46 39 35 33 30 26 31 37 33 25 23 22 20 18 16 15 16 17 17 14 10 8
0 0 0 0 0 0 0 2 6 5 4 6 14 25 34 44 58 68 71 71 71 71 71 72 72 69 62 53 45 43 42 37 31 31 35 35 30 26 25 25 24 22 20 16 14 13 11 9 8
0 0 0 0 0 0 0 2 5 6 5 7 14 23 32 39 50 61 68 71 70 67 68 74 77 72 66 59 52 48 45 39 33 31 35 37 34 29 26 27 29 29 24 18 13 10 9 9 9
0 0 0 0 0 0 0 1 4 5 6 7 12 19 26 33 43 55 65 70 70 65 66 74 78 74 69 64 59 53 48 42 38 38 41 42 37 32 27 27 31 33 28 24 19 13 11 11 12
0 0 0 0 0 0 0 1 4 4 5 7 10 14 19 29 42 52 61 68 71 70 70 75 79 77 72 68 64 58 54 50 46 44 45 43 39 34 29 29 33 34 30 26 23 19 17 15 14
0 0 0 0 0 0 0 2 4 4 5 7 9 12 17 29 43 52 58 65 71 74 74 75 78 76 72 68 65 62 59 54 49 46 43 41 37 33 32 34 35 34 29 24 23 22 21 19 17
0 0 0 0 0 0 1 3 4 4 6 9 11 14 19 29 42 52 58 63 71 75 74 72 73 72 68 64 62 61 61 56 50 47 42 37 33 30 34 38 38 34 28 25 24 23 21 20 20
0 0 0 0 0 0 1 3 2 3 7 11 16 21 23 28 39 50 57 63 71 75 73 69 67 67 63 60 58 58 58 55 51 47 39 33 30 31 34 38 38 34 28 25 25 23 20 19 20
0 0 0 0 0 0 1 2 1 2 7 14 22 28 28 28 37 49 56 62 69 71 69 65 64 64 61 57 54 53 53 52 49 43 35 31 31 33 34 35 34 33 28 25 25 24 19 18 19
0 0 0 0 0 0 0 1 0 2 6 14 25 33 31 29 37 49 57 61 66 67 65 63 62 63 60 55 52 50 51 51 47 40 34 32 33 33 33 33 32 32 29 25 23 22 18 16 17

GEFSSGP_con_prob3kmehi_228.txt.gz
EHI
1 1 0 1 0 0 0 0 0 0 1 2 1 0 0 0 0 0 0 0 1 2 2 3 3 2 1 0 0 0 0 0 0 0 0 0 0 0 0 0 0 0 0 0 0 0 0 1 1
1 0 1 1 0 0 0 0 0 1 2 2 1 0 0 0 0 0 0 0 1 1 1 2 3 2 0 0 0 0 0 0 0 0 0 0 0 0 0 0 0 0 0 0 0 0 0 0 1
0 0 1 1 0 0 0 0 0 1 2 2 1 0 0 0 0 0 0 0 0 0 0 1 3 1 0 0 0 0 0 0 0 0 0 0 0 0 0 0 0 0 0 0 0 0 0 1 2
0 0 0 0 0 0 0 0 0 1 2 2 1 0 0 0 0 1 1 1 1 0 0 1 2 1 0 0 0 0 0 0 0 0 0 0 0 0 0 0 0 0 0 0 0 0 0 1 2
0 0 0 0 0 0 0 0 1 1 2 2 1 0 0 0 2 3 4 3 2 1 0 1 2 2 1 0 0 0 0 0 0 0 0 0 0 0 0 0 0 0 0 0 0 0 0 1 2
0 0 0 0 0 0 0 1 2 2 2 2 1 0 0 1 4 6 5 4 3 2 1 1 2 2 1 0 0 0 0 0 0 0 0 0 0 0 0 0 1 1 1 0 0 0 0 0 1
0 0 0 0 0 0 0 1 2 3 3 1 0 0 0 1 4 7 6 4 3 2 1 1 1 1 0 0 1 1 0 0 1 1 0 0 0 1 1 1 1 1 1 0 0 0 1 1 2
0 0 0 0 0 0 0 0 1 2 2 1 0 0 0 1 4 7 6 4 3 2 1 1 0 0 0 0 2 3 1 0 1 1 0 0 0 1 1 1 1 1 1 0 0 1 2 3 4
0 0 0 0 0 0 0 0 0 1 1 0 0 0 1 3 6 8 7 5 3 2 1 1 0 0 0 0 1 2 2 1 1 1 0 0 0 0 0 1 2 2 2 2 3 4 5 5 5
0 0 0 0 0 0 0 0 0 1 2 1 1 2 3 4 6 8 9 8 7 4 2 1 1 1 0 0 1 1 2 2 1 0 0 0 0 0 0 1 2 3 3 3 4 5 6 4 3
0 0 0 0 0 0 0 0 1 3 3 2 3 5 5 5 6 7 9 10 10 8 5 4 4 3 2 2 2 2 1 1 1 0 0 0 0 0 0 1 2 2 2 2 2 3 3 1 1
0 0 0 0 0 0 0 0 2 3 2 2 4 6 6 6 5 6 8 11 12 10 7 6 6 6 5 5 5 4 3 2 0 0 0 0 0 0 0 0 1 1 1 0 0 0 0 0 0
0 0 0 0 1 1 1 1 2 3 3 3 4 5 5 5 5 6 8 11 13 12 9 8 8 7 6 6 6 6 5 4 2 0 0 1 1 0 0 0 0 0 0 0 0 0 0 0 0
0 0 0 0 1 2 2 2 3 5 5 3 2 2 3 4 5 7 10 13 14 14 13 12 10 8 7 6 7 7 7 6 4 1 0 1 1 0 0 0 0 0 0 0 0 0 0 0 0
0 0 0 0 1 1 1 2 4 6 7 5 2 1 2 4 6 9 12 15 15 16 16 15 12 9 7 6 6 6 6 5 3 1 0 0 0 0 0 1 0 0 0 0 0 0 0 0 0
0 0 0 0 0 0 0 1 3 6 7 5 3 2 3 4 7 10 13 16 17 16 16 15 12 9 7 6 6 5 5 4 3 1 1 1 1 0 0 0 0 0 0 0 0 0 0 0 0
0 0 0 0 0 0 0 0 1 3 5 5 5 6 7 8 9 11 14 18 19 18 16 15 12 9 7 6 6 5 4 3 3 2 3 3 2 1 0 0 0 0 0 0 0 0 0 0 0
0 0 0 0 0 0 0 0 0 2 4 5 7 11 13 13 14 15 17 21 24 22 18 16 13 9 7 8 7 6 4 4 4 5 5 5 3 2 1 1 0 0 0 0 0 0 0 0 0
0 0 0 0 0 1 1 1 2 4 6 8 10 15 17 16 16 19 22 28 32 29 24 21 17 12 11 12 11 8 6 6 7 8 7 5 4 3 3 3 1 1 0 0 0 0 0 0 0
0 0 0 0 1 1 2 3 4 7 9 11 13 15 17 17 18 22 29 38 41 37 32 28 24 21 18 17 15 12 10 9 10 10 6 4 4 4 5 4 3 2 1 0 0 0 0 1 1
0 0 0 0 1 2 2 3 4 7 10 13 15 18 20 20 22 27 36 45 46 41 36 33 32 31 28 25 22 17 13 12 11 9 6 4 3 4 5 4 3 2 1 0 0 1 1 2 2
0 0 0 0 1 1 1 2 3 5 8 12 16 20 22 22 24 30 39 47 49 44 39 37 38 39 36 33 30 23 17 14 12 10 7 4 3 5 6 5 3 1 0 1 1 2 3 3 3
0 0 0 0 0 0 0 1 2 4 7 11 16 20 22 22 24 28 36 45 49 48 44 42 43 43 40 36 33 28 22 15 13 11 8 4 3 4 5 5 4 2 1 2 3 3 3 3 3
0 0 0 0 0 0 0 0 1 3 7 13 16 18 21 23 25 27 32 41 50 53 52 50 48 46 42 38 34 32 27 21 18 13 9 6 3 3 4 5 5 4 3 3 3 3 3 3 3
0 0 0 0 0 0 0 0 0 2 8 15 16 16 21 25 27 28 32 42 53 59 60 56 51 48 44 40 37 34 31 28 23 16 11 8 5 3 3 4 4 5 5 4 3 3 3 3 3
0 0 0 0 0 0 0 0 0 3 11 16 15 15 22 27 28 29 36 45 54 61 61 58 53 49 45 42 39 35 32 30 25 19 12 8 5 4 4 4 4 5 6 5 4 3 3 3 3
0 0 0 0 0 0 0 0 1 4 12 18 16 17 24 29 28 30 36 46 53 56 57 56 53 50 46 43 40 35 31 29 26 21 13 7 5 4 4 3 4 6 7 7 6 5 4 4 4
0 0 0 0 0 0 0 0 1 5 11 17 19 21 26 31 31 30 35 43 48 51 53 53 52 50 47 44 40 34 29 26 23 19 13 7 6 5 4 4 6 7 8 9 8 7 6 6 6
0 0 0 0 0 0 0 0 2 7 12 18 22 26 31 35 34 32 35 40 44 50 53 54 52 49 47 43 38 32 25 20 17 15 11 8 7 7 6 6 7 8 10 11 9 8 7 7 6
0 0 0 0 0 0 0 1 3 9 15 20 25 30 36 38 36 35 37 40 44 49 55 57 54 49 46 42 37 30 22 16 14 13 11 8 7 8 7 6 7 8 10 11 9 7 6 6 6

GEFSSGP_con_prob3kmehi_234.txt.gz
EHI
0 0 0 0 0 0 0 0 0 0 0 0 1 0 0 0 0 0 0 0 0 1 1 2 3 3 3 3 2 1 0 0 0 0 1 1 0 0 0 0 0 0 0 0 0 0 0 0 0
0 0 0 0 0 0 0 0 0 0 0 0 1 0 0 0 0 0 0 0 0 1 1 2 3 3 3 3 2 1 0 0 0 0 1 1 0 0 0 0 0 0 0 0 0 0 0 0 0
0 0 0 0 0 0 0 0 0 0 0 0 0 0 0 0 0 0 0 0 0 0 0 1 3 3 3 3 2 1 0 0 0 0 1 1 0 0 0 0 0 0 0 0 0 0 0 0 0
0 0 0 0 0 0 0 0 0 0 0 0 0 0 0 0 0 0 0 0 0 0 0 1 2 3 3 2 1 0 0 0 0 0 0 0 0 0 0 0 0 0 0 0 0 0 0 0 0
0 0 0 0 0 0 0 0 0 0 0 0 0 0 0 0 0 0 0 0 0 0 0 1 2 2 1 1 0 0 0 0 0 0 0 0 0 0 0 0 0 0 0 0 0 0 0 0 0
0 0 0 0 0 0 0 0 0 0 0 0 0 0 0 0 0 0 0 0 0 0 0 1 1 1 0 0 0 0 0 1 1 0 0 0 0 0 0 0 0 0 0 0 0 0 0 0 0
0 0 0 0 0 0 0 0 0 0 0 0 0 0 0 0 0 0 0 0 0 0 0 0 0 0 0 0 0 0 1 2 1 0 0 1 1 1 0 0 0 0 0 0 0 0 0 0 0
0 0 0 0 0 0 0 0 0 0 0 0 0 0 0 0 0 0 0 0 0 0 0 0 0 0 0 0 0 0 1 1 1 0 1 2 2 1 0 0 0 0 0 0 0 0 0 0 0
0 0 0 0 0 0 0 0 0 0 0 0 0 0 0 1 0 0 0 0 0 0 0 0 0 0 0 0 0 1 1 0 0 0 1 2 1 0 0 0 0 0 0 0 0 0 0 0 0
0 0 0 0 0 0 0 0 0 0 0 0 0 0 1 2 1 0 0 0 0 0 0 0 0 0 0 0 0 0 0 0 0 0 1 1 0 0 0 0 0 0 0 0 0 0 0 0 0
0 0 0 0 0 0 0 0 0 0 0 0 0 1 2 1 0 0 0 0 0 0 0 0 0 0 0 0 0 0 0 0 0 0 0 0 0 0 0 0 0 0 0 0 0 0 0 0 0
0 0 0 0 0 0 0 0 0 0 0 0 1 2 2 1 1 1 1 1 1 0 0 0 0 0 0 0 0 0 0 0 0 0 0 0 0 0 0 0 0 0 0 0 0 0 0 0 0
0 0 0 0 0 0 0 0 0 0 0 0 1 3 3 2 1 2 2 2 2 1 0 0 0 0 0 0 0 0 0 0 0 0 0 0 0 0 0 0 0 0 0 0 0 0 0 0 0
0 0 0 0 0 1 1 0 0 0 0 1 2 3 3 2 1 1 2 3 3 3 1 0 0 0 0 0 0 0 0 0 0 0 0 0 0 0 0 0 0 0 0 0 0 0 0 0 0
0 0 0 0 0 1 2 1 0 0 0 2 3 3 3 1 1 1 1 2 4 5 2 1 1 0 0 0 0 0 0 0 0 1 1 1 0 0 0 0 0 0 0 0 0 0 0 0 0
0 0 0 0 0 1 2 1 0 0 0 1 2 3 3 1 1 1 1 2 4 6 4 2 3 1 0 0 0 0 0 0 0 1 1 1 0 0 0 1 1 1 0 0 0 0 0 0 0
0 0 0 0 0 1 1 1 0 0 0 0 1 2 3 3 2 2 2 3 4 4 3 2 2 2 0 0 0 0 0 0 0 0 1 1 1 1 1 2 2 1 0 0 0 0 0 0 0
0 0 0 0 0 0 1 1 1 0 0 0 0 1 3 3 3 3 3 3 2 2 2 1 2 2 1 0 0 0 0 0 1 1 2 3 2 1 2 3 2 1 0 0 0 0 0 0 0
0 0 0 0 0 0 0 1 1 1 0 0 0 1 2 3 3 4 4 2 1 1 1 2 3 3 2 1 1 0 0 0 1 2 3 3 2 1 2 2 2 1 0 0 0 0 0 0 1
0 0 0 0 0 0 0 1 2 1 0 0 0 1 3 4 4 5 5 3 1 2 3 5 5 4 3 3 3 2 1 1 1 2 3 2 1 0 1 1 1 0 0 0 0 0 0 1 2
0 0 0 0 0 0 0 1 1 1 0 0 1 3 4 5 6 6 6 4 3 3 5 7 6 4 3 4 5 5 4 3 3 3 3 2 1 0 0 0 0 0 0 0 0 0 1 2 3
0 0 0 0 0 0 0 0 1 1 0 1 3 5 6 6 6 5 5 4 4 5 6 7 6 5 5 6 6 7 7 6 4 3 3 2 1 0 0 0 0 0 0 0 0 1 2 3 3
0 0 0 0 0 0 0 0 0 1 1 2 5 6 5 4 3 3 4 6 6 7 8 8 7 7 9 9 7 7 8 7 4 3 4 3 1 0 0 0 0 0 0 0 1 1 3 3 3
0 0 0 0 0 0 0 0 0 0 1 3 6 6 4 3 2 2 4 7 8 9 10 10 9 8 10 10 9 10 11 9 6 5 4 3 1 0 0 0 0 0 1 1 2 3 3 3 3
0 0 0 0 0 0 0 0 0 0 0 3 6 5 4 5 4 4 6 8 9 10 12 13 11 10 10 11 13 14 14 12 10 7 4 2 0 0 0 1 1 1 2 3 3 3 3 3 3
0 0 0 0 0 0 0 0 0 0 0 2 5 5 4 6 8 9 8 9 9 10 13 16 16 14 13 14 16 17 17 14 11 7 3 1 1 1 1 2 2 3 3 3 3 3 3 3 3
0 0 0 0 0 0 0 0 0 0 0 2 5 5 5 7 10 11 10 9 10 10 14 18 20 18 17 18 19 18 17 15 11 6 2 2 2 2 2 2 2 3 3 3 3 2 2 2 2
0 0 0 0 0 0 0 0 1 1 1 2 5 7 7 9 10 10 8 8 9 11 15 19 21 21 20 21 20 19 18 16 11 7 5 4 4 3 2 1 1 1 2 2 1 1 1 1 1
0 0 0 0 0 0 0 0 1 2 2 2 5 7 8 10 11 9 7 7 10 13 17 20 23 23 21 20 19 18 17 14 11 9 7 6 3 1 1 0 0 0 1 1 1 1 0 0 0
0 0 0 0 0 0 0 0 1 2 2 2 4 7 8 10 11 9 6 6 10 14 19 23 25 24 21 18 17 17 15 12 10 9 9 6 2 0 0 0 0 0 0 1 2 2 1 0 0

GEFSSGP_con_prob3kmehi_240.txt.gz
EHI
2 1 2 3 2 1 0 0 0 0 0 0 0 0 0 0 0 0 0 0 0 0 1 1 1 1 1 1 2 1 0 0 0 0 0 0 0 0 0 1 0 0 0 0 0 0 0 0 0
2 2 3 3 1 0 0 0 0 0 0 0 0 0 0 0 0 0 0 0 0 0 0 1 2 2 2 1 1 1 0 0 0 0 0 0 0 0 1 2 1 0 0 0 0 0 0 0 0
3 3 2 1 0 0 0 0 0 0 0 0 0 0 0 0 0 0 0 0 0 0 0 1 2 2 2 1 1 0 0 0 0 0 0 0 0 1 2 3 2 1 1 0 0 0 0 0 0
3 2 0 0 0 0 0 0 0 0 0 0 0 0 0 0 0 0 0 0 0 0 0 0 1 1 1 1 1 1 0 0 0 0 0 0 0 1 3 3 1 0 0 0 0 0 0 0 0
2 1 0 0 0 0 0 0 0 0 0 0 0 0 0 0 0 0 0 0 0 0 0 0 0 0 0 0 1 1 0 0 0 0 0 0 1 2 3 2 1 0 0 0 0 0 0 0 0
1 0 0 0 0 0 0 0 0 0 0 0 0 0 0 0 0 0 0 0 0 0 0 1 1 0 0 0 0 0 0 0 0 0 0 0 1 2 2 1 0 0 0 0 0 0 0 0 0
1 0 0 0 0 0 0 0 0 0 0 0 0 0 0 0 0 0 0 0 0 0 0 1 1 0 0 0 0 0 0 0 0 0 0 0 0 1 1 1 0 0 0 0 0 0 0 0 0
0 0 0 0 0 0 0 0 0 0 0 0 0 0 0 0 0 0 0 0 0 0 1 1 1 0 0 0 0 0 0 0 0 1 1 0 0 1 1 1 0 0 0 0 0 0 0 1 1
0 0 0 0 0 0 0 0 0 0 0 0 0 0 0 0 0 0 0 0 0 0 1 0 0 0 0 0 0 1 1 1 1 1 1 1 1 2 2 1 0 0 0 0 0 0 1 2 3
0 0 0 0 0 0 0 0 0 0 0 0 0 0 0 0 0 0 0 0 0 0 0 0 0 0 0 0 1 2 2 2 2 1 1 0 1 2 1 1 0 0 0 0 0 0 1 2 2
0 0 0 0 0 0 0 0 0 0 0 0 0 0 0 0 0 0 0 0 0 0 0 0 0 0 0 0 1 2 2 2 2 1 0 0 1 1 1 1 0 0 0 0 0 0 1 1 0
0 0 0 0 0 0 0 0 0 0 0 0 0 1 1 0 0 0 0 0 0 0 0 0 0 0 0 0 0 1 1 1 1 0 1 2 1 1 1 1 1 0 0 0 0 0 0 1 1
0 0 0 0 0 0 0 0 0 0 0 0 1 1 0 0 0 0 0 0 0 0 0 0 1 1 1 1 1 2 2 1 0 1 2 3 2 0 1 2 2 1 0 0 0 0 0 1 2
0 0 0 0 0 0 0 0 0 1 1 0 0 0 0 0 0 0 0 1 1 0 0 1 2 4 4 4 3 3 4 4 2 2 3 3 3 2 2 3 4 3 1 1 1 0 0 1 1
0 0 0 0 0 0 1 1 1 2 2 1 0 0 0 0 0 0 1 2 2 1 1 1 3 5 6 6 4 4 5 6 5 4 5 6 6 5 5 5 6 6 4 3 2 1 0 0 0
0 0 0 0 0 0 0 1 2 3 3 1 0 0 0 0 0 0 1 2 3 3 3 3 4 5 6 6 5 5 5 7 7 7 8 9 8 7 6 6 6 6 5 4 3 2 1 1 1
0 0 0 0 0 0 0 1 2 3 3 2 0 0 0 0 0 0 0 1 2 4 6 8 8 8 8 7 7 7 7 8 9 9 9 9 9 9 7 5 4 4 4 3 2 2 3 3 4
0 0 0 0 0 0 0 1 2 3 2 1 0 0 0 1 1 1 1 1 3 6 11 15 16 17 15 12 10 8 8 9 10 9 9 8 8 8 7 4 3 2 3 3 2 2 4 6 7
0 0 0 0 0 0 0 1 2 3 1 0 0 0 0 1 2 3 4 4 6 10 17 22 25 26 25 20 14 10 9 10 10 9 8 7 6 6 5 3 2 1 1 1 1 2 3 5 7
0 0 0 0 0 0 0 1 2 2 1 0 0 0 0 1 4 7 9 8 9 14 20 24 28 30 28 24 19 13 11 11 11 10 9 8 7 5 4 3 2 1 0 0 0 1 2 3 4
0 0 0 0 0 0 0 0 2 2 1 1 0 0 0 1 5 11 13 11 10 15 18 21 26 29 29 25 20 17 15 13 12 12 11 9 8 7 5 3 2 1 0 0 0 1 3 3 4
0 0 0 0 0 0 0 0 1 2 2 2 1 1 1 2 6 11 13 11 10 12 13 18 25 31 31 27 22 18 17 15 13 13 12 10 9 10 8 3 1 0 0 0 0 1 3 4 4
0 0 0 0 0 0 0 0 1 1 2 3 3 3 3 3 6 9 10 10 9 9 10 17 26 34 34 30 25 21 18 16 14 13 12 11 12 12 9 3 0 1 2 2 2 3 4 4 4
0 0 0 0 0 0 0 0 0 0 1 3 6 7 6 5 7 9 9 9 10 10 11 18 28 36 36 34 30 27 23 20 17 14 13 13 13 12 8 3 0 1 3 4 4 5 6 6 5
0 0 0 0 0 0 0 0 0 0 0 2 7 9 8 7 9 9 8 9 13 16 18 22 30 36 38 38 35 31 27 24 20 17 14 13 12 10 7 3 1 2 2 3 4 4 6 7 7
0 0 0 0 0 0 0 0 0 0 0 2 6 9 9 9 10 11 9 9 14 19 22 26 32 36 38 38 36 33 29 24 21 18 16 14 12 9 6 4 3 3 2 3 3 3 3 4 5
0 0 0 0 0 0 0 0 0 0 1 4 8 10 10 9 10 13 12 10 12 17 23 28 32 36 36 36 34 33 30 25 21 19 18 16 13 10 7 5 4 4 4 4 3 3 2 3 3
0 0 0 0 0 0 0 0 0 1 4 8 11 12 10 9 11 15 15 12 12 17 24 28 32 36 37 35 34 32 30 26 23 21 19 17 14 12 9 6 4 3 5 5 4 3 3 4 5
0 0 0 0 0 0 0 0 0 1 5 11 13 13 12 11 13 15 16 16 16 21 26 29 33 38 39 37 34 31 29 26 22 20 19 17 14 12 10 8 5 4 4 5 4 4 3 4 5
0 0 0 0 0 0 0 0 0 1 5 11 14 14 14 15 15 15 15 17 21 25 27 30 35 39 39 38 34 30 28 27 22 19 19 17 14 11 9 8 7 5 4 5 4 4 3 4 5

GEFSSGP_con_prob3kmehi_246.txt.gz
EHI
5 14 29 36 27 9 1 0 0 0 0 0 0 0 0 0 0 0 0 1 2 2 2 1 0 0 0 1 2 2 1 0 0 0 0 0 1 2 3 3 3 3 1 0 1 1 1 0 0
12 21 32 30 16 4 0 0 0 0 0 0 0 0 0 0 0 0 0 0 2 3 4 3 1 0 0 0 1 1 0 0 0 0 0 0 0 1 2 3 3 3 2 1 0 0 0 0 0
22 28 27 15 5 0 0 0 0 0 0 0 0 0 0 0 0 0 0 0 3 6 7 6 3 2 2 1 0 0 0 0 0 0 1 1 1 1 1 2 3 3 3 2 0 0 0 0 0
29 26 16 5 0 0 0 0 0 0 0 0 0 0 0 0 0 0 1 1 4 6 7 7 5 3 3 2 1 0 0 0 0 0 1 2 2 1 1 1 2 3 2 1 0 0 0 0 0
24 16 7 2 0 0 0 0 0 0 0 0 0 0 0 0 0 0 1 1 3 5 5 6 6 5 3 2 1 0 0 0 0 0 1 1 2 1 0 0 1 1 1 1 0 0 0 0 0
12 6 2 0 0 0 0 0 0 0 0 0 0 0 0 0 0 0 1 1 2 4 4 5 7 6 5 4 2 0 0 0 1 1 1 0 0 0 0 0 0 0 0 0 0 0 0 1 1
3 1 0 0 0 0 0 0 0 0 0 0 0 0 0 0 0 0 0 0 1 2 3 4 7 7 6 5 3 1 0 1 2 2 2 1 1 1 1 0 0 0 0 0 0 1 2 3 3
1 0 0 0 0 0 0 0 0 0 0 0 0 0 0 0 0 0 0 0 0 1 2 4 7 9 8 6 4 3 2 2 3 4 3 3 2 3 3 2 1 0 0 0 1 3 5 6 6
0 0 0 0 0 0 0 0 0 0 0 0 0 0 0 0 0 0 0 0 1 1 2 4 7 9 7 5 5 6 5 6 6 6 6 7 5 4 4 5 6 4 2 2 3 6 7 7 8
0 0 0 0 0 0 0 0 0 0 0 0 1 0 0 0 0 0 0 1 2 2 3 6 8 7 4 3 5 7 8 10 10 9 9 10 7 5 5 7 10 9 7 6 9 10 8 6 6
0 0 0 0 0 0 0 0 0 0 0 0 0 0 0 0 0 0 1 2 3 3 5 8 9 8 6 5 6 8 10 12 10 9 10 8 6 5 5 7 9 12 11 9 11 12 8 5 4
0 0 0 0 0 0 0 0 0 0 0 0 0 0 0 0 0 0 1 2 3 5 7 9 10 11 11 11 10 10 10 10 9 9 8 5 4 5 6 6 7 9 9 7 8 9 6 4 4
0 0 0 0 0 0 0 0 0 0 0 0 0 0 0 0 0 0 1 2 4 6 9 10 11 13 14 14 13 10 9 8 9 9 8 5 5 5 6 8 7 6 5 5 6 7 5 4 5
0 0 0 0 0 0 0 0 0 0 0 0 0 0 0 0 0 1 2 3 4 6 9 12 14 16 16 13 12 11 9 9 9 9 9 8 7 7 7 9 10 7 5 7 9 8 6 6 6
0 0 0 0 0 0 0 0 0 0 0 0 0 0 0 0 0 1 3 3 4 8 14 16 17 20 20 16 13 11 10 10 11 10 9 10 10 9 9 10 11 9 9 11 12 10 9 8 7
0 0 0 0 0 0 0 0 0 0 0 0 0 1 0 0 1 2 4 5 6 13 22 21 18 20 22 21 18 14 12 12 13 14 14 14 13 12 12 12 12 11 11 11 10 10 11 12 12
0 0 0 0 0 0 0 0 0 0 0 1 1 1 1 2 2 4 6 9 14 23 29 26 21 20 22 23 21 18 16 15 18 22 23 19 16 14 13 13 12 12 11 9 6 6 10 14 15
0 0 0 0 0 0 1 1 1 0 1 2 2 2 3 5 6 8 10 15 26 34 36 33 30 28 26 24 22 20 20 22 24 29 29 23 18 15 13 12 12 12 11 8 5 5 9 13 15
0 0 0 0 0 0 1 3 3 2 1 2 3 5 8 10 12 13 14 19 31 43 46 43 39 38 35 30 26 24 25 27 29 32 31 26 21 19 16 16 16 15 11 7 5 6 9 11 12
0 0 0 0 0 0 1 3 4 3 2 1 4 8 12 15 19 20 19 21 32 46 52 49 45 45 44 40 33 29 29 27 27 31 32 30 26 23 20 21 21 17 12 9 7 7 9 10 9
0 0 0 0 0 0 0 1 4 5 3 3 6 10 13 18 23 26 27 28 35 47 53 52 51 50 50 46 37 33 32 28 24 27 31 32 29 26 23 21 20 16 13 11 9 8 8 8 7
0 0 0 0 0 0 0 1 3 4 4 5 7 10 14 19 25 29 33 35 37 43 51 56 57 57 55 50 42 36 33 30 26 27 29 30 29 25 22 20 18 16 15 14 13 11 9 7 6
0 0 0 0 0 0 0 0 1 3 4 6 9 11 14 20 26 32 37 38 35 39 50 59 62 62 58 53 47 40 34 31 30 30 29 28 28 26 23 22 20 19 18 17 17 17 15 10 7
0 0 0 0 0 0 0 0 0 1 4 8 11 13 15 19 26 35 43 44 39 40 50 58 62 61 57 52 49 44 38 35 35 33 30 28 28 27 26 26 25 22 19 17 18 21 20 15 12
0 0 0 0 0 0 0 0 0 1 5 9 13 16 17 17 23 36 48 50 46 43 49 57 63 63 56 51 49 46 42 40 40 36 32 30 29 28 29 29 27 23 18 16 17 20 20 18 16
0 0 0 0 0 0 0 0 1 3 7 12 15 18 19 17 20 34 46 50 47 45 51 60 67 67 60 53 50 48 46 44 43 39 34 30 29 29 29 29 26 21 17 17 19 20 19 16 15
0 0 0 0 0 0 0 0 2 6 10 14 17 20 20 19 22 31 40 45 46 47 53 61 66 68 63 56 52 51 49 47 45 41 35 30 28 27 26 26 24 19 17 17 18 18 16 15 15
0 0 0 0 0 0 0 0 3 7 12 15 18 19 21 23 26 30 35 42 46 48 54 59 61 64 63 58 52 51 50 48 45 41 37 33 29 25 23 22 21 18 15 15 15 14 14 15 16
0 0 0 0 0 0 0 0 2 7 11 15 18 19 20 25 29 31 35 41 46 49 55 59 59 59 60 58 53 49 47 47 44 41 38 35 30 25 22 21 19 16 13 13 14 13 14 15 15
0 0 0 0 0 0 0 0 2 5 10 15 19 19 19 24 29 31 34 41 46 50 56 60 58 57 59 59 55 49 45 45 44 40 37 35 31 27 24 21 18 14 13 15 15 14 14 14 14

GEFSSGP_con_prob3kmehi_252.txt.gz
EHI
14 10 5 4 2 1 0 0 0 0 0 0 0 0 0 0 0 0 0 0 0 0 0 0 0 0 0 0 1 2 2 2 2 1 2 5 7 6 5 3 2 1 0 0 0 0 0 0 0
9 7 4 3 1 0 0 0 0 0 0 0 0 0 0 0 0 0 0 0 0 0 0 0 0 0 0 0 0 1 1 1 1 0 1 4 6 6 5 3 1 0 0 0 0 0 0 0 1
4 4 2 1 0 0 0 0 0 0 0 0 0 0 0 0 0 0 1 1 1 0 0 0 0 0 0 0 0 0 0 0 0 0 1 2 4 5 4 2 1 0 0 0 0 0 0 0 1
4 3 2 0 0 0 0 1 1 1 0 0 0 0 0 0 0 1 2 2 2 1 0 0 0 0 0 0 0 0 0 0 0 1 1 1 1 3 3 1 0 0 0 0 0 0 0 0 1
4 3 1 0 0 0 0 1 1 1 0 0 0 0 0 1 3 4 4 3 2 1 1 1 0 0 0 0 0 0 0 0 1 2 2 1 0 1 1 0 0 0 0 0 0 0 0 0 0
4 2 1 0 0 0 1 1 1 0 0 0 0 0 0 2 5 6 4 2 2 2 2 1 0 0 0 0 0 1 1 2 3 3 3 1 0 0 0 0 0 0 0 0 0 0 0 1 1
2 1 0 0 0 0 1 1 1 0 0 0 0 0 0 2 5 4 2 1 2 2 2 1 0 0 0 0 1 2 3 3 3 3 3 2 1 0 0 0 0 0 0 0 1 1 1 2 2
1 0 0 0 0 0 0 0 0 0 0 0 0 0 1 3 4 3 1 0 1 1 1 0 0 0 0 0 1 3 5 5 4 4 3 2 1 1 0 0 0 1 1 2 3 3 3 4 4
1 0 0 0 0 0 1 1 0 0 0 0 0 1 3 4 4 4 3 1 0 0 0 0 0 0 0 0 0 2 3 5 5 4 3 2 1 0 0 0 2 3 3 4 5 5 5 5 5
0 0 0 0 0 0 1 1 1 0 0 0 1 2 4 5 4 5 5 4 1 0 0 0 0 0 0 0 0 0 1 2 3 2 2 2 1 0 0 1 3 4 4 4 4 5 5 4 4
0 0 0 0 0 0 1 2 2 1 0 1 2 3 3 3 2 2 4 4 3 1 0 0 0 0 0 0 0 0 1 1 1 1 2 2 1 0 0 1 2 3 3 2 2 3 2 1 1
0 0 0 0 0 0 1 2 2 1 1 2 3 3 3 2 1 0 1 2 2 3 2 1 1 0 0 0 0 1 2 2 2 2 3 2 1 1 0 0 1 1 1 1 0 1 1 1 1
0 0 0 0 0 0 1 2 2 1 1 2 3 2 1 1 0 0 0 1 3 6 6 4 3 2 1 1 1 1 2 3 3 3 3 3 3 2 1 0 0 0 0 1 1 1 2 2 2
0 0 0 0 0 0 1 2 2 1 2 2 1 1 0 0 0 1 1 3 6 9 10 8 6 4 3 3 2 1 2 2 2 2 3 3 3 3 2 0 0 0 0 1 2 2 3 3 2
0 0 0 0 0 0 0 1 2 1 1 1 0 0 0 0 0 2 4 5 7 11 12 10 7 4 4 4 2 1 1 2 1 1 2 3 3 3 2 1 0 0 0 1 1 2 3 2 1
0 0 0 0 0 0 0 1 2 1 1 0 0 0 0 0 0 2 5 7 8 11 13 11 8 5 4 4 2 1 1 1 1 2 2 2 3 3 3 2 1 0 0 0 0 1 2 2 1
0 0 0 0 0 0 0 1 2 2 1 0 0 0 0 0 0 2 5 7 8 10 12 11 9 7 6 6 3 1 0 0 1 3 3 3 4 5 4 2 1 1 1 0 0 0 1 2 2
0 0 0 0 0 0 0 1 2 2 1 1 1 1 0 0 0 2 6 10 11 9 10 12 12 9 9 8 5 2 1 0 1 3 5 5 6 7 4 2 1 2 1 0 0 0 0 1 2
0 0 0 0 0 0 0 0 1 2 3 2 2 2 2 2 2 5 10 14 14 10 9 12 15 13 11 9 8 6 4 2 3 4 6 6 7 7 5 2 1 1 1 0 0 0 0 1 2
0 0 0 0 0 0 0 0 1 2 3 3 3 4 4 5 6 11 17 18 17 14 14 17 20 18 14 11 9 8 6 4 4 5 6 6 7 6 5 3 1 0 0 0 0 0 1 2 2
0 0 0 0 0 0 0 0 0 2 4 4 3 4 6 8 11 15 20 20 18 18 20 24 25 23 19 14 12 11 9 7 5 4 5 6 6 5 4 3 2 0 0 0 0 1 2 2 1
0 0 0 0 0 0 0 0 0 2 3 4 4 5 6 8 13 17 21 22 21 22 24 26 29 28 23 17 15 15 13 10 6 5 6 7 5 4 2 3 2 1 0 0 0 1 1 1 0
0 0 0 0 0 0 0 0 0 1 2 4 4 6 8 11 16 20 24 26 27 28 29 29 30 31 26 19 16 16 14 12 10 8 8 8 7 4 2 2 2 1 1 2 2 1 0 0 0
0 0 0 0 0 0 0 0 0 0 2 3 5 7 10 16 22 25 27 31 34 35 36 34 33 32 27 21 17 15 14 14 13 11 10 9 8 6 4 2 1 2 3 4 3 1 0 0 0
0 0 0 0 0 0 0 0 0 1 2 4 6 8 13 19 25 27 28 30 34 37 38 39 38 34 28 24 21 17 15 15 15 15 14 11 8 7 6 3 2 4 5 5 3 1 1 1 1
0 0 0 0 0 0 0 0 0 2 3 5 8 11 15 20 24 26 26 26 29 34 38 42 42 37 31 27 24 21 17 15 15 16 15 11 7 6 6 5 5 5 5 4 3 2 2 2 2
0 0 0 0 0 0 0 0 1 4 5 8 12 14 17 22 25 25 23 20 21 28 36 43 45 40 34 30 27 24 19 15 13 13 11 9 7 7 7 7 7 7 5 3 2 1 1 1 1
0 0 0 0 0 0 0 0 2 5 8 10 13 16 18 23 26 26 22 19 20 26 35 45 48 44 37 32 29 27 22 17 13 10 7 5 5 7 9 9 9 7 4 2 1 1 1 1 1
0 0 0 0 0 0 0 0 2 6 9 11 12 15 18 22 24 23 22 23 24 27 35 45 50 48 42 36 32 28 23 19 16 12 6 3 4 7 10 11 10 7 5 3 2 2 2 2 2
0 0 0 0 0 0 0 0 2 6 10 10 11 13 17 20 20 18 20 25 28 28 34 43 49 50 46 41 35 28 22 19 18 14 7 2 4 7 10 12 11 8 5 4 3 2 1 2 3

GEFSSGP_con_prob3kmehi_258.txt.gz
EHI
0 0 0 0 0 0 0 0 0 0 0 0 0 0 0 0 0 0 0 0 0 0 0 0 0 0 0 0 0 0 0 0 1 1 1 1 0 0 0 0 0 1 2 1 0 1 2 2 1
0 0 0 0 0 0 0 0 0 0 0 0 0 0 0 0 0 0 0 0 0 0 0 0 0 0 0 0 0 0 0 0 1 1 1 0 0 0 0 1 1 2 2 1 0 0 1 1 0
0 0 0 0 0 0 0 0 0 0 0 0 0 0 0 0 0 0 0 0 0 0 0 0 0 0 0 0 0 0 0 0 1 1 0 0 0 0 1 3 3 2 1 0 0 0 0 0 0
0 0 0 0 0 0 0 0 0 0 0 0 0 0 0 0 0 0 0 0 0 0 0 0 0 0 0 0 0 0 0 0 0 0 0 0 0 0 1 3 3 1 0 0 0 0 0 0 0
0 0 0 0 0 0 0 0 0 0 0 0 0 0 0 0 0 0 0 0 0 0 0 0 0 0 0 0 0 0 0 0 0 0 0 0 0 0 0 1 1 0 0 0 0 0 0 0 0
0 0 0 0 0 0 0 0 0 0 0 0 0 0 0 0 0 0 0 0 0 0 0 0 0 0 0 0 0 0 0 0 0 0 0 0 0 0 0 0 0 0 0 0 0 0 0 1 1
0 0 0 0 0 0 0 0 0 0 0 0 0 0 0 0 0 0 0 0 0 0 0 0 0 0 0 0 0 1 1 1 1 0 0 0 0 0 0 0 0 0 1 1 1 1 1 2 2
0 0 0 0 0 0 0 0 0 0 0 0 0 0 0 0 1 1 1 0 0 0 0 0 0 0 0 0 0 1 2 2 2 1 0 0 0 0 0 0 1 1 2 2 2 2 3 3 3
0 0 0 0 0 0 0 0 0 0 0 0 0 0 0 1 2 2 2 1 0 0 0 0 0 0 0 0 0 0 1 2 2 1 0 0 0 0 0 1 2 3 3 3 3 3 3 3 3
0 0 0 0 0 0 0 0 0 0 0 0 0 1 2 3 3 3 2 1 0 0 0 0 0 0 0 0 0 0 0 1 1 1 0 0 0 0 0 1 2 2 2 2 2 2 2 2 1
0 0 0 0 0 0 0 0 0 0 0 0 1 3 5 5 4 2 1 0 0 0 0 0 0 0 0 0 0 0 0 0 0 0 0 0 0 0 0 0 1 1 1 1 1 1 1 1 0
0 0 0 0 0 0 0 0 0 0 0 1 3 6 7 6 3 1 0 0 0 0 0 0 0 0 0 0 0 0 0 0 0 0 0 0 0 0 0 0 0 0 0 0 0 0 0 0 0
0 0 0 0 1 0 0 0 0 0 0 1 4 6 7 5 2 0 0 0 0 0 0 0 0 0 0 0 0 0 0 0 0 0 0 0 0 0 0 0 0 0 0 0 0 0 0 0 0
0 0 0 0 0 0 0 0 0 0 1 2 3 4 4 3 2 1 1 1 0 0 0 0 0 0 0 0 0 0 0 0 0 0 0 0 0 0 0 0 0 0 0 0 0 0 0 0 0
0 0 0 0 0 0 0 0 0 1 2 3 3 3 2 2 2 2 2 1 1 0 0 0 0 0 0 0 0 0 0 0 0 0 0 0 0 0 0 0 0 0 0 0 0 0 0 0 0
0 0 0 0 0 0 0 0 0 1 2 3 3 2 1 0 1 1 1 1 2 1 0 0 0 0 0 0 0 0 0 0 0 0 1 2 1 1 0 0 0 0 0 0 0 0 0 0 0
0 0 0 0 0 0 0 0 0 1 2 3 3 2 0 0 0 0 0 1 2 2 1 0 0 0 0 0 0 0 1 1 1 1 3 3 2 1 0 0 0 0 0 0 0 0 0 0 0
0 0 0 0 0 0 0 0 0 0 1 2 2 1 0 0 0 0 0 1 2 2 1 1 0 0 0 0 0 1 2 2 2 2 4 4 2 1 0 0 0 0 0 0 0 0 0 0 0
0 0 0 0 0 0 0 0 0 0 0 1 1 0 0 0 0 1 1 0 1 2 3 2 1 0 0 1 1 2 2 1 1 1 2 3 2 1 0 0 0 0 0 0 0 0 0 0 0
0 0 0 0 0 0 0 0 0 0 0 0 0 0 0 0 1 2 2 1 1 3 4 3 1 0 0 2 3 4 3 1 0 0 1 1 2 2 1 0 0 0 0 0 0 0 0 0 0
0 0 0 0 0 0 0 0 0 0 0 0 1 1 0 1 2 3 2 1 1 4 5 4 1 0 0 2 4 4 3 1 0 0 0 1 2 2 1 0 0 0 0 0 0 0 0 0 0
0 0 0 0 0 0 0 0 0 0 0 1 2 1 0 1 3 5 5 3 4 7 9 7 4 1 1 3 4 4 3 2 1 1 0 0 1 1 0 0 0 0 0 0 0 0 0 0 0
0 0 0 0 0 0 0 0 0 0 0 2 2 1 0 2 5 8 9 9 9 11 11 10 7 4 2 3 4 4 4 4 3 2 1 0 0 0 0 0 0 0 0 0 0 0 0 0 0
0 0 0 0 0 0 0 0 0 0 0 2 2 1 1 4 8 11 12 13 13 12 11 9 7 5 3 3 4 5 6 5 4 2 1 0 0 0 0 0 0 0 0 0 0 0 0 0 0
0 0 0 0 0 0 0 0 0 0 1 2 2 1 2 6 10 13 14 14 15 14 11 9 8 6 4 3 4 4 5 4 3 2 1 1 1 1 1 0 0 0 0 0 0 0 0 0 0
0 0 0 0 0 0 0 0 0 0 1 2 2 1 2 6 10 13 13 14 15 14 12 11 9 7 6 5 4 4 3 2 2 2 3 3 2 2 1 0 0 0 1 1 1 1 1 1 1
0 0 0 0 0 0 0 0 0 0 1 2 2 1 2 6 10 12 12 13 13 13 11 11 10 9 8 7 6 4 3 3 3 4 5 4 3 1 1 0 0 0 2 3 3 2 1 1 0
0 0 0 0 0 0 0 0 0 0 1 3 2 1 2 7 11 12 13 13 13 11 10 11 11 10 8 7 6 5 3 3 5 5 4 3 2 1 0 1 1 1 1 3 3 1 1 0 0
0 0 0 0 0 0 0 0 0 1 2 3 2 1 2 8 12 13 14 15 14 11 10 11 11 9 7 6 6 5 4 4 4 4 2 1 1 0 1 2 2 2 1 1 2 1 0 0 0
0 0 0 0 0 0 0 0 0 1 2 3 2 1 2 8 13 14 15 16 14 11 9 10 11 8 6 6 6 7 6 5 5 3 2 1 0 0 1 2 3 2 1 1 2 2 1 0 0

GEFSSGP_con_prob3kmehi_264.txt.gz
EHI
3 5 9 11 6 2 0 0 0 0 0 0 0 0 0 0 0 0 0 0 0 0 0 1 2 3 3 3 2 1 0 0 0 1 0 0 0 0 1 2 3 2 1 0 0 0 0 0 0
2 5 8 8 4 1 0 0 0 0 0 0 0 0 0 0 0 0 0 0 0 0 0 0 1 2 2 2 3 1 0 0 0 1 1 1 0 0 0 1 2 1 1 1 0 0 0 0 0
1 3 5 4 1 0 0 0 0 0 0 0 0 0 0 0 0 0 0 0 0 0 0 0 0 0 1 2 3 2 1 1 1 2 2 2 1 0 0 0 1 1 1 1 0 0 0 0 0
2 2 2 1 0 0 0 0 0 0 0 0 0 0 0 0 0 0 0 0 0 0 0 0 0 0 0 2 2 1 1 1 2 3 3 3 1 1 0 0 1 0 0 0 0 0 0 0 0
2 1 0 0 0 0 0 0 0 0 0 0 0 0 0 0 0 0 0 0 0 0 0 0 0 0 0 1 1 0 0 1 1 2 3 2 2 2 1 0 0 0 0 0 0 0 0 1 1
1 0 0 0 0 0 0 0 0 0 0 0 0 0 0 0 0 0 0 0 0 0 0 0 0 0 0 0 0 0 0 0 0 1 1 1 2 2 2 0 0 0 0 0 0 0 1 3 3
0 0 0 0 0 0 0 0 0 0 0 0 0 0 0 0 0 0 0 0 0 0 0 0 0 0 0 0 0 0 0 0 0 0 0 1 3 2 1 0 0 0 0 0 1 1 3 4 4
0 0 0 0 0 0 0 0 0 0 0 0 0 0 0 0 0 0 0 0 0 0 0 0 0 0 0 0 0 0 0 0 0 0 0 1 3 2 0 0 0 0 0 0 1 3 4 4 3
0 0 0 0 0 0 0 0 0 0 0 0 0 0 0 0 0 0 0 0 0 0 0 0 0 0 0 0 0 0 0 0 0 0 0 1 2 1 0 0 1 0 0 0 1 2 4 4 3
0 0 0 0 0 0 0 0 0 0 0 0 0 1 2 1 0 0 0 0 0 0 0 0 0 0 0 0 0 0 0 0 0 0 0 1 2 1 1 0 0 0 0 0 0 1 2 3 2
0 0 0 0 0 0 0 0 0 0 0 0 1 2 3 2 1 0 0 0 0 0 0 0 0 0 0 0 0 0 1 1 1 0 1 2 3 3 2 1 0 0 0 0 0 0 1 1 1
0 0 0 0 0 0 0 0 0 0 0 0 1 2 3 3 1 0 0 0 0 0 0 0 0 0 0 0 0 1 2 2 1 1 1 3 3 3 3 2 1 0 0 0 0 1 1 0 0
0 0 0 0 0 0 0 0 0 0 0 0 1 3 4 4 2 0 0 0 0 0 0 0 0 0 0 1 1 1 3 3 3 3 3 3 3 3 3 2 1 0 0 1 2 3 2 1 0
0 0 0 0 0 0 0 0 0 0 0 1 2 3 4 4 3 1 0 0 0 0 0 0 0 0 0 1 1 1 3 4 4 4 4 4 3 3 1 1 1 0 1 3 4 4 2 1 0
0 0 0 0 0 0 0 0 0 0 1 2 3 3 3 3 3 1 1 1 0 0 0 0 0 0 1 1 1 2 3 3 4 5 5 5 4 3 1 1 1 1 2 4 4 2 1 0 0
0 0 0 0 0 0 0 0 0 0 1 2 3 3 3 2 2 2 2 2 1 1 1 1 1 2 2 2 3 4 5 5 6 7 7 7 6 4 3 2 1 1 2 3 1 0 0 0 0
0 0 0 0 0 0 0 0 0 0 1 2 3 3 3 1 1 1 2 2 2 2 3 3 3 4 4 4 5 7 9 9 9 9 9 8 7 5 3 2 1 1 1 1 0 0 0 0 0
0 0 0 0 0 0 0 0 0 0 0 1 3 3 2 1 1 1 2 1 2 4 6 7 6 7 7 6 6 8 10 10 10 9 9 8 6 3 2 2 2 1 0 0 0 0 0 0 0
0 0 0 0 0 0 0 0 0 0 0 1 2 2 1 1 2 2 1 1 3 6 10 12 12 13 13 10 8 9 9 10 10 9 7 5 3 1 0 1 1 1 0 0 0 0 0 0 0
0 0 0 0 0 0 0 0 0 0 1 1 2 2 0 0 3 4 2 2 5 10 13 15 17 18 16 13 10 10 10 10 10 9 7 4 2 1 0 0 0 1 1 1 1 0 0 0 0
0 0 0 0 0 0 0 1 1 1 1 1 3 2 1 0 2 4 4 4 7 12 14 16 19 20 19 17 14 12 11 10 10 9 8 6 5 3 2 1 1 1 1 2 1 0 0 0 0
0 0 0 0 0 0 0 1 1 1 1 1 3 3 1 0 2 4 6 7 8 11 14 18 21 23 24 23 19 16 12 9 9 9 8 8 7 6 6 5 4 3 3 3 2 1 1 0 1
0 0 0 0 0 0 0 0 1 1 1 1 2 2 2 2 3 5 7 7 7 9 13 19 25 28 29 26 23 20 15 12 10 9 8 7 7 7 8 8 7 7 6 5 4 3 3 2 2
0 0 0 0 0 0 0 0 0 0 0 1 2 3 3 4 5 6 8 9 9 11 15 22 29 34 33 28 25 22 20 17 13 9 7 5 5 7 9 9 9 9 7 6 5 5 5 4 4
0 0 0 0 0 0 0 0 0 0 0 1 2 3 4 5 8 10 12 13 15 16 21 27 34 39 38 32 26 24 23 19 14 9 6 4 5 7 8 9 10 10 8 5 5 5 6 6 6
0 0 0 0 0 0 0 0 0 0 0 2 3 4 5 7 11 14 15 18 19 21 25 31 36 41 40 34 29 26 23 18 13 10 6 4 5 6 7 9 10 11 9 6 5 5 6 7 6
0 0 0 0 0 0 0 0 0 1 2 4 5 6 7 10 12 14 15 18 21 24 28 33 36 39 38 32 27 26 24 20 15 11 6 5 5 5 7 9 10 11 10 8 7 6 7 7 7
0 0 0 0 0 0 0 0 1 3 5 6 6 7 10 12 14 15 16 18 21 24 29 32 33 34 32 28 24 23 23 22 18 12 8 7 6 6 7 9 10 11 11 11 10 8 8 8 9
0 0 0 0 0 0 0 0 2 4 6 6 7 9 12 15 17 19 20 20 20 22 25 27 27 27 26 25 23 22 22 22 19 14 9 8 8 7 8 8 10 11 11 13 13 11 9 9 10
0 0 0 0 0 0 0 1 2 4 6 6 7 10 13 16 19 21 23 22 21 20 22 23 22 21 22 22 23 23 22 21 19 14 10 8 8 9 9 8 9 9 11 14 16 13 10 9 10

GEFSSGP_con_prob3kmehi_270.txt.gz
EHI
11 15 24 26 16 6 1 0 0 0 0 0 0 0 0 0 0 0 0 1 1 1 0 0 0 0 0 0 0 0 0 0 0 0 0 0 0 0 1 2 4 4 4 3 2 1 2 2 2
12 21 29 25 13 4 0 0 0 0 0 0 0 0 0 0 0 0 0 0 1 1 0 0 0 0 0 0 0 0 0 0 0 0 0 0 0 0 1 2 3 4 3 2 1 0 1 1 1
20 28 30 19 8 2 0 0 0 0 0 0 0 0 0 0 0 0 0 0 0 1 1 1 1 1 0 0 1 0 0 0 0 0 0 0 0 0 1 1 3 3 2 1 0 0 0 0 0
33 32 23 11 3 0 0 0 0 0 0 0 0 0 0 0 0 0 0 1 1 1 1 2 3 2 1 1 1 1 1 0 0 0 0 0 0 0 1 1 2 3 2 1 0 0 0 1 1
36 27 15 6 1 0 0 0 0 0 0 0 0 0 0 0 0 0 0 1 2 1 1 2 3 3 3 2 2 2 2 1 1 1 1 1 0 0 0 1 2 3 2 1 0 0 2 3 3
26 16 6 2 0 0 0 0 0 0 0 0 0 1 0 0 1 1 0 1 1 1 1 2 3 3 3 3 3 3 3 3 3 4 4 2 1 0 0 0 1 2 2 1 1 2 4 4 4
13 8 2 0 0 0 0 0 0 0 0 0 0 0 0 0 1 1 1 0 0 0 1 2 3 3 4 4 4 4 3 3 3 4 4 3 1 0 1 1 2 3 2 2 2 3 4 4 4
4 2 0 0 0 0 0 0 0 0 0 0 0 0 0 0 0 1 1 0 0 0 1 2 3 3 4 5 5 5 4 3 4 4 4 4 2 2 3 4 5 6 5 4 4 4 4 4 4
1 0 0 0 0 0 0 0 0 0 0 0 0 0 0 0 0 0 0 0 0 0 0 1 2 3 2 3 4 5 5 5 5 6 8 8 6 4 4 6 9 10 8 7 7 6 6 5 5
0 0 0 0 0 0 0 0 0 0 0 0 1 1 0 0 0 0 0 0 0 0 0 1 2 3 2 1 1 3 4 6 6 6 9 9 6 4 4 6 10 11 9 9 9 9 6 5 4
0 0 0 0 0 0 0 0 0 0 0 1 2 2 1 0 0 0 1 0 0 1 1 2 3 5 4 2 1 1 3 5 6 5 7 7 5 3 3 4 6 8 8 7 8 8 5 3 2
0 0 0 0 0 0 0 0 0 0 0 1 2 3 2 1 0 0 1 1 1 2 3 3 4 6 8 7 4 2 2 5 6 5 4 5 5 3 2 4 5 4 4 4 5 5 4 3 3
0 0 0 0 0 0 0 0 0 0 0 1 3 3 2 1 0 0 1 1 2 4 6 6 6 9 12 13 10 6 5 7 8 7 6 6 5 4 4 6 6 3 2 3 4 4 4 4 4
0 0 0 0 0 0 0 1 1 1 0 1 4 4 3 1 0 0 1 2 2 3 6 9 11 14 15 15 13 10 9 11 12 13 11 10 8 6 6 7 6 4 3 4 5 4 4 4 3
0 0 0 0 0 0 0 1 1 1 0 1 4 6 5 2 0 1 3 3 2 2 5 9 12 15 15 13 11 10 11 12 14 15 15 13 11 8 7 6 5 5 5 5 4 4 4 3 2
0 0 0 0 0 0 0 0 0 0 0 1 4 6 6 4 2 3 6 5 4 5 6 7 9 14 16 15 12 11 11 11 11 13 13 14 14 11 8 6 5 4 4 4 3 3 3 2 2
0 0 0 0 0 0 0 0 0 0 0 1 3 5 6 6 6 7 8 8 9 11 11 8 9 15 18 17 18 16 13 11 12 13 13 13 14 12 9 7 5 4 3 3 3 2 2 2 3
0 0 0 0 0 0 0 0 0 0 1 2 4 5 7 9 10 10 9 10 13 18 20 17 17 21 21 20 23 23 17 14 16 18 16 13 11 10 9 8 6 5 3 4 4 4 3 3 3
0 0 0 0 0 0 0 0 0 1 2 4 5 7 10 13 15 14 11 12 18 25 31 32 31 31 28 25 25 25 21 19 20 21 20 17 12 9 9 9 9 8 6 6 5 5 5 3 1
0 0 0 0 0 0 0 1 1 1 3 4 6 8 12 17 20 20 17 17 23 32 39 44 46 44 36 29 25 24 23 22 24 25 25 23 17 12 11 13 13 13 13 11 9 9 7 4 2
0 0 0 0 0 0 0 0 1 1 2 3 5 8 12 19 24 25 23 23 28 36 44 49 53 49 41 33 27 24 25 27 28 30 30 27 23 19 15 14 15 17 18 16 15 14 12 9 7
0 0 0 0 0 0 0 0 0 1 2 3 4 6 10 16 23 26 28 31 33 38 46 54 56 50 43 36 31 30 31 31 32 33 32 30 26 22 19 15 16 18 17 16 17 17 16 14 12
0 0 0 0 0 0 0 0 1 2 3 4 4 5 8 14 21 26 32 36 37 38 46 56 59 52 44 38 35 35 35 34 34 35 34 31 27 24 21 19 19 20 18 17 19 18 16 15 14
0 0 0 0 0 0 0 0 1 3 4 3 3 5 8 13 21 27 33 39 40 38 43 54 60 56 47 41 38 37 36 34 33 35 35 32 27 25 24 22 24 26 24 22 23 20 15 13 12
0 0 0 0 0 0 0 0 1 2 2 2 4 6 7 13 22 29 35 40 42 41 43 51 60 59 50 42 40 41 38 33 31 31 31 29 25 23 23 23 26 28 27 24 24 23 19 16 15
0 0 0 0 0 0 0 0 1 1 1 2 4 6 6 11 20 28 33 39 42 42 44 52 60 60 50 44 43 43 40 32 28 27 25 23 20 19 21 23 26 27 26 24 24 25 23 21 21
0 0 0 0 0 0 0 0 2 2 2 4 5 7 7 9 17 24 30 36 42 45 47 54 62 62 54 48 46 44 38 31 27 25 22 20 19 19 21 24 26 27 27 24 23 25 24 23 22
0 0 0 0 0 0 0 0 2 4 5 7 9 11 11 11 17 24 29 34 39 43 47 54 62 64 60 54 49 44 38 33 28 26 24 22 21 20 21 24 25 26 26 23 22 24 23 21 20
0 0 0 0 0 0 0 1 2 4 6 9 12 16 16 16 22 29 33 36 37 37 42 50 57 60 61 58 51 43 38 36 33 31 29 28 26 22 21 23 23 23 23 23 22 22 21 20 20
0 0 0 0 0 0 1 2 3 4 6 9 14 18 17 18 25 33 38 39 37 34 38 46 51 55 58 60 54 44 38 37 35 34 33 32 30 24 22 23 23 22 22 23 23 20 19 19 21

GEFSSGP_con_prob3kmehi_276.txt.gz
EHI
18 14 9 5 2 0 0 0 0 0 0 0 0 0 0 0 0 0 0 1 1 0 1 2 3 4 4 4 4 4 3 1 0 0 0 0 1 2 2 1 2 3 4 4 4 3 2 2 3
11 9 6 3 1 0 0 0 0 0 0 0 0 0 0 0 0 0 1 2 1 0 0 1 3 5 6 6 6 5 3 1 0 0 0 0 0 1 1 1 1 2 3 4 3 2 2 2 3
5 5 3 1 0 0 0 0 0 0 0 0 0 0 0 0 0 0 1 1 1 0 0 1 3 5 6 5 5 4 2 1 0 1 1 1 1 2 2 2 1 1 2 3 3 1 1 1 1
2 3 3 1 0 0 0 0 0 0 0 0 0 0 0 0 0 0 0 1 0 0 0 1 3 4 4 3 2 2 1 0 0 1 2 2 2 2 2 3 2 2 2 2 3 2 1 1 1
2 3 3 2 0 0 0 0 0 0 0 0 0 0 0 0 0 0 1 2 1 0 0 1 2 3 2 2 3 2 1 1 1 1 2 2 2 1 1 3 3 2 2 2 3 3 3 3 3
4 4 3 1 0 0 0 0 0 0 0 0 0 0 0 0 1 1 2 2 1 0 0 1 2 2 1 2 5 5 4 2 1 1 1 1 1 1 1 2 2 2 2 3 3 4 4 4 5
4 3 2 1 0 0 0 0 0 0 0 0 0 0 0 0 0 1 1 1 1 0 0 1 1 1 1 2 4 5 5 3 2 1 0 0 0 0 0 1 2 3 4 5 4 3 3 4 5
2 1 1 0 0 0 0 0 0 1 0 0 0 0 0 0 0 0 0 0 0 0 0 0 0 0 0 2 4 4 4 2 1 0 0 1 1 0 0 2 3 5 6 6 4 3 4 6 7
1 0 0 0 0 0 0 0 0 1 1 0 0 0 0 0 0 0 0 0 0 0 0 0 0 0 0 1 3 3 3 1 0 0 0 1 1 0 0 2 4 6 7 5 4 4 5 7 8
0 0 0 0 0 0 0 0 1 2 2 1 1 1 0 0 0 0 0 0 1 1 1 0 0 0 0 0 1 1 1 1 0 0 0 1 1 0 0 1 3 5 6 5 4 4 4 5 5
0 0 0 0 0 0 0 0 1 2 2 2 2 2 1 0 0 1 1 0 1 1 1 0 0 0 0 0 0 0 0 0 0 0 0 0 0 0 0 0 1 2 3 3 3 3 2 2 2
0 0 0 0 0 0 0 0 0 1 1 1 2 2 1 0 1 2 1 0 0 1 2 1 0 0 0 0 0 0 0 0 0 0 0 0 0 0 0 0 0 0 1 1 2 1 1 2 1
0 0 0 0 0 0 0 0 0 1 1 0 1 1 1 1 1 2 1 0 0 1 2 1 0 0 0 0 0 0 0 0 0 0 0 0 0 0 0 0 0 0 0 0 0 0 1 1 1
0 0 0 0 0 0 0 0 1 2 2 1 0 0 0 0 0 1 2 1 1 1 2 2 1 0 0 1 1 1 0 0 0 0 0 0 0 0 0 0 0 0 0 0 0 0 0 0 0
0 0 0 0 0 0 0 0 1 2 3 1 1 1 0 0 0 1 2 3 2 3 3 3 3 1 1 1 2 1 0 0 0 1 1 1 1 1 0 0 0 0 0 0 0 0 0 0 0
0 0 0 0 0 0 0 0 1 3 3 3 2 2 1 0 0 1 3 3 3 4 5 5 4 3 1 1 1 1 1 1 1 1 2 2 2 2 1 1 1 1 0 0 0 0 0 0 0
0 0 0 0 0 0 0 0 1 3 4 4 4 4 3 1 1 2 3 2 3 5 7 8 8 5 3 2 2 3 3 3 2 2 3 3 3 3 2 2 2 1 0 0 0 0 0 0 0
0 0 0 0 0 0 0 0 1 3 4 4 5 6 6 3 3 4 4 4 5 8 11 13 12 8 5 4 4 4 4 4 3 3 4 3 3 3 2 2 2 1 0 0 0 0 0 0 0
0 0 0 0 0 0 1 1 1 2 3 4 6 9 9 6 6 8 9 10 11 12 13 14 12 9 6 4 4 3 3 2 2 3 3 2 2 2 2 2 2 1 0 0 0 0 0 0 0
0 0 0 0 0 1 2 2 2 2 3 3 6 10 12 11 11 13 14 15 15 14 14 15 13 10 6 4 4 4 3 1 1 2 2 1 1 2 3 4 3 2 1 0 0 0 0 0 0
0 0 0 0 0 1 2 3 3 3 3 3 5 10 15 17 16 17 17 17 16 15 17 18 16 11 8 6 6 7 5 2 1 1 1 1 3 4 5 5 5 4 3 2 0 0 0 0 0
0 0 0 0 0 0 1 1 2 3 4 3 4 9 16 19 19 19 18 16 15 17 21 22 18 14 11 10 10 10 8 4 1 1 1 2 4 6 5 5 5 6 6 4 2 1 1 1 0
0 0 0 0 0 0 0 0 1 2 3 3 4 9 17 21 22 22 19 14 14 19 23 24 21 16 14 14 14 12 8 4 2 2 2 2 3 4 4 4 4 5 6 6 6 4 3 2 1
0 0 0 0 0 0 0 0 0 1 2 4 5 9 16 23 25 24 20 16 15 19 24 27 25 21 19 20 19 15 10 6 5 5 4 2 2 3 3 4 4 4 6 8 9 8 6 4 3
0 0 0 0 0 0 0 0 0 0 1 4 5 7 14 23 25 25 22 18 17 20 25 31 30 25 23 24 23 19 15 12 11 9 6 4 3 3 4 4 5 5 7 9 10 10 8 5 4
0 0 0 0 0 0 0 0 0 1 2 5 7 8 13 22 26 25 21 18 18 20 25 33 35 29 26 25 25 21 18 17 14 11 9 7 6 5 5 4 4 4 6 8 8 9 8 7 6
0 0 0 0 0 0 0 0 1 2 5 7 8 10 14 21 25 26 21 17 17 20 25 33 37 34 30 27 25 22 19 18 16 13 12 11 8 6 6 6 4 3 5 6 8 9 9 9 8
0 0 0 0 0 0 0 0 1 3 5 7 9 10 14 20 25 27 23 20 20 22 27 34 37 36 32 29 26 22 19 17 16 15 15 14 11 9 9 9 7 5 5 8 9 10 11 10 9
0 0 0 0 0 0 0 0 1 1 3 6 8 11 16 23 28 29 27 25 27 29 31 34 37 35 32 29 27 24 19 18 17 17 17 16 14 11 11 11 9 7 7 8 10 12 13 11 9
0 0 0 0 0 0 0 0 0 1 3 5 8 13 19 26 30 30 29 30 32 34 34 35 36 34 31 29 28 25 19 18 19 17 16 16 14 12 11 11 11 9 7 8 10 13 14 13 10

GEFSSGP_con_prob3kmehi_282.txt.gz
EHI
5 3 1 0 0 0 0 0 0 0 0 0 0 0 0 0 0 0 0 0 0 0 0 1 2 2 1 0 0 0 0 1 2 2 1 0 1 1 1 0 0 0 0 0 0 0 0 0 0
4 3 2 0 0 0 0 0 0 0 0 0 0 0 0 0 0 0 0 0 0 0 0 0 1 1 0 0 0 0 0 0 1 2 2 1 0 0 0 0 0 0 0 0 0 0 0 1 1
3 2 1 0 0 0 0 0 0 0 0 0 0 0 0 0 0 0 0 0 0 0 0 0 0 0 0 0 0 0 0 0 1 2 2 1 0 0 0 0 0 0 0 0 0 1 2 3 4
2 1 0 0 0 0 0 0 0 0 0 0 0 0 0 0 0 0 0 0 0 0 0 0 0 1 1 1 0 0 0 0 0 1 1 1 1 0 1 2 2 2 1 1 2 3 4 5 6
1 0 0 0 0 0 0 0 0 0 0 0 0 0 0 0 0 0 0 0 0 0 0 0 0 1 1 1 0 1 1 1 0 0 1 2 1 0 2 4 4 3 3 3 3 5 5 5 5
0 0 0 0 0 0 0 0 0 0 0 0 0 0 0 0 0 0 0 0 0 0 0 0 0 0 1 1 2 2 2 2 1 0 2 2 1 1 2 4 4 4 4 4 5 5 4 4 4
0 0 0 0 0 0 0 0 0 0 0 0 0 0 0 0 0 0 0 0 0 0 0 0 0 0 1 2 3 3 3 2 1 0 1 2 1 1 1 2 3 4 5 6 6 5 3 3 2
0 0 0 0 0 0 0 0 0 0 0 0 0 0 0 0 0 0 0 0 0 0 0 0 0 0 1 2 3 3 2 1 0 0 0 1 1 0 0 0 1 3 4 5 5 5 3 2 2
1 0 0 0 0 0 0 0 0 0 0 0 0 0 0 0 0 0 0 0 0 0 0 0 0 0 0 1 2 2 1 0 0 0 0 0 0 0 0 0 1 2 3 3 3 3 3 3 2
1 1 0 0 0 0 0 0 0 0 0 0 0 0 1 1 0 0 0 0 0 0 0 0 0 0 0 0 1 1 1 0 0 0 0 0 0 0 0 0 0 1 1 1 1 2 3 3 2
2 1 0 0 0 0 0 0 0 0 0 0 0 1 2 1 0 0 0 0 0 0 0 0 0 0 0 0 0 0 0 0 0 0 0 0 0 0 0 0 0 0 0 0 0 0 1 1 1
1 1 0 0 0 0 0 0 0 0 0 0 1 2 2 1 0 0 0 0 0 0 0 0 0 0 0 0 0 0 0 0 0 0 0 0 0 0 0 0 0 0 0 0 0 0 0 0 0
1 0 0 0 0 0 0 0 0 0 0 1 2 2 1 0 0 0 0 0 0 0 0 0 0 0 0 0 0 0 0 0 0 0 0 0 0 0 0 0 0 0 0 0 0 0 0 0 0
0 0 0 0 0 0 0 0 0 0 0 1 1 1 0 0 0 0 0 0 0 0 0 0 0 0 0 0 0 0 0 0 0 0 0 0 0 0 0 0 0 0 0 0 0 0 0 0 0
0 0 0 0 0 0 0 0 0 1 1 1 0 0 0 0 0 0 0 0 0 0 0 0 0 0 0 0 0 0 0 0 0 0 0 0 0 0 0 0 0 0 0 0 0 0 0 0 0
0 0 0 0 0 0 0 0 1 2 2 1 0 0 0 0 0 1 2 1 1 1 1 0 0 0 0 0 0 0 0 0 0 0 0 0 0 0 0 0 0 0 0 0 0 0 0 0 0
0 0 0 0 0 0 0 0 1 2 3 2 1 0 0 0 0 1 2 3 3 3 3 1 1 0 1 1 1 0 0 0 0 0 0 0 0 0 0 0 0 0 0 0 0 0 0 0 0
0 0 0 0 0 0 0 0 0 1 2 2 1 0 0 0 0 1 2 4 5 6 5 3 2 1 2 2 2 1 0 0 0 0 0 0 0 0 0 0 0 0 0 0 0 0 0 0 0
0 0 0 0 0 0 0 0 0 0 1 1 0 0 0 0 0 0 0 2 5 6 5 3 2 1 2 3 2 1 0 0 0 0 0 0 0 0 0 0 0 0 0 0 0 0 0 0 0
0 0 0 0 0 0 0 0 0 0 0 0 0 0 1 1 1 0 0 1 2 3 3 1 1 1 2 3 2 1 0 0 0 0 0 0 0 0 1 1 0 0 0 0 0 0 0 0 0
0 0 0 0 0 0 0 0 0 0 0 0 0 1 2 3 2 2 1 1 1 1 1 1 0 0 1 2 2 1 1 1 0 0 0 0 0 1 2 3 2 1 1 1 2 2 1 0 0
0 0 0 0 0 0 0 0 0 0 0 0 1 3 5 5 4 4 3 2 1 0 0 1 0 0 1 2 2 2 2 2 1 1 1 1 1 1 3 5 5 4 4 5 5 5 3 2 1
0 0 0 0 0 0 0 0 0 0 0 0 1 3 6 7 7 5 3 2 1 0 0 0 0 0 1 2 3 3 3 3 3 2 2 2 2 2 3 5 6 5 6 6 6 6 4 3 3
0 0 0 0 0 0 0 0 0 0 0 0 1 3 6 9 9 5 2 2 1 0 0 0 0 0 1 2 3 3 3 3 3 3 3 3 1 1 2 3 4 4 4 5 5 5 5 5 5
0 0 0 0 0 0 0 0 0 0 0 0 0 2 5 9 9 6 3 2 1 0 1 1 0 0 1 3 4 4 3 3 3 3 3 2 1 1 1 3 3 3 4 4 4 5 5 5 6
0 0 0 0 0 0 0 0 0 0 0 0 0 2 6 10 10 7 4 2 1 1 2 3 2 1 2 5 6 5 4 4 4 3 3 2 1 2 3 4 4 5 5 6 5 5 4 4 5
0 0 0 0 0 0 0 0 0 0 0 0 2 5 8 10 10 8 4 2 0 1 3 5 4 3 4 6 7 7 6 6 6 4 3 2 2 3 4 5 6 6 6 5 5 4 2 2 3
0 0 0 0 0 0 0 0 0 0 0 1 3 5 7 9 10 8 5 3 2 2 4 6 7 6 7 8 8 7 7 8 8 5 3 3 5 5 5 5 6 6 5 3 3 2 1 2 3
0 0 0 0 0 0 0 0 0 0 1 2 3 5 7 9 10 10 8 8 8 7 8 9 10 10 10 10 8 7 7 8 8 6 5 5 7 7 5 5 6 5 4 2 1 1 2 4 5
0 0 0 0 0 0 0 0 0 1 2 3 4 5 6 10 12 12 12 12 13 12 12 12 11 12 12 11 8 6 6 8 9 8 7 7 8 7 5 5 5 4 3 2 1 0 2 6 7

GEFSSGP_con_prob3kmehi_288.txt.gz
EHI
8 8 7 5 2 1 0 0 0 0 0 0 0 0 0 0 0 0 0 0 0 0 0 0 0 0 1 1 1 1 0 0 0 0 0 0 0 0 0 0 0 0 1 2 4 4 4 2 1
9 8 7 4 1 0 0 0 0 0 0 0 0 0 0 0 0 0 0 0 0 0 0 1 1 1 2 1 1 0 0 0 0 0 0 0 0 0 0 0 0 0 1 2 3 3 3 2 1
9 9 6 3 1 0 0 0 0 0 0 0 0 0 0 0 0 0 0 0 0 0 1 2 3 3 4 3 1 0 0 0 0 0 0 0 0 0 0 1 1 0 0 1 1 2 2 1 0
9 8 6 2 0 0 0 0 0 0 0 0 0 0 0 0 0 0 0 0 0 0 1 2 3 5 5 4 3 1 1 1 0 0 0 0 0 1 1 2 2 1 1 1 1 3 3 1 1
8 7 3 1 0 0 0 0 0 0 0 0 0 0 0 0 0 0 0 0 0 0 0 1 3 4 5 4 3 2 2 2 1 0 0 1 1 1 2 2 3 4 3 3 3 4 4 3 2
6 4 1 0 0 0 0 0 0 0 0 0 0 0 0 0 0 0 0 0 0 0 0 1 2 3 3 3 2 1 1 2 1 0 1 3 3 2 1 1 3 5 5 4 4 4 5 4 4
3 2 0 0 0 0 0 0 0 0 0 0 0 0 0 0 0 0 0 0 0 0 0 0 1 1 1 2 1 0 0 1 1 0 1 3 3 2 1 1 2 3 3 3 3 3 5 5 4
3 2 0 0 0 0 0 0 0 0 0 0 0 0 0 0 0 0 0 0 0 0 0 0 0 0 0 0 0 0 0 1 0 0 1 2 2 1 1 1 1 1 1 1 1 3 5 4 4
2 1 0 0 0 0 0 0 0 0 0 0 0 0 0 0 0 0 0 0 0 0 0 0 0 0 0 0 0 0 0 1 1 0 0 1 2 2 1 0 0 0 0 0 1 4 4 2 1
2 1 0 0 0 0 0 0 0 0 0 0 1 1 1 1 0 0 0 0 0 0 0 0 0 0 0 0 0 0 1 2 2 0 1 2 3 2 1 1 1 1 0 0 1 4 3 1 0
2 1 0 0 0 0 0 0 0 0 0 1 2 3 2 1 0 0 0 0 0 0 0 0 0 0 0 0 0 0 1 2 1 0 1 2 3 2 1 2 3 2 1 0 1 2 2 0 0
2 2 1 0 0 0 0 0 0 0 0 1 2 3 2 1 0 0 0 0 0 0 0 0 0 0 0 0 0 0 1 2 1 0 0 1 2 1 2 4 5 4 1 0 0 1 0 0 0
2 2 1 0 0 0 0 0 0 0 0 1 2 3 2 1 0 0 0 0 0 0 0 0 0 0 0 0 0 0 1 1 1 0 0 1 2 2 2 3 4 4 1 0 0 0 0 0 0
1 1 0 0 0 0 0 0 0 0 0 1 3 3 2 1 0 0 0 0 0 0 0 0 0 0 0 0 0 0 0 1 1 1 1 2 4 4 3 2 2 1 1 0 0 0 0 0 0
0 0 0 0 0 0 0 0 0 0 0 1 2 3 3 1 0 0 1 0 0 0 0 0 0 0 0 0 1 1 1 0 0 1 1 2 3 3 3 2 1 1 2 1 1 0 0 0 0
0 0 0 0 0 0 0 0 0 0 0 1 1 3 3 2 1 0 0 0 0 0 1 0 0 1 2 2 1 2 2 1 0 0 1 1 1 2 3 3 3 2 2 2 1 0 0 0 0
0 0 0 0 0 0 0 0 0 0 0 0 1 2 3 2 1 0 0 0 0 0 1 1 3 5 6 5 3 2 2 1 0 0 0 1 1 2 3 3 3 2 2 2 1 0 0 0 0
0 0 0 0 0 0 0 0 0 0 0 0 1 2 2 1 1 0 0 0 0 0 1 3 5 7 8 7 5 3 2 1 1 1 0 1 2 3 4 4 3 1 0 0 0 0 0 0 0
0 0 0 0 0 0 0 0 0 0 0 0 1 1 1 1 1 0 1 1 1 1 2 4 6 7 7 6 5 4 3 2 2 1 1 2 3 4 4 4 3 2 0 0 1 2 1 0 0
0 0 0 0 0 0 0 0 0 0 0 0 0 0 1 2 3 3 3 3 2 3 3 4 5 6 6 4 3 3 3 3 1 1 1 3 4 4 4 5 4 2 1 2 5 6 4 1 1
0 0 0 0 0 0 0 0 0 0 0 0 1 1 1 3 5 6 5 4 4 5 5 5 6 8 8 7 5 5 5 3 2 1 2 4 5 5 5 6 6 4 3 6 10 11 8 4 3
0 0 0 0 0 0 0 0 0 0 0 0 1 2 1 2 5 7 7 5 4 5 6 7 9 11 12 11 10 9 8 5 4 3 4 5 6 6 6 6 8 8 8 10 13 14 13 9 5
0 0 0 0 0 0 0 0 0 0 0 0 1 2 2 2 4 6 7 6 4 4 5 8 12 15 15 14 14 14 12 8 6 6 7 7 8 8 7 7 10 11 11 13 14 15 15 12 9
0 0 0 0 0 0 0 0 0 0 0 0 1 3 5 5 5 6 9 9 6 5 4 7 12 16 17 16 16 16 15 12 12 13 13 11 10 11 10 10 11 12 13 14 16 16 16 13 12
0 0 0 0 0 0 0 0 0 0 0 0 1 4 8 10 8 9 13 15 12 8 6 7 14 18 18 18 17 17 16 16 16 19 18 14 12 13 14 13 14 14 14 16 17 16 14 12 12
0 0 0 0 0 0 0 0 0 0 0 0 2 4 9 13 12 11 14 16 15 12 9 10 15 19 18 18 16 15 16 16 17 19 18 15 13 14 15 15 15 15 15 17 17 15 11 9 9
0 0 0 0 0 0 0 0 0 0 0 0 2 6 10 13 14 14 14 14 13 12 11 12 15 17 17 17 15 15 16 17 17 19 18 17 15 14 14 14 14 15 16 16 15 13 11 8 6
0 0 0 0 0 0 0 0 0 0 0 0 2 7 11 13 16 17 17 16 13 11 10 12 15 15 16 17 18 18 21 22 21 21 22 20 17 15 14 14 14 14 15 14 13 12 12 10 8
0 0 0 0 0 0 0 0 0 0 0 1 3 7 12 16 18 19 19 19 18 16 14 15 16 16 16 19 22 24 25 25 24 23 22 21 18 15 15 15 16 16 15 13 13 12 12 12 11
0 0 0 0 0 0 0 1 1 1 1 3 5 8 14 18 18 19 20 20 21 20 19 19 18 17 17 19 22 25 27 26 25 23 20 18 17 16 16 17 18 18 17 15 14 13 13 13 12

GEFSSGP_con_prob3kmehi_294.txt.gz
EHI
4 9 19 23 15 4 0 0 0 0 0 0 0 0 0 0 0 0 0 1 2 2 1 2 2 1 0 0 0 0 0 0 0 0 0 0 0 0 0 0 0 0 1 1 1 2 3 3 3
7 15 23 21 10 2 0 0 0 0 0 0 0 0 0 0 0 0 0 1 2 2 1 1 2 1 0 0 0 0 0 0 0 0 0 0 0 0 0 0 0 0 0 0 0 1 2 3 3
17 22 24 15 5 0 0 0 0 0 0 0 0 0 0 0 0 0 0 0 1 1 2 2 2 0 0 0 0 0 0 0 0 0 0 0 1 0 0 0 0 0 0 0 0 0 1 3 5
32 28 19 9 2 0 0 0 0 0 0 0 0 0 0 0 0 0 0 0 0 1 2 3 2 0 0 0 0 0 0 0 0 0 0 0 0 0 0 0 0 0 0 1 1 1 2 4 6
38 27 14 5 1 0 0 0 0 0 0 1 1 1 0 0 0 0 0 0 0 2 3 3 2 1 1 1 1 1 0 0 0 0 0 0 0 0 0 1 1 1 1 2 2 3 3 5 6
28 20 8 2 0 0 0 0 0 0 0 1 2 1 0 0 0 0 0 0 0 2 5 4 3 3 2 2 2 2 1 1 1 1 1 1 2 2 2 3 3 2 3 3 3 4 5 6 6
18 12 4 0 0 0 0 0 0 0 0 0 1 1 0 0 0 0 0 0 0 1 4 5 4 3 3 3 3 3 3 3 3 4 3 4 5 6 6 5 4 3 3 3 3 4 5 6 6
11 7 2 0 0 0 0 0 0 0 0 0 0 0 0 0 0 0 0 0 0 0 2 4 4 3 2 3 4 5 6 6 6 6 5 5 6 6 7 6 4 3 3 3 3 3 4 4 4
6 4 1 0 0 0 0 0 0 0 0 0 0 0 0 0 0 0 0 0 0 0 1 2 4 3 2 2 4 6 7 6 6 6 6 4 4 4 4 5 5 4 4 3 3 3 4 4 3
3 1 0 0 0 0 0 0 0 0 0 1 2 1 0 0 0 0 0 0 0 0 1 2 4 4 2 1 3 5 6 6 5 4 4 4 3 3 2 3 5 6 5 4 3 3 4 4 3
2 1 0 0 0 0 0 0 0 0 0 2 4 4 1 0 0 0 0 0 0 0 1 3 5 5 3 1 1 2 4 5 5 5 5 4 3 2 1 2 4 5 4 4 3 3 2 2 1
1 0 0 0 0 0 0 0 0 0 1 3 4 4 1 0 0 0 1 0 0 1 1 3 6 6 6 4 2 2 2 3 4 7 7 5 4 2 1 1 2 2 3 4 4 3 1 0 0
0 0 0 0 0 0 0 0 0 1 2 3 3 2 1 0 0 0 0 0 0 1 3 4 5 6 8 9 6 2 1 2 4 7 9 7 4 3 3 3 2 1 2 4 4 2 2 2 1
0 0 0 0 0 0 0 0 1 2 3 3 3 2 2 2 1 0 0 0 0 2 5 7 7 7 9 10 8 3 2 3 4 6 8 7 5 5 6 5 4 2 3 4 4 3 4 4 4
0 0 0 0 0 0 1 1 2 3 3 3 3 3 3 2 2 2 1 1 1 4 7 9 8 9 11 11 7 3 2 4 5 6 7 7 7 7 6 5 4 3 4 5 6 6 6 6 6
0 0 0 0 0 0 0 1 2 3 3 4 4 4 3 2 3 3 2 1 3 7 10 8 6 9 14 14 10 6 5 7 8 9 9 11 11 9 7 5 5 4 5 7 7 7 7 6 6
0 0 0 0 0 0 0 0 1 2 3 5 5 6 5 3 4 5 3 3 6 11 14 11 9 12 17 19 16 12 10 10 11 11 13 15 14 11 9 9 7 7 8 8 9 9 9 8 8
0 0 0 0 0 0 0 0 0 1 3 5 7 8 8 5 5 6 6 6 10 18 23 22 18 19 22 22 20 17 14 12 12 12 13 15 14 12 13 13 12 11 11 10 11 14 15 15 14
0 0 0 0 0 0 0 0 0 1 3 5 7 11 12 10 9 9 10 10 15 24 33 32 27 24 22 21 20 17 13 11 13 15 15 15 14 13 14 15 16 15 14 12 14 16 18 19 19
0 0 0 0 0 0 0 0 0 1 2 4 7 13 17 17 16 15 13 13 17 27 35 35 32 27 22 19 19 15 11 11 12 16 20 20 17 15 14 16 18 17 16 16 17 17 17 18 20
0 0 0 0 0 0 0 0 1 1 1 3 6 12 18 23 25 22 18 16 19 27 33 34 34 31 25 20 17 13 12 11 11 16 23 24 20 18 18 20 20 18 18 18 18 19 19 21 22
0 0 0 0 0 0 0 1 1 1 1 2 4 8 15 22 28 28 24 20 20 25 30 35 38 37 31 25 19 16 14 13 13 17 21 23 22 22 23 24 23 21 19 18 18 19 23 25 26
0 0 0 0 0 0 0 1 1 1 0 2 3 5 9 17 26 30 28 23 20 21 27 36 43 42 36 30 25 22 19 16 16 18 21 24 26 25 25 25 25 23 20 18 17 18 21 24 25
0 0 0 0 0 0 0 1 1 1 1 2 4 4 6 14 24 30 31 27 22 22 27 38 46 43 38 34 30 27 24 21 20 21 22 25 27 27 25 25 26 24 20 19 19 19 20 21 22
0 0 0 0 0 0 0 1 3 3 2 4 6 6 8 14 22 30 33 31 27 26 32 43 49 44 36 32 32 31 29 26 24 24 25 25 25 26 25 25 27 25 21 21 22 21 20 20 20
0 0 0 0 0 0 0 2 4 4 3 4 5 7 10 14 20 27 32 32 30 30 36 46 51 47 37 32 33 34 33 30 28 27 27 26 25 25 26 27 28 26 23 22 23 22 20 19 19
0 0 0 0 0 0 1 3 5 4 3 2 4 8 11 15 21 27 30 31 33 35 40 46 52 50 43 38 37 36 35 33 33 32 28 26 25 26 28 29 29 27 24 24 24 23 21 20 19
0 0 0 0 0 0 1 3 4 3 3 3 5 9 13 17 23 27 29 31 34 37 42 48 53 53 49 45 40 37 36 37 36 33 27 25 25 25 28 30 29 27 25 25 25 23 21 21 21
0 0 0 0 0 0 0 1 1 2 3 4 6 11 15 18 23 27 30 33 35 37 42 49 53 52 49 46 42 38 37 37 35 30 26 25 25 24 25 28 27 26 25 25 25 23 21 22 22
0 0 0 0 0 0 0 0 0 1 3 5 7 12 15 18 21 26 30 34 35 36 42 48 51 49 47 46 43 40 38 36 32 28 25 25 24 24 24 24 25 25 23 24 24 22 21 23 23

GEFSSGP_con_prob3kmehi_300.txt.gz
EHI
6 2 0 1 1 1 0 0 0 0 0 0 0 0 0 0 0 0 0 0 0 1 1 4 5 3 1 0 1 0 1 2 3 2 1 0 0 0 0 0 0 0 0 0 0 0 0 1 1
2 2 1 0 0 0 0 0 0 0 0 0 0 0 0 0 0 0 0 0 0 1 1 2 3 2 1 1 1 0 0 1 2 1 0 0 0 1 1 1 1 1 1 1 0 0 0 1 1
2 2 2 1 0 0 0 0 0 0 0 0 0 0 0 0 0 0 0 0 0 0 0 1 2 1 1 1 1 1 1 0 0 0 1 1 1 2 2 2 2 2 2 2 1 1 2 2 2
5 5 3 1 0 0 0 0 0 0 0 0 0 0 0 0 0 0 0 0 0 0 0 1 2 3 3 3 2 2 2 1 0 1 2 2 2 3 3 3 1 1 1 3 3 3 4 4 5
6 7 4 1 0 0 0 0 0 0 0 0 0 0 0 0 0 0 0 0 0 0 0 1 3 5 5 4 3 3 2 1 0 1 2 3 3 3 4 3 2 1 2 3 4 4 5 6 6
8 8 5 1 0 0 0 0 0 0 0 0 0 0 0 0 0 0 0 0 0 0 0 1 4 6 6 6 5 4 2 1 0 0 1 2 3 4 5 4 4 4 3 3 4 4 5 5 4
13 9 4 1 0 0 0 0 0 0 0 0 0 0 0 0 0 0 0 0 0 0 0 1 2 4 5 6 5 5 2 0 1 1 2 2 3 4 4 4 5 5 4 3 4 3 3 2 2
14 8 2 0 0 0 0 0 0 0 0 0 0 0 0 0 0 0 0 0 0 0 0 0 1 1 2 3 4 3 2 2 3 4 4 3 3 3 2 3 5 5 4 4 5 4 3 2 1
8 5 1 0 0 0 0 0 0 1 1 1 0 0 0 0 1 0 0 0 0 0 0 0 0 0 0 1 1 2 2 3 3 3 4 3 2 1 1 2 3 4 5 6 6 6 5 4 3
5 4 1 0 0 0 0 0 0 1 2 1 0 0 0 0 0 0 0 1 2 1 0 0 0 0 0 0 0 1 1 1 1 1 1 1 1 0 0 1 2 3 5 6 5 6 6 5 5
5 4 2 0 0 0 0 0 0 1 1 1 1 1 0 0 0 1 1 2 3 3 1 0 0 0 0 0 0 0 0 0 0 0 0 0 0 0 0 1 1 2 3 3 3 4 4 3 3
4 3 2 0 0 0 0 0 0 1 1 2 2 1 0 0 1 2 2 3 4 3 2 1 1 1 0 0 0 0 0 0 0 0 0 0 0 0 1 1 1 0 1 1 2 3 2 1 1
2 1 1 0 0 0 0 0 1 2 3 3 2 1 0 1 2 3 3 3 3 3 1 1 2 1 0 0 0 0 0 0 0 0 0 0 0 0 1 1 1 0 0 0 1 2 1 0 0
1 0 0 0 0 0 0 0 1 3 4 4 3 1 1 2 3 4 4 3 2 1 0 1 2 1 1 1 1 0 0 0 0 0 0 0 0 0 0 0 0 0 0 0 0 1 1 0 0
0 0 0 0 0 1 1 1 1 3 5 5 4 3 3 3 2 3 5 5 3 1 1 2 3 3 2 3 3 2 1 0 0 0 0 0 0 0 0 0 1 2 1 1 0 0 0 0 0
0 0 0 0 0 1 1 1 1 3 6 7 7 6 5 3 2 2 5 6 4 3 3 5 5 4 4 4 4 4 2 1 0 0 0 0 0 0 0 1 2 3 3 2 1 1 1 1 0
0 0 0 0 0 0 0 0 1 3 6 8 10 9 6 5 4 4 6 7 5 5 5 6 6 6 5 5 4 3 1 1 1 0 0 0 0 0 0 2 3 3 3 3 3 2 3 3 2
0 0 0 0 0 0 0 1 2 3 4 7 9 8 7 6 6 7 9 8 7 6 6 5 5 5 5 4 2 1 0 0 1 0 0 0 1 1 2 2 2 3 3 3 3 3 4 4 5
0 0 0 0 0 0 0 1 2 3 4 5 6 8 7 7 8 10 12 11 9 7 6 5 4 3 3 3 1 1 1 1 1 1 0 1 3 4 5 4 4 3 3 3 2 2 3 4 5
0 0 0 0 0 0 0 1 2 3 4 5 6 9 11 10 11 13 15 16 14 11 8 6 5 4 4 4 3 2 2 2 2 2 1 2 4 6 7 7 7 6 5 3 2 3 3 3 4
0 0 0 0 0 0 0 0 1 2 4 6 8 11 14 16 17 16 17 20 20 16 12 8 6 6 6 6 5 5 5 4 3 3 3 3 5 6 7 8 8 8 8 6 5 6 6 6 7
0 0 0 0 0 0 0 0 1 2 5 8 9 11 14 19 21 20 19 21 23 22 18 12 9 9 9 9 8 8 7 7 6 5 4 4 4 6 8 8 9 9 9 9 8 9 9 10 11
0 0 0 0 0 0 0 0 1 2 5 9 11 12 15 20 23 23 21 21 23 25 23 16 13 12 12 11 10 9 7 6 6 6 5 4 3 5 8 10 11 11 10 10 10 10 10 12 14
0 0 0 0 0 0 0 0 0 2 5 9 12 15 17 20 23 23 22 20 20 24 24 20 16 15 14 13 12 10 8 7 7 7 5 3 2 4 7 11 13 13 12 11 10 10 11 12 13
0 0 0 0 0 0 0 0 1 4 6 9 13 16 20 21 22 22 20 19 19 22 24 22 18 17 17 17 17 14 12 10 9 8 7 6 4 4 6 9 12 12 12 11 11 10 11 12 13
0 0 0 0 0 0 0 1 4 6 9 11 13 18 23 24 23 21 20 20 21 23 26 25 21 18 18 18 18 17 14 12 11 11 10 8 6 5 6 8 10 10 10 11 12 11 10 10 12
0 0 0 0 0 0 0 1 5 9 11 12 14 19 25 26 24 22 21 22 23 24 28 29 26 20 17 16 17 16 14 13 13 12 11 9 7 6 7 8 9 8 8 10 12 11 10 10 11
0 0 0 0 0 0 0 1 5 10 13 14 15 18 24 28 26 23 23 24 25 27 29 32 31 26 20 16 14 14 14 15 14 12 10 8 6 6 7 7 6 6 6 8 10 10 10 10 10
0 0 0 0 0 0 0 0 3 9 14 15 16 18 25 30 27 23 24 26 29 30 31 32 32 31 25 18 13 13 14 15 14 11 9 8 7 7 7 6 5 4 4 6 7 8 9 8 8
0 0 0 0 0 0 0 0 2 8 14 15 16 19 25 30 26 22 23 27 31 32 31 30 31 32 27 19 13 13 13 13 12 11 9 8 7 7 7 7 5 4 4 5 5 6 6 6 5

GEFSSGP_con_prob3kmehi_306.txt.gz
EHI
3 1 0 0 0 0 0 0 0 0 0 0 0 0 0 0 0 0 0 0 0 0 0 1 1 1 2 3 4 4 4 3 3 2 1 0 0 0 1 1 0 0 0 0 0 0 0 0 1
1 0 0 0 0 0 0 0 0 0 0 0 0 0 0 0 0 0 0 0 0 0 0 0 0 0 1 2 3 3 3 3 3 2 1 0 0 0 1 1 0 0 0 0 0 0 0 1 2
0 0 0 0 0 0 0 0 0 0 0 0 0 0 0 0 0 0 0 0 0 0 0 0 0 0 0 1 1 2 2 2 2 1 0 1 1 1 1 1 0 0 0 0 0 0 0 1 2
0 0 0 0 0 0 0 0 0 0 0 0 0 0 0 0 0 0 0 0 0 0 0 0 0 0 0 1 1 2 2 2 1 0 0 1 2 2 1 0 0 1 0 0 1 1 1 0 1
1 0 0 0 0 0 0 0 0 0 0 0 0 0 0 0 0 0 0 0 0 0 0 0 0 1 1 2 3 3 3 2 0 0 0 1 1 1 1 0 0 0 0 1 2 3 2 1 1
2 1 0 0 0 0 0 0 0 0 0 0 0 0 0 0 0 0 0 0 0 0 0 0 0 1 2 3 3 3 3 1 0 0 0 0 0 1 1 1 1 1 1 1 3 4 3 3 2
3 2 0 0 0 0 0 0 0 0 0 0 0 0 0 0 0 0 0 0 0 0 0 0 0 1 2 3 3 3 2 1 0 0 0 0 1 2 2 2 2 2 2 3 3 4 4 3 3
2 1 0 0 0 0 0 0 0 0 0 0 0 0 0 0 0 0 0 0 0 0 0 0 0 0 1 1 2 2 1 0 0 0 0 0 1 2 2 3 3 3 3 3 4 5 4 3 3
1 0 0 0 0 0 0 0 0 0 0 0 0 0 0 0 0 0 0 0 0 0 0 0 0 0 0 0 1 1 0 0 0 0 0 0 1 1 1 1 2 3 3 4 5 6 4 3 2
0 0 0 0 0 0 0 0 0 0 0 0 0 0 0 0 0 0 1 1 0 0 0 0 0 0 0 0 0 0 0 0 0 0 0 0 0 0 0 0 1 1 2 3 5 5 4 2 1
1 1 1 0 0 0 0 0 0 0 0 0 0 0 0 1 1 1 2 1 0 0 0 0 0 0 0 0 0 0 0 0 0 0 0 0 0 0 0 0 0 0 1 1 3 3 2 0 0
2 3 2 1 0 0 0 0 0 0 0 0 0 0 1 2 2 3 3 2 0 0 0 0 0 0 0 0 0 0 0 0 0 0 0 0 0 0 0 0 1 1 0 0 1 1 1 0 0
2 2 2 1 0 0 0 0 0 0 0 0 0 1 2 2 3 3 3 2 1 0 0 0 0 0 0 0 0 0 0 0 0 0 0 0 0 0 0 1 2 1 0 0 0 0 1 0 0
1 1 0 0 0 0 0 0 0 0 1 1 1 2 1 1 2 3 3 2 1 0 0 0 0 0 0 0 0 0 0 0 0 0 0 0 0 0 1 2 2 1 0 0 0 0 0 0 0
0 0 0 0 0 0 0 0 0 0 1 1 2 2 1 1 2 3 3 3 1 1 0 0 0 0 0 0 0 0 0 0 0 0 0 0 0 0 1 2 2 1 0 0 0 0 0 0 0
0 0 0 0 0 0 0 0 0 1 2 2 3 2 1 1 3 3 3 3 3 2 1 0 0 0 0 0 0 0 0 0 0 0 0 0 0 0 0 1 1 0 0 0 0 0 0 0 0
0 0 0 0 0 0 0 0 0 1 3 4 3 1 0 1 2 3 3 3 3 2 1 0 0 0 0 0 0 0 0 0 0 0 0 0 1 1 1 1 0 0 0 0 0 0 0 1 1
0 0 0 0 0 0 0 0 1 2 4 5 3 1 0 1 2 3 3 3 3 2 1 1 0 0 0 0 0 0 0 0 0 0 0 0 1 2 3 3 2 2 2 1 1 2 2 2 3
0 0 0 0 0 0 0 0 1 3 5 5 3 1 0 0 1 3 4 4 4 3 3 2 1 0 0 0 0 0 0 0 0 0 0 0 1 2 3 4 4 4 3 3 3 3 3 4 4
0 0 0 0 0 0 0 0 0 2 4 5 3 1 0 0 1 3 5 6 6 5 4 2 1 0 0 0 0 0 0 0 0 0 0 0 0 1 3 4 4 4 4 3 3 4 4 4 4
0 0 0 0 0 0 0 0 0 1 2 3 2 0 0 0 0 2 5 6 6 5 3 1 0 1 1 1 1 0 0 0 0 0 0 0 0 1 3 4 4 5 6 5 5 6 6 5 5
0 0 0 0 0 0 0 0 0 0 1 1 1 1 0 0 0 2 5 7 6 4 2 1 1 2 3 4 4 2 0 0 0 0 0 0 0 2 4 5 6 8 8 8 8 9 9 8 8
0 0 0 0 0 0 0 0 0 0 0 0 1 2 1 0 0 1 4 6 7 4 2 2 2 3 5 8 8 5 2 1 0 0 1 1 0 1 2 4 7 9 10 10 10 10 10 10 10
0 0 0 0 0 0 0 0 0 0 0 1 1 2 2 1 0 1 3 6 7 6 4 2 3 4 6 9 10 7 5 3 2 1 2 2 1 0 0 2 5 8 9 9 9 9 10 10 10
0 0 0 0 0 0 0 0 0 1 1 2 1 1 1 2 1 1 4 7 9 9 6 4 4 4 6 8 8 7 6 5 4 3 3 3 1 1 1 2 3 4 6 6 7 8 9 8 8
0 0 0 0 0 0 0 0 1 2 3 3 1 1 2 3 3 3 5 8 9 10 9 7 6 6 6 5 4 4 5 5 5 4 2 2 1 1 1 1 1 1 2 3 4 6 7 6 6
0 0 0 0 0 0 0 0 1 2 3 2 1 1 2 4 4 4 6 8 9 10 12 11 9 7 5 3 1 1 3 4 4 2 2 2 2 1 1 0 0 0 0 0 2 3 5 6 6
0 0 0 0 0 0 0 0 1 1 2 1 0 1 3 4 5 5 7 9 11 13 15 14 11 7 5 3 1 2 3 3 3 3 3 4 4 3 2 2 1 0 0 1 1 2 4 6 7
0 0 0 0 0 0 0 0 0 1 2 1 0 2 4 5 5 6 8 11 15 18 18 15 11 9 6 5 4 5 5 5 4 3 4 5 5 5 6 5 3 2 1 2 2 2 4 7 7
0 0 0 0 0 0 0 0 0 1 2 2 1 3 5 5 4 5 7 10 14 19 18 14 11 10 8 7 7 7 6 6 4 4 5 6 6 7 7 7 5 4 3 3 3 3 5 7 8

GEFSSGP_con_prob3kmehi_312.txt.gz
EHI
3 1 4 8 6 2 0 0 0 0 0 0 0 0 0 0 0 0 0 0 0 0 0 0 0 0 1 1 1 0 0 0 0 0 0 0 0 0 1 3 2 1 0 1 2 2 1 0 0
3 3 5 6 4 1 0 0 0 0 0 0 0 0 0 0 0 0 0 0 0 0 0 0 0 0 0 1 1 0 0 0 0 0 0 0 0 1 3 3 2 1 0 0 1 2 1 0 0
6 7 7 4 1 0 0 0 0 0 0 0 0 0 0 0 0 0 0 0 0 0 0 0 0 0 0 0 1 0 0 0 0 0 0 0 1 3 4 3 2 1 0 0 0 1 1 0 0
9 10 7 2 0 0 0 0 0 0 0 0 0 0 0 0 0 0 0 0 0 0 0 0 0 0 0 0 0 0 0 0 0 0 0 0 1 3 4 2 1 0 0 0 1 1 1 1 1
9 8 4 1 0 0 0 0 0 0 0 0 0 0 0 0 0 0 0 0 0 0 0 0 0 0 0 0 0 0 0 0 0 0 0 0 1 2 2 1 1 1 1 1 2 2 2 2 2
3 2 1 0 0 0 0 0 0 0 0 0 0 0 0 0 0 0 0 0 0 0 0 0 0 0 0 0 0 1 1 1 1 0 0 0 0 1 2 3 3 3 3 3 3 3 3 2 2
1 1 0 0 0 0 0 0 0 0 0 0 0 0 0 0 0 0 0 0 0 0 0 0 0 0 0 0 0 1 2 2 2 1 0 0 1 2 3 4 4 3 4 4 3 3 2 2 2
1 1 0 0 0 0 0 0 0 0 0 0 0 0 1 1 1 0 0 0 0 0 0 0 0 0 0 0 0 1 1 1 2 2 1 1 1 2 2 3 4 4 4 4 3 2 2 2 2
1 1 1 0 0 0 0 0 0 0 0 0 0 0 1 2 1 0 0 0 0 0 0 0 0 0 0 0 0 0 0 0 1 2 2 2 1 1 1 1 3 4 4 4 3 3 2 2 2
1 2 1 0 0 0 0 0 0 0 0 0 1 1 1 2 1 0 0 0 0 0 0 0 0 0 0 0 0 0 0 0 1 2 3 2 1 0 0 1 1 2 3 3 3 3 3 2 1
1 1 1 0 0 0 0 0 0 0 0 0 2 3 2 1 0 1 1 1 0 0 0 0 1 1 2 2 1 1 1 1 2 3 3 1 1 1 1 2 1 1 1 1 1 2 1 1 0
0 0 0 0 0 0 0 0 0 0 0 0 2 3 2 0 0 1 2 2 2 1 0 1 1 2 3 3 3 3 3 2 3 4 3 2 2 2 2 3 3 3 2 1 1 1 0 0 0
0 0 0 0 0 0 0 0 0 0 0 1 3 3 2 0 0 1 2 3 3 2 1 2 2 3 4 6 6 6 6 6 7 6 4 3 3 3 3 3 4 4 3 4 3 2 1 1 1
0 0 0 0 0 0 0 0 0 0 0 2 3 2 1 0 0 0 1 1 1 1 1 2 2 3 5 7 8 8 9 10 10 8 5 3 3 3 3 3 4 4 5 7 6 4 3 3 3
0 0 0 0 0 0 0 0 0 0 0 1 2 1 0 0 0 0 0 0 0 0 0 1 1 2 4 8 10 9 8 9 10 8 6 4 3 3 3 3 4 6 8 10 9 6 5 6 6
0 0 0 0 0 0 0 0 1 1 0 1 2 1 0 0 0 0 0 0 0 0 0 0 0 1 4 9 12 10 8 8 7 7 6 4 3 3 3 4 6 8 10 10 8 7 6 8 9
0 0 0 0 0 0 0 1 2 2 1 1 1 1 0 0 0 0 0 0 0 0 0 0 1 2 5 10 14 13 11 9 7 7 6 5 4 3 4 5 6 7 8 8 6 6 8 8 8
0 0 0 0 0 0 0 1 2 3 2 2 1 0 0 0 0 1 1 1 1 1 1 1 3 4 6 9 12 12 11 9 8 7 6 4 3 3 3 4 4 4 5 5 4 5 8 8 7
0 0 0 0 0 0 0 0 1 2 2 2 2 1 0 0 0 1 2 3 3 4 5 5 6 7 7 6 7 8 8 8 8 7 5 4 3 3 3 4 4 4 5 6 6 7 8 9 9
0 0 0 0 0 0 0 0 1 2 2 1 1 1 0 0 0 1 4 5 6 8 10 10 10 8 7 6 5 5 7 9 8 7 5 3 3 3 4 5 5 5 7 10 11 11 11 11 10
0 0 0 0 0 0 0 0 0 1 1 0 1 1 1 2 2 3 5 7 9 11 13 13 12 11 10 9 7 6 7 9 8 6 5 3 3 3 4 6 7 7 9 11 13 14 14 12 11
0 0 0 0 0 0 0 0 0 0 0 0 1 2 3 3 3 5 8 11 12 12 13 15 15 15 14 13 11 9 9 9 7 6 5 4 3 3 5 7 8 8 9 10 10 12 13 13 13
0 0 0 0 0 0 0 0 0 0 0 1 1 2 3 3 4 6 10 14 15 14 16 20 22 22 20 17 16 14 12 10 8 5 4 4 4 4 5 7 7 8 8 8 8 9 10 12 12
0 0 0 0 0 0 0 0 0 0 0 1 1 1 2 3 4 6 9 14 16 17 20 26 30 31 26 20 19 19 17 14 11 7 5 4 4 5 5 5 6 6 6 6 7 7 8 11 13
0 0 0 0 0 0 0 0 0 0 0 0 0 1 2 3 4 5 8 13 16 18 24 31 36 36 30 25 22 22 19 15 13 9 4 3 4 4 4 4 5 4 4 4 6 7 7 10 14
0 0 0 0 0 0 0 0 0 0 0 0 0 1 2 4 4 5 8 13 16 18 23 30 36 36 31 26 23 20 16 13 11 7 3 3 3 3 4 5 6 6 5 6 7 7 6 7 10
0 0 0 0 0 0 0 0 0 0 0 0 0 1 3 4 5 6 10 14 16 18 21 26 31 33 30 24 19 16 13 11 10 7 5 4 5 5 5 6 7 8 7 7 8 7 6 6 7
0 0 0 0 0 0 0 0 0 0 0 0 0 1 4 5 6 8 11 13 15 17 20 23 26 27 25 20 14 10 10 10 9 8 7 8 8 8 8 7 8 8 8 7 7 6 6 6 8
0 0 0 0 0 0 0 0 1 1 1 0 1 3 6 7 7 9 12 14 16 18 21 23 24 24 21 15 10 7 7 6 6 7 8 9 9 8 7 7 7 8 8 8 8 8 8 8 9
0 0 0 0 0 0 0 0 1 2 2 1 2 5 8 9 9 9 12 15 18 20 20 22 25 24 19 11 6 5 5 4 5 6 7 8 7 6 5 5 7 8 8 10 11 10 9 9 9

GEFSSGP_con_prob3kmehi_318.txt.gz
EHI
5 10 20 30 27 11 1 0 0 0 0 0 0 0 0 0 0 0 0 1 3 5 4 3 2 1 1 1 0 0 0 0 0 1 0 0 0 0 0 0 0 0 0 0 0 0 0 0 1
7 14 25 29 20 7 0 0 0 0 0 0 0 0 0 0 0 0 0 1 2 4 4 4 3 2 1 0 0 0 0 0 0 1 0 0 1 1 1 1 1 0 0 0 0 0 0 1 2
15 23 29 24 10 2 0 0 0 0 0 0 0 0 0 0 0 0 0 0 1 2 3 5 5 3 1 1 1 0 0 0 0 0 0 0 1 2 2 3 2 1 0 0 0 0 0 1 2
29 33 29 15 4 0 0 0 0 0 0 0 0 0 0 0 0 0 0 0 1 2 3 5 7 5 3 2 1 0 0 0 0 0 0 0 1 3 3 4 4 2 0 0 0 1 0 0 1
37 33 21 7 1 0 0 0 0 0 0 0 0 0 1 1 2 1 0 0 0 1 2 6 8 8 6 5 3 1 0 0 0 0 0 0 1 3 3 4 5 4 2 1 1 1 1 1 1
33 25 12 3 0 0 0 0 0 0 0 0 0 1 2 3 3 2 1 0 0 0 2 5 9 10 9 8 5 1 0 0 0 0 0 1 2 3 4 5 6 6 5 4 3 3 2 2 2
25 17 7 1 0 0 0 0 0 0 0 0 0 1 2 3 3 3 2 1 0 0 1 3 7 9 9 8 7 3 0 1 1 1 1 2 3 4 5 6 7 7 7 7 5 4 3 4 4
16 11 5 1 0 0 0 0 0 0 0 0 0 1 2 3 3 3 2 1 0 0 1 2 3 4 5 6 7 5 2 2 2 2 3 4 5 5 6 7 8 8 8 7 6 5 5 7 7
8 7 3 0 0 0 0 0 0 0 0 1 1 1 3 3 3 3 2 1 0 0 0 1 2 1 1 3 6 7 6 5 5 4 5 7 7 6 6 7 9 9 8 8 8 9 10 11 12
5 4 2 0 0 0 0 0 0 0 1 2 2 3 3 3 3 2 1 0 0 0 1 3 3 2 1 2 6 9 10 10 8 7 7 8 8 6 5 7 9 9 9 10 13 14 14 13 12
3 2 1 0 0 0 0 0 0 0 2 3 3 3 3 3 2 1 0 0 0 0 2 5 6 6 5 4 6 8 11 14 13 10 8 9 8 6 7 9 10 10 10 11 15 18 16 14 13
1 1 0 0 0 0 0 0 0 0 2 4 4 3 3 2 1 0 0 0 1 2 3 5 7 9 9 8 7 7 8 12 14 12 10 8 6 6 10 14 13 11 10 11 14 17 17 15 14
0 0 0 0 0 0 0 0 0 1 3 5 4 3 1 1 0 0 0 1 3 4 4 4 7 11 12 12 10 7 6 8 10 11 10 7 5 7 11 14 13 10 9 10 11 14 15 15 14
1 0 0 0 0 0 0 0 0 1 3 5 5 3 1 0 0 0 0 1 3 5 5 5 7 12 14 13 11 8 6 6 7 8 9 7 5 7 10 10 10 10 9 10 11 11 11 11 11
1 0 0 0 0 0 0 1 1 3 4 5 4 3 2 1 0 0 0 1 2 4 6 6 6 12 16 15 12 10 7 7 7 8 9 8 7 8 9 9 10 11 12 12 12 10 8 7 8
1 0 0 0 0 0 1 2 3 4 5 4 2 1 2 2 1 1 1 2 2 5 9 9 6 10 18 19 16 13 9 8 9 9 10 11 11 10 9 9 11 14 12 10 10 9 7 6 6
0 0 0 0 0 0 1 3 4 5 5 4 2 1 1 2 3 2 3 4 6 11 17 15 10 13 19 20 19 17 15 13 12 11 10 11 11 10 9 9 10 12 10 8 8 9 10 8 7
0 0 0 0 0 0 1 3 4 5 6 7 5 3 3 3 3 3 5 7 11 20 27 25 20 22 24 21 18 19 20 18 15 13 11 9 9 8 8 8 9 9 8 9 11 12 12 10 9
0 0 0 0 0 0 2 4 5 5 6 8 8 8 7 5 5 7 8 10 18 30 37 36 33 32 30 25 20 21 20 17 16 17 15 11 8 7 7 7 9 9 10 13 14 14 13 12 11
0 0 0 0 0 0 1 3 4 4 4 6 8 10 10 10 11 15 17 18 27 39 43 41 41 39 35 30 24 21 19 17 17 19 18 14 10 9 8 8 9 11 13 15 15 14 13 11 11
0 0 0 0 0 1 1 2 2 1 1 4 7 9 11 13 16 21 27 29 34 43 45 43 43 42 37 32 24 20 20 18 17 18 18 16 13 12 12 11 11 12 13 14 13 13 13 12 10
0 0 0 0 0 1 1 1 0 0 0 2 5 7 10 14 18 23 30 34 36 41 45 47 48 46 40 33 27 22 20 19 17 17 18 17 15 15 16 16 16 15 13 11 10 12 13 12 10
0 0 0 0 0 0 0 0 0 0 0 2 5 6 9 14 19 22 28 34 36 36 42 50 55 52 44 37 33 29 25 21 18 18 19 18 17 17 18 19 19 18 16 14 12 13 13 11 10
0 0 0 0 0 0 0 0 0 0 1 2 4 5 7 11 17 20 24 31 34 33 38 49 58 56 48 41 37 33 30 26 22 20 20 19 17 17 18 19 20 21 19 17 15 15 13 12 12
0 0 0 0 0 0 0 0 1 1 1 2 2 3 5 7 11 15 21 27 31 34 39 49 57 55 50 45 40 36 32 28 26 25 22 17 13 14 17 19 23 23 21 18 18 18 16 17 20
0 0 0 0 0 0 0 1 2 2 2 2 1 1 2 5 8 11 19 25 28 34 42 51 56 56 51 47 44 40 34 29 27 25 21 15 9 9 13 19 23 23 21 19 22 23 22 23 26
0 0 0 0 0 0 0 1 2 2 1 1 1 2 4 6 9 12 19 27 30 36 45 53 57 58 54 50 47 42 37 32 29 25 20 14 11 10 14 18 20 21 21 22 23 24 23 24 26
0 0 0 0 0 0 0 0 1 2 2 2 4 6 8 9 11 14 21 31 36 38 45 53 57 58 55 50 45 40 36 34 32 27 22 20 17 16 20 22 21 21 22 24 24 21 20 21 24
0 0 0 0 0 0 0 0 2 3 3 4 6 8 9 10 12 16 22 32 39 41 45 51 56 57 54 50 45 40 35 32 29 27 26 27 26 25 26 27 26 24 25 24 23 19 18 20 22
0 0 0 0 0 0 0 1 3 4 4 4 6 8 8 9 13 17 23 31 40 44 46 51 55 55 53 50 46 42 37 30 24 25 29 31 31 29 27 27 27 26 25 24 21 18 17 20 22

GEFSSGP_con_prob3kmehi_324.txt.gz
EHI
3 4 4 3 1 0 0 0 0 0 0 0 0 0 0 0 0 0 0 0 0 0 1 2 4 5 4 3 2 3 3 2 3 3 3 3 3 3 3 2 1 0 0 0 0 1 2 2 1
3 4 5 4 1 0 0 0 0 0 0 0 0 0 0 0 0 0 0 0 0 0 0 1 4 6 5 3 2 2 1 1 2 3 3 3 4 4 3 2 1 1 0 0 0 0 1 1 1
3 4 4 3 1 0 0 0 0 0 0 0 0 0 0 0 0 0 0 0 0 0 0 2 5 7 6 4 2 1 0 0 1 2 3 4 4 5 5 4 3 3 2 1 1 1 1 1 2
4 4 4 2 0 0 0 0 0 0 0 0 0 0 0 0 0 0 0 0 0 0 0 3 7 10 9 6 4 3 1 1 1 2 3 4 5 5 6 6 6 6 5 4 3 3 3 3 3
7 6 3 1 0 0 0 0 1 1 1 0 0 0 0 0 1 2 1 0 0 0 0 3 9 12 11 9 8 6 4 3 3 3 5 5 6 6 7 7 8 8 7 6 6 6 5 5 5
11 8 3 1 0 0 1 1 2 2 1 0 0 0 0 0 2 3 2 0 0 0 0 3 8 11 10 10 9 8 7 7 6 5 5 6 7 8 8 8 8 7 8 9 11 10 8 7 6
13 9 3 1 0 0 1 2 2 2 1 0 0 0 0 1 2 3 1 0 0 0 0 2 4 6 6 7 7 6 7 8 7 6 6 7 9 10 11 10 9 9 10 13 15 15 13 11 9
10 7 3 1 0 0 0 1 1 1 0 0 0 0 0 1 3 3 1 0 0 0 0 0 1 1 3 3 3 4 4 6 6 6 6 8 9 9 10 10 10 11 13 16 18 17 15 15 14
5 4 2 2 1 0 0 0 0 0 0 0 1 1 1 2 3 3 2 0 0 0 0 0 0 0 1 1 1 2 2 3 4 5 5 5 4 4 5 8 11 14 16 17 17 17 17 17 17
3 3 3 3 2 1 0 0 0 1 1 1 2 3 3 3 3 2 1 0 0 0 0 0 0 0 0 0 0 1 1 1 1 2 2 1 0 0 2 5 9 12 14 15 16 16 15 16 16
4 4 4 4 3 1 0 0 0 1 1 2 4 6 6 4 2 1 0 0 0 0 0 0 0 0 0 0 0 0 0 0 0 0 0 0 0 0 1 2 4 7 8 9 11 12 11 11 12
4 4 4 4 3 1 0 0 0 0 1 2 5 6 6 3 1 0 0 0 0 0 0 0 0 0 0 0 0 1 1 1 0 0 0 0 0 0 1 1 1 2 3 4 5 6 6 7 7
2 2 3 4 2 1 0 0 0 0 0 2 4 4 3 1 0 0 0 0 0 0 0 1 1 1 0 0 1 2 2 1 0 0 0 1 1 1 2 3 2 2 3 3 3 3 4 4 5
1 1 2 2 1 0 0 0 0 0 1 2 3 2 1 0 0 0 1 1 0 0 1 2 3 2 1 1 2 3 2 0 0 0 0 1 2 3 4 4 3 3 3 3 3 3 3 3 3
0 1 1 1 0 0 0 0 0 0 1 2 2 1 0 0 0 1 2 2 1 0 1 3 3 2 2 3 4 4 2 0 0 0 0 1 2 3 4 3 3 3 3 3 3 3 3 2 1
0 0 0 0 0 0 0 0 0 0 0 1 1 1 0 0 0 1 2 2 1 1 2 4 4 4 4 4 5 4 2 1 1 1 1 1 2 2 2 2 3 3 3 3 3 3 3 2 1
0 0 0 0 0 0 0 0 0 1 1 0 0 0 0 0 0 1 3 3 2 3 5 6 7 7 6 5 4 2 2 2 3 3 3 2 2 2 1 1 1 3 3 3 3 3 3 2 1
0 0 0 0 0 0 1 1 1 1 2 1 1 0 0 0 0 1 3 4 4 5 6 7 8 9 8 6 4 3 3 3 4 4 4 3 3 2 2 1 1 3 3 3 3 3 3 1 1
0 0 0 0 0 0 1 1 1 1 2 3 2 1 2 2 1 2 5 7 7 7 7 8 9 9 9 8 6 5 4 3 3 4 4 4 3 3 3 3 3 3 3 3 3 4 3 2 2
0 0 0 0 0 0 1 1 0 1 2 3 3 3 5 5 4 6 10 11 11 11 11 12 12 11 10 9 8 7 5 4 4 4 4 3 3 3 4 3 3 3 4 3 4 5 4 3 3
0 0 0 0 0 0 0 0 0 0 1 2 3 5 7 8 8 10 14 17 16 16 17 18 17 15 13 11 9 7 6 5 5 4 3 2 2 2 3 4 5 6 5 4 4 5 4 3 3
0 0 0 0 0 0 0 0 0 0 0 1 3 6 9 10 10 13 18 21 20 21 23 24 22 20 19 16 12 9 7 6 5 4 3 1 1 1 2 5 8 8 8 6 5 4 3 3 3
0 0 0 0 0 0 0 0 0 0 0 1 3 7 10 11 11 13 18 21 22 24 28 29 28 27 25 21 17 13 9 6 4 5 4 1 0 0 1 4 7 8 8 7 6 4 4 4 4
0 0 0 0 0 0 0 0 0 0 1 2 4 7 9 9 10 12 13 17 21 27 31 33 31 30 28 25 19 15 10 7 6 5 4 2 0 0 1 2 4 5 5 6 6 6 6 6 6
0 0 0 0 0 0 0 0 0 0 1 3 5 8 9 9 11 12 13 15 20 27 31 32 32 30 28 25 20 15 10 8 8 6 4 2 1 0 0 1 2 3 3 5 6 6 7 7 7
0 0 0 0 0 0 0 0 0 1 2 4 6 8 9 9 12 14 15 17 21 26 28 30 31 31 30 28 24 18 13 10 8 7 5 3 2 1 1 3 4 4 4 5 6 6 6 5 5
0 0 0 0 0 0 0 0 1 2 4 5 6 8 9 9 11 13 16 19 22 24 25 28 32 33 34 35 31 25 18 13 10 9 8 6 4 3 4 5 7 7 6 5 4 4 4 4 4
0 0 0 0 0 0 0 0 1 3 5 6 6 7 8 9 11 13 15 18 21 22 23 27 30 33 35 37 34 28 21 16 14 13 11 8 6 6 6 8 9 10 8 6 3 2 3 3 4
0 0 0 0 0 0 0 0 1 4 6 6 5 5 7 10 13 16 18 19 20 22 24 26 28 30 33 32 31 27 20 17 16 15 12 9 8 8 10 10 11 11 10 7 4 3 3 4 4
0 0 0 0 0 0 0 1 2 4 5 5 4 4 7 11 16 20 23 22 21 23 25 25 26 28 29 29 27 24 19 17 17 16 13 10 9 11 12 12 13 12 11 9 6 4 4 5 5